Time,TemperatureF,DewpointF,PressureIn,WindDirection,WindDirectionDegrees,WindSpeedMPH,WindSpeedGustMPH,Humidity,HourlyPrecipIn,Conditions,Clouds,dailyrainin,SoftwareType,DateUTC
2013-04-26 00:00:00,71.4,40.0,30.24,WNW,292,2.0,2.7,32,0.00,,,0.00,VWS V14.01,2013-04-26 04:00:00,
2013-04-26 00:01:00,69.4,41.3,30.21,ENE,68,0.9,0.9,36,0.00,,,0.00,VWS V14.01,2013-04-26 04:01:00,
2013-04-26 00:02:00,71.2,39.9,30.24,NNW,338,1.6,3.4,32,0.00,,,0.00,VWS V14.01,2013-04-26 04:02:00,
2013-04-26 00:04:00,71.2,39.9,30.24,NNW,338,3.1,3.1,32,0.00,,,0.00,VWS V14.01,2013-04-26 04:04:00,
2013-04-26 00:06:00,69.6,42.9,30.21,ENE,68,6.5,7.2,38,0.00,,,0.00,VWS V14.01,2013-04-26 04:06:00,
2013-04-26 00:07:00,71.2,40.7,30.24,NW,315,2.7,2.7,33,0.00,,,0.00,VWS V14.01,2013-04-26 04:07:00,
2013-04-26 00:08:00,71.2,40.7,30.24,West,270,2.5,2.7,33,0.00,,,0.00,VWS V14.01,2013-04-26 04:08:00,
2013-04-26 00:09:00,71.2,40.7,30.24,WNW,292,3.6,3.6,33,0.00,,,0.00,VWS V14.01,2013-04-26 04:09:00,
2013-04-26 00:10:00,71.2,40.7,30.24,NNW,338,2.0,3.6,33,0.00,,,0.00,VWS V14.01,2013-04-26 04:10:00,
2013-04-26 00:11:00,69.8,42.4,30.27,North,0,2.7,2.7,37,0.00,,,0.00,VWS V14.01,2013-04-26 04:11:00,
2013-04-26 00:12:00,71.2,40.7,30.24,NNW,338,2.7,2.7,33,0.00,,,0.00,VWS V14.01,2013-04-26 04:12:00,
2013-04-26 00:13:00,71.2,40.7,30.21,NNE,22,2.0,3.4,33,0.00,,,0.00,VWS V14.01,2013-04-26 04:13:00,
2013-04-26 00:14:00,71.2,40.7,30.21,NNW,338,2.0,2.0,33,0.00,,,0.00,VWS V14.01,2013-04-26 04:14:00,
2013-04-26 00:15:00,71.2,40.7,30.21,NW,315,2.2,4.0,33,0.00,,,0.00,VWS V14.01,2013-04-26 04:15:00,
2013-04-26 00:16:00,69.8,43.1,30.27,East,90,6.3,6.3,38,0.00,,,0.00,VWS V14.01,2013-04-26 04:16:00,
2013-04-26 00:17:00,71.2,40.7,30.21,NNW,338,1.3,2.7,33,0.00,,,0.00,VWS V14.01,2013-04-26 04:17:00,
2013-04-26 00:18:00,71.1,40.5,30.21,NW,315,2.0,2.7,33,0.00,,,0.00,VWS V14.01,2013-04-26 04:18:00,
2013-04-26 00:19:00,71.1,40.5,30.21,NNW,338,1.3,2.0,33,0.00,,,0.00,VWS V14.01,2013-04-26 04:19:00,
2013-04-26 00:20:00,71.1,40.5,30.21,WNW,292,2.9,2.9,33,0.00,,,0.00,VWS V14.01,2013-04-26 04:20:00,
2013-04-26 00:21:00,69.8,42.4,30.27,ENE,68,3.8,4.3,37,0.00,,,0.00,VWS V14.01,2013-04-26 04:21:00,
2013-04-26 00:22:00,71.1,40.5,30.21,WNW,292,3.1,3.1,33,0.00,,,0.00,VWS V14.01,2013-04-26 04:22:00,
2013-04-26 00:23:00,71.1,40.5,30.21,WNW,292,2.7,3.1,33,0.00,,,0.00,VWS V14.01,2013-04-26 04:23:00,
2013-04-26 00:24:00,71.1,40.5,30.21,NNW,338,0.9,2.9,33,0.00,,,0.00,VWS V14.01,2013-04-26 04:24:00,
2013-04-26 00:25:00,71.1,40.5,30.21,NNE,22,2.0,2.0,33,0.00,,,0.00,VWS V14.01,2013-04-26 04:25:00,
2013-04-26 00:26:00,69.6,42.2,30.24,North,0,1.1,2.9,37,0.00,,,0.00,VWS V14.01,2013-04-26 04:26:00,
2013-04-26 00:27:00,71.1,40.5,30.21,WNW,292,2.5,3.1,33,0.00,,,0.00,VWS V14.01,2013-04-26 04:27:00,
2013-04-26 00:28:00,71.1,40.5,30.24,NNW,338,0.9,2.5,33,0.00,,,0.00,VWS V14.01,2013-04-26 04:28:00,
2013-04-26 00:29:00,70.9,40.4,30.24,North,0,1.1,2.7,33,0.00,,,0.00,VWS V14.01,2013-04-26 04:29:00,
2013-04-26 00:30:00,70.9,40.4,30.24,WNW,292,3.1,3.1,33,0.00,,,0.00,VWS V14.01,2013-04-26 04:30:00,
2013-04-26 00:31:00,69.6,42.9,30.24,East,90,4.3,4.3,38,0.00,,,0.00,VWS V14.01,2013-04-26 04:31:00,
2013-04-26 00:32:00,70.9,40.4,30.24,NNW,338,2.9,2.9,33,0.00,,,0.00,VWS V14.01,2013-04-26 04:32:00,
2013-04-26 00:33:00,70.9,40.4,30.24,NNW,338,1.3,3.1,33,0.00,,,0.00,VWS V14.01,2013-04-26 04:33:00,
2013-04-26 00:34:00,70.9,40.4,30.24,West,270,3.4,3.4,33,0.00,,,0.00,VWS V14.01,2013-04-26 04:34:00,
2013-04-26 00:35:00,70.9,40.4,30.24,West,270,1.6,3.4,33,0.00,,,0.00,VWS V14.01,2013-04-26 04:35:00,
2013-04-26 00:36:00,69.6,42.9,30.24,NNE,22,2.2,2.7,38,0.00,,,0.00,VWS V14.01,2013-04-26 04:36:00,
2013-04-26 00:37:00,70.9,40.4,30.24,NNW,338,4.3,4.3,33,0.00,,,0.00,VWS V14.01,2013-04-26 04:37:00,
2013-04-26 00:38:00,70.9,40.4,30.24,WSW,248,1.6,4.3,33,0.00,,,0.00,VWS V14.01,2013-04-26 04:38:00,
2013-04-26 00:39:00,70.9,40.4,30.24,WNW,292,1.3,2.2,33,0.00,,,0.00,VWS V14.01,2013-04-26 04:39:00,
2013-04-26 00:40:00,70.9,40.4,30.24,WNW,292,1.3,1.3,33,0.00,,,0.00,VWS V14.01,2013-04-26 04:40:00,
2013-04-26 00:41:00,69.6,42.9,30.24,ENE,68,1.6,2.7,38,0.00,,,0.00,VWS V14.01,2013-04-26 04:41:00,
2013-04-26 00:42:00,70.9,41.1,30.24,NW,315,2.5,2.5,34,0.00,,,0.00,VWS V14.01,2013-04-26 04:42:00,
2013-04-26 00:43:00,70.9,41.1,30.24,WNW,292,1.6,3.1,34,0.00,,,0.00,VWS V14.01,2013-04-26 04:43:00,
2013-04-26 00:44:00,70.7,41.0,30.24,NNW,338,2.5,2.5,34,0.00,,,0.00,VWS V14.01,2013-04-26 04:44:00,
2013-04-26 00:45:00,70.7,40.2,30.24,WNW,292,1.6,2.5,33,0.00,,,0.00,VWS V14.01,2013-04-26 04:45:00,
2013-04-26 00:46:00,69.4,42.8,30.24,ENE,68,2.0,2.0,38,0.00,,,0.00,VWS V14.01,2013-04-26 04:46:00,
2013-04-26 00:47:00,70.7,41.0,30.24,WNW,292,2.5,3.4,34,0.00,,,0.00,VWS V14.01,2013-04-26 04:47:00,
2013-04-26 00:48:00,70.7,41.0,30.24,North,0,0.9,2.7,34,0.00,,,0.00,VWS V14.01,2013-04-26 04:48:00,
2013-04-26 00:49:00,70.7,41.0,30.24,NNW,338,0.0,1.3,34,0.00,,,0.00,VWS V14.01,2013-04-26 04:49:00,
2013-04-26 00:50:00,70.7,41.0,30.24,West,270,0.9,1.3,34,0.00,,,0.00,VWS V14.01,2013-04-26 04:50:00,
2013-04-26 00:51:00,69.4,43.4,30.24,ENE,68,2.7,3.8,39,0.00,,,0.00,VWS V14.01,2013-04-26 04:51:00,
2013-04-26 00:52:00,70.7,41.0,30.24,NNW,338,0.9,0.9,34,0.00,,,0.00,VWS V14.01,2013-04-26 04:52:00,
2013-04-26 00:53:00,70.7,41.0,30.24,WNW,292,0.0,0.9,34,0.00,,,0.00,VWS V14.01,2013-04-26 04:53:00,
2013-04-26 00:54:00,70.5,40.1,30.24,WNW,292,1.1,1.3,33,0.00,,,0.00,VWS V14.01,2013-04-26 04:54:00,
2013-04-26 00:55:00,70.5,40.8,30.24,WNW,292,2.0,2.5,34,0.00,,,0.00,VWS V14.01,2013-04-26 04:55:00,
2013-04-26 00:56:00,69.3,42.6,30.24,ENE,68,1.3,1.6,38,0.00,,,0.00,VWS V14.01,2013-04-26 04:56:00,
2013-04-26 00:57:00,70.3,39.9,30.24,North,0,2.2,2.2,33,0.00,,,0.00,VWS V14.01,2013-04-26 04:57:00,
2013-04-26 00:58:00,70.3,39.9,30.24,NNW,338,0.0,2.2,33,0.00,,,0.00,VWS V14.01,2013-04-26 04:58:00,
2013-04-26 00:59:00,70.3,40.7,30.21,NNW,338,0.9,1.6,34,0.00,,,0.00,VWS V14.01,2013-04-26 04:59:00,
2013-04-26 01:00:00,70.3,40.7,30.21,North,0,2.5,2.7,34,0.00,,,0.00,VWS V14.01,2013-04-26 05:00:00,
2013-04-26 01:01:00,69.3,43.3,30.24,East,90,3.4,3.6,39,0.00,,,0.00,VWS V14.01,2013-04-26 05:01:00,
2013-04-26 01:02:00,70.2,40.5,30.21,NNW,338,0.0,2.5,34,0.00,,,0.00,VWS V14.01,2013-04-26 05:02:00,
2013-04-26 01:03:00,70.2,40.5,30.21,NNE,22,0.9,2.0,34,0.00,,,0.00,VWS V14.01,2013-04-26 05:03:00,
2013-04-26 01:04:00,70.2,40.5,30.21,North,0,2.9,2.9,34,0.00,,,0.00,VWS V14.01,2013-04-26 05:04:00,
2013-04-26 01:05:00,70.2,40.5,30.21,West,270,2.9,2.9,34,0.00,,,0.00,VWS V14.01,2013-04-26 05:05:00,
2013-04-26 01:06:00,69.3,43.3,30.24,NW,315,0.0,0.0,39,0.00,,,0.00,VWS V14.01,2013-04-26 05:06:00,
2013-04-26 01:07:00,70.2,40.5,30.21,NNW,338,1.3,2.9,34,0.00,,,0.00,VWS V14.01,2013-04-26 05:07:00,
2013-04-26 01:08:00,70.2,40.5,30.21,North,0,2.0,2.0,34,0.00,,,0.00,VWS V14.01,2013-04-26 05:08:00,
2013-04-26 01:09:00,70.2,40.5,30.21,North,0,2.0,2.0,34,0.00,,,0.00,VWS V14.01,2013-04-26 05:09:00,
2013-04-26 01:10:00,70.0,40.3,30.21,North,0,0.0,2.0,34,0.00,,,0.00,VWS V14.01,2013-04-26 05:10:00,
2013-04-26 01:11:00,69.3,43.3,30.24,East,90,0.0,0.0,39,0.00,,,0.00,VWS V14.01,2013-04-26 05:11:00,
2013-04-26 01:12:00,70.0,40.3,30.21,NW,315,0.0,1.6,34,0.00,,,0.00,VWS V14.01,2013-04-26 05:12:00,
2013-04-26 01:13:00,69.8,40.2,30.21,NNW,338,1.3,2.0,34,0.00,,,0.00,VWS V14.01,2013-04-26 05:13:00,
2013-04-26 01:14:00,69.8,40.2,30.21,NNW,338,0.0,2.7,34,0.00,,,0.00,VWS V14.01,2013-04-26 05:14:00,
2013-04-26 01:15:00,69.8,40.2,30.21,NNW,338,0.0,0.0,34,0.00,,,0.00,VWS V14.01,2013-04-26 05:15:00,
2013-04-26 01:16:00,69.3,43.3,30.24,WNW,292,0.0,0.0,39,0.00,,,0.00,VWS V14.01,2013-04-26 05:16:00,
2013-04-26 01:17:00,69.8,40.2,30.21,West,270,0.0,2.2,34,0.00,,,0.00,VWS V14.01,2013-04-26 05:17:00,
2013-04-26 01:18:00,69.8,40.2,30.21,North,0,2.0,3.4,34,0.00,,,0.00,VWS V14.01,2013-04-26 05:18:00,
2013-04-26 01:19:00,69.8,40.2,30.21,NW,315,1.1,2.7,34,0.00,,,0.00,VWS V14.01,2013-04-26 05:19:00,
2013-04-26 01:20:00,69.6,40.8,30.21,NNW,338,0.0,1.1,35,0.00,,,0.00,VWS V14.01,2013-04-26 05:20:00,
2013-04-26 01:21:00,69.1,42.4,30.24,East,90,0.0,0.0,38,0.00,,,0.00,VWS V14.01,2013-04-26 05:21:00,
2013-04-26 01:22:00,69.6,40.8,30.21,NNW,338,2.7,2.7,35,0.00,,,0.00,VWS V14.01,2013-04-26 05:22:00,
2013-04-26 01:23:00,69.6,40.8,30.21,WNW,292,1.1,2.7,35,0.00,,,0.00,VWS V14.01,2013-04-26 05:23:00,
2013-04-26 01:24:00,69.6,40.8,30.21,NNW,338,2.2,2.2,35,0.00,,,0.00,VWS V14.01,2013-04-26 05:24:00,
2013-04-26 01:25:00,69.6,40.8,30.21,North,0,2.0,2.2,35,0.00,,,0.00,VWS V14.01,2013-04-26 05:25:00,
2013-04-26 01:26:00,68.9,43.0,30.21,NNW,338,0.0,0.0,39,0.00,,,0.00,VWS V14.01,2013-04-26 05:26:00,
2013-04-26 01:27:00,69.6,40.8,30.21,WNW,292,1.3,2.0,35,0.00,,,0.00,VWS V14.01,2013-04-26 05:27:00,
2013-04-26 01:28:00,69.6,40.8,30.21,WNW,292,0.0,1.3,35,0.00,,,0.00,VWS V14.01,2013-04-26 05:28:00,
2013-04-26 01:29:00,69.6,40.8,30.21,WNW,292,0.9,0.9,35,0.00,,,0.00,VWS V14.01,2013-04-26 05:29:00,
2013-04-26 01:30:00,69.6,40.8,30.21,NW,315,1.3,1.3,35,0.00,,,0.00,VWS V14.01,2013-04-26 05:30:00,
2013-04-26 01:31:00,69.6,40.8,30.21,NW,315,0.0,1.3,35,0.00,,,0.00,VWS V14.01,2013-04-26 05:31:00,
2013-04-26 01:32:00,69.1,43.8,30.21,East,90,1.3,1.3,40,0.00,,,0.00,VWS V14.01,2013-04-26 05:32:00,
2013-04-26 01:33:00,69.6,40.8,30.21,North,0,0.0,1.1,35,0.00,,,0.00,VWS V14.01,2013-04-26 05:33:00,
2013-04-26 01:34:00,69.4,40.6,30.21,North,0,1.6,1.6,35,0.00,,,0.00,VWS V14.01,2013-04-26 05:34:00,
2013-04-26 01:35:00,69.4,41.3,30.21,ENE,68,0.9,1.6,36,0.00,,,0.00,VWS V14.01,2013-04-26 05:35:00,
2013-04-26 01:36:00,69.4,41.3,30.21,ENE,68,2.7,2.7,36,0.00,,,0.00,VWS V14.01,2013-04-26 05:36:00,
2013-04-26 01:37:00,69.1,43.1,30.21,ENE,68,0.0,0.0,39,0.00,,,0.00,VWS V14.01,2013-04-26 05:37:00,
2013-04-26 01:38:00,69.6,42.9,30.21,ENE,68,6.7,6.7,38,0.00,,,0.00,VWS V14.01,2013-04-26 05:38:00,
2013-04-26 01:39:00,69.6,42.9,30.21,ESE,112,7.2,8.1,38,0.00,,,0.00,VWS V14.01,2013-04-26 05:39:00,
2013-04-26 01:40:00,69.6,42.9,30.21,ENE,68,6.5,7.2,38,0.00,,,0.00,VWS V14.01,2013-04-26 05:40:00,
2013-04-26 01:41:00,69.6,42.9,30.21,ENE,68,7.4,7.4,38,0.00,,,0.00,VWS V14.01,2013-04-26 05:41:00,
2013-04-26 01:42:00,68.9,43.6,30.21,NNE,22,0.0,0.0,40,0.00,,,0.00,VWS V14.01,2013-04-26 05:42:00,
2013-04-26 01:43:00,69.8,43.1,30.27,East,90,4.9,6.5,38,0.00,,,0.00,VWS V14.01,2013-04-26 05:43:00,
2013-04-26 01:44:00,69.8,43.1,30.27,East,90,3.6,5.4,38,0.00,,,0.00,VWS V14.01,2013-04-26 05:44:00,
2013-04-26 01:45:00,69.8,42.4,30.27,NNW,338,2.5,4.0,37,0.00,,,0.00,VWS V14.01,2013-04-26 05:45:00,
2013-04-26 01:46:00,69.8,42.4,30.27,ENE,68,2.9,2.9,37,0.00,,,0.00,VWS V14.01,2013-04-26 05:46:00,
2013-04-26 01:47:00,68.9,43.6,30.21,NNE,22,0.0,0.0,40,0.00,,,0.00,VWS V14.01,2013-04-26 05:47:00,
2013-04-26 01:48:00,69.8,42.4,30.27,ENE,68,4.9,7.2,37,0.00,,,0.00,VWS V14.01,2013-04-26 05:48:00,
2013-04-26 01:49:00,69.8,42.4,30.27,ENE,68,4.9,5.6,37,0.00,,,0.00,VWS V14.01,2013-04-26 05:49:00,
2013-04-26 01:51:00,69.8,43.1,30.27,East,90,6.3,6.3,38,0.00,,,0.00,VWS V14.01,2013-04-26 05:51:00,
2013-04-26 01:52:00,68.9,43.6,30.21,North,0,0.0,0.0,40,0.00,,,0.00,VWS V14.01,2013-04-26 05:52:00,
2013-04-26 01:53:00,69.8,42.4,30.27,ENE,68,3.6,3.8,37,0.00,,,0.00,VWS V14.01,2013-04-26 05:53:00,
2013-04-26 01:54:00,69.8,42.4,30.27,ENE,68,3.4,3.6,37,0.00,,,0.00,VWS V14.01,2013-04-26 05:54:00,
2013-04-26 01:55:00,69.8,42.4,30.27,ENE,68,4.3,5.4,37,0.00,,,0.00,VWS V14.01,2013-04-26 05:55:00,
2013-04-26 01:56:00,69.8,42.4,30.27,ENE,68,4.0,4.3,37,0.00,,,0.00,VWS V14.01,2013-04-26 05:56:00,
2013-04-26 01:57:00,68.9,43.6,30.21,NNW,338,0.0,0.0,40,0.00,,,0.00,VWS V14.01,2013-04-26 05:57:00,
2013-04-26 01:58:00,69.8,42.4,30.24,ENE,68,1.6,3.1,37,0.00,,,0.00,VWS V14.01,2013-04-26 05:58:00,
2013-04-26 01:59:00,69.8,42.4,30.24,NE,45,3.6,3.6,37,0.00,,,0.00,VWS V14.01,2013-04-26 05:59:00,
2013-04-26 02:00:00,69.8,42.4,30.24,ENE,68,2.9,3.8,37,0.00,,,0.00,VWS V14.01,2013-04-26 06:00:00,
2013-04-26 02:01:00,69.6,42.2,30.24,NW,315,0.0,2.9,37,0.00,,,0.00,VWS V14.01,2013-04-26 06:01:00,
2013-04-26 02:02:00,68.9,44.2,30.21,WNW,292,2.0,2.2,41,0.00,,,0.00,VWS V14.01,2013-04-26 06:02:00,
2013-04-26 02:03:00,69.6,42.2,30.24,ENE,68,3.4,3.4,37,0.00,,,0.00,VWS V14.01,2013-04-26 06:03:00,
2013-04-26 02:04:00,69.6,42.9,30.24,East,90,4.3,5.4,38,0.00,,,0.00,VWS V14.01,2013-04-26 06:04:00,
2013-04-26 02:05:00,69.6,42.9,30.24,ENE,68,3.1,4.3,38,0.00,,,0.00,VWS V14.01,2013-04-26 06:05:00,
2013-04-26 02:06:00,69.6,42.9,30.24,East,90,4.3,4.3,38,0.00,,,0.00,VWS V14.01,2013-04-26 06:06:00,
2013-04-26 02:07:00,68.9,44.9,30.21,NW,315,0.0,0.0,42,0.00,,,0.00,VWS V14.01,2013-04-26 06:07:00,
2013-04-26 02:08:00,69.6,42.9,30.24,NE,45,1.3,3.6,38,0.00,,,0.00,VWS V14.01,2013-04-26 06:08:00,
2013-04-26 02:09:00,69.6,42.9,30.24,NNE,22,3.1,3.6,38,0.00,,,0.00,VWS V14.01,2013-04-26 06:09:00,
2013-04-26 02:10:00,69.6,42.9,30.24,NNE,22,2.7,3.1,38,0.00,,,0.00,VWS V14.01,2013-04-26 06:10:00,
2013-04-26 02:11:00,69.6,42.9,30.24,NNE,22,2.2,2.7,38,0.00,,,0.00,VWS V14.01,2013-04-26 06:11:00,
2013-04-26 02:12:00,68.9,44.9,30.18,North,0,2.0,2.0,42,0.00,,,0.00,VWS V14.01,2013-04-26 06:12:00,
2013-04-26 02:13:00,69.6,42.9,30.24,ENE,68,3.6,3.6,38,0.00,,,0.00,VWS V14.01,2013-04-26 06:13:00,
2013-04-26 02:14:00,69.6,42.9,30.24,ENE,68,3.1,4.0,38,0.00,,,0.00,VWS V14.01,2013-04-26 06:14:00,
2013-04-26 02:15:00,69.6,42.9,30.24,ENE,68,2.7,4.7,38,0.00,,,0.00,VWS V14.01,2013-04-26 06:15:00,
2013-04-26 02:16:00,69.6,42.9,30.24,ENE,68,1.6,2.7,38,0.00,,,0.00,VWS V14.01,2013-04-26 06:16:00,
2013-04-26 02:17:00,69.1,45.7,30.18,North,0,2.7,2.7,43,0.00,,,0.00,VWS V14.01,2013-04-26 06:17:00,
2013-04-26 02:18:00,69.4,42.8,30.24,NNW,338,2.0,2.0,38,0.00,,,0.00,VWS V14.01,2013-04-26 06:18:00,
2013-04-26 02:19:00,69.4,42.8,30.24,NNW,338,1.3,2.0,38,0.00,,,0.00,VWS V14.01,2013-04-26 06:19:00,
2013-04-26 02:20:00,69.4,42.8,30.24,NNW,338,0.0,1.3,38,0.00,,,0.00,VWS V14.01,2013-04-26 06:20:00,
2013-04-26 02:21:00,69.4,42.8,30.24,ENE,68,2.9,2.9,38,0.00,,,0.00,VWS V14.01,2013-04-26 06:21:00,
2013-04-26 02:22:00,69.1,45.7,30.18,WNW,292,1.1,1.6,43,0.00,,,0.00,VWS V14.01,2013-04-26 06:22:00,
2013-04-26 02:23:00,69.4,43.4,30.24,ENE,68,2.9,4.0,39,0.00,,,0.00,VWS V14.01,2013-04-26 06:23:00,
2013-04-26 02:24:00,69.4,43.4,30.24,ENE,68,3.8,3.8,39,0.00,,,0.00,VWS V14.01,2013-04-26 06:24:00,
2013-04-26 02:25:00,69.4,43.4,30.24,ENE,68,3.8,4.0,39,0.00,,,0.00,VWS V14.01,2013-04-26 06:25:00,
2013-04-26 02:26:00,69.4,43.4,30.24,ENE,68,2.7,3.8,39,0.00,,,0.00,VWS V14.01,2013-04-26 06:26:00,
2013-04-26 02:27:00,69.1,45.7,30.21,NNW,338,1.6,1.6,43,0.00,,,0.00,VWS V14.01,2013-04-26 06:27:00,
2013-04-26 02:28:00,69.4,42.8,30.24,NNW,338,0.0,0.9,38,0.00,,,0.00,VWS V14.01,2013-04-26 06:28:00,
2013-04-26 02:29:00,69.4,42.8,30.24,North,0,1.1,1.6,38,0.00,,,0.00,VWS V14.01,2013-04-26 06:29:00,
2013-04-26 02:30:00,69.4,42.8,30.24,NNE,22,0.9,1.1,38,0.00,,,0.00,VWS V14.01,2013-04-26 06:30:00,
2013-04-26 02:31:00,69.3,42.6,30.24,ENE,68,1.3,1.6,38,0.00,,,0.00,VWS V14.01,2013-04-26 06:31:00,
2013-04-26 02:32:00,69.1,45.7,30.21,WNW,292,0.9,0.9,43,0.00,,,0.00,VWS V14.01,2013-04-26 06:32:00,
2013-04-26 02:33:00,69.3,42.6,30.24,ENE,68,2.5,2.5,38,0.00,,,0.00,VWS V14.01,2013-04-26 06:33:00,
2013-04-26 02:34:00,69.3,43.3,30.24,ENE,68,3.6,3.6,39,0.00,,,0.00,VWS V14.01,2013-04-26 06:34:00,
2013-04-26 02:36:00,69.3,43.3,30.24,East,90,3.4,3.6,39,0.00,,,0.00,VWS V14.01,2013-04-26 06:36:00,
2013-04-26 02:37:00,69.3,45.8,30.21,NNW,338,3.1,3.1,43,0.00,,,0.00,VWS V14.01,2013-04-26 06:37:00,
2013-04-26 02:38:00,69.3,43.3,30.24,North,0,1.3,1.6,39,0.00,,,0.00,VWS V14.01,2013-04-26 06:38:00,
2013-04-26 02:39:00,69.3,43.3,30.24,WNW,292,0.0,1.3,39,0.00,,,0.00,VWS V14.01,2013-04-26 06:39:00,
2013-04-26 02:40:00,69.3,42.6,30.24,WNW,292,0.0,0.0,38,0.00,,,0.00,VWS V14.01,2013-04-26 06:40:00,
2013-04-26 02:41:00,69.3,43.3,30.24,NNW,338,0.0,0.0,39,0.00,,,0.00,VWS V14.01,2013-04-26 06:41:00,
2013-04-26 02:42:00,69.4,46.0,30.21,North,0,0.9,2.9,43,0.00,,,0.00,VWS V14.01,2013-04-26 06:42:00,
2013-04-26 02:43:00,69.3,43.3,30.24,NNE,22,0.0,0.0,39,0.00,,,0.00,VWS V14.01,2013-04-26 06:43:00,
2013-04-26 02:44:00,69.3,43.3,30.24,East,90,0.0,0.0,39,0.00,,,0.00,VWS V14.01,2013-04-26 06:44:00,
2013-04-26 02:45:00,69.3,43.3,30.24,East,90,0.0,0.0,39,0.00,,,0.00,VWS V14.01,2013-04-26 06:45:00,
2013-04-26 02:46:00,69.3,43.3,30.24,East,90,0.0,0.0,39,0.00,,,0.00,VWS V14.01,2013-04-26 06:46:00,
2013-04-26 02:47:00,69.6,46.2,30.21,NW,315,1.6,2.5,43,0.00,,,0.00,VWS V14.01,2013-04-26 06:47:00,
2013-04-26 02:48:00,69.3,43.3,30.24,NE,45,0.0,0.0,39,0.00,,,0.00,VWS V14.01,2013-04-26 06:48:00,
2013-04-26 02:49:00,69.3,43.3,30.24,WNW,292,0.0,0.0,39,0.00,,,0.00,VWS V14.01,2013-04-26 06:49:00,
2013-04-26 02:50:00,69.3,43.3,30.24,WNW,292,0.0,0.0,39,0.00,,,0.00,VWS V14.01,2013-04-26 06:50:00,
2013-04-26 02:51:00,69.3,43.3,30.24,WNW,292,0.0,0.0,39,0.00,,,0.00,VWS V14.01,2013-04-26 06:51:00,
2013-04-26 02:52:00,69.8,45.7,30.21,NNE,22,1.6,2.0,42,0.00,,,0.00,VWS V14.01,2013-04-26 06:52:00,
2013-04-26 02:53:00,69.1,42.4,30.24,WNW,292,0.0,0.0,38,0.00,,,0.00,VWS V14.01,2013-04-26 06:53:00,
2013-04-26 02:54:00,69.1,42.4,30.24,WNW,292,0.0,0.0,38,0.00,,,0.00,VWS V14.01,2013-04-26 06:54:00,
2013-04-26 02:55:00,69.1,42.4,30.24,East,90,0.0,0.0,38,0.00,,,0.00,VWS V14.01,2013-04-26 06:55:00,
2013-04-26 02:56:00,68.9,43.0,30.24,East,90,0.0,0.0,39,0.00,,,0.00,VWS V14.01,2013-04-26 06:56:00,
2013-04-26 02:57:00,70.0,45.2,30.21,NNW,338,1.1,1.6,41,0.00,,,0.00,VWS V14.01,2013-04-26 06:57:00,
2013-04-26 02:58:00,68.9,42.3,30.21,East,90,0.0,0.0,38,0.00,,,0.00,VWS V14.01,2013-04-26 06:58:00,
2013-04-26 02:59:00,68.9,42.3,30.21,ENE,68,0.0,0.0,38,0.00,,,0.00,VWS V14.01,2013-04-26 06:59:00,
2013-04-26 03:00:00,68.9,42.3,30.21,NNW,338,0.0,0.0,38,0.00,,,0.00,VWS V14.01,2013-04-26 07:00:00,
2013-04-26 03:01:00,68.9,43.0,30.21,WNW,292,0.0,0.9,39,0.00,,,0.00,VWS V14.01,2013-04-26 07:01:00,
2013-04-26 03:02:00,70.0,44.6,30.21,ENE,68,2.7,3.4,40,0.00,,,0.00,VWS V14.01,2013-04-26 07:02:00,
2013-04-26 03:03:00,68.9,43.0,30.21,NNW,338,1.6,1.6,39,0.00,,,0.00,VWS V14.01,2013-04-26 07:03:00,
2013-04-26 03:04:00,68.9,43.0,30.21,NNW,338,0.0,1.6,39,0.00,,,0.00,VWS V14.01,2013-04-26 07:04:00,
2013-04-26 03:05:00,69.1,43.8,30.21,ENE,68,0.0,0.0,40,0.00,,,0.00,VWS V14.01,2013-04-26 07:05:00,
2013-04-26 03:06:00,69.1,43.8,30.21,East,90,1.3,2.2,40,0.00,,,0.00,VWS V14.01,2013-04-26 07:06:00,
2013-04-26 03:07:00,70.2,44.1,30.21,ENE,68,2.2,2.7,39,0.00,,,0.00,VWS V14.01,2013-04-26 07:07:00,
2013-04-26 03:08:00,69.1,43.1,30.21,ENE,68,2.7,2.7,39,0.00,,,0.00,VWS V14.01,2013-04-26 07:08:00,
2013-04-26 03:09:00,69.1,43.1,30.21,East,90,1.6,2.7,39,0.00,,,0.00,VWS V14.01,2013-04-26 07:09:00,
2013-04-26 03:10:00,69.1,43.1,30.21,ENE,68,0.0,1.6,39,0.00,,,0.00,VWS V14.01,2013-04-26 07:10:00,
2013-04-26 03:12:00,70.2,44.1,30.21,ENE,68,3.1,3.1,39,0.00,,,0.00,VWS V14.01,2013-04-26 07:12:00,
2013-04-26 03:13:00,68.9,43.0,30.21,NNE,22,0.0,0.0,39,0.00,,,0.00,VWS V14.01,2013-04-26 07:13:00,
2013-04-26 03:14:00,68.9,43.0,30.21,NNE,22,0.0,0.0,39,0.00,,,0.00,VWS V14.01,2013-04-26 07:14:00,
2013-04-26 03:15:00,68.9,43.6,30.21,NNE,22,0.0,0.0,40,0.00,,,0.00,VWS V14.01,2013-04-26 07:15:00,
2013-04-26 03:16:00,68.9,43.6,30.21,NNE,22,0.0,0.0,40,0.00,,,0.00,VWS V14.01,2013-04-26 07:16:00,
2013-04-26 03:17:00,70.2,43.4,30.21,NNE,22,1.3,1.3,38,0.00,,,0.00,VWS V14.01,2013-04-26 07:17:00,
2013-04-26 03:18:00,68.9,43.6,30.21,NNE,22,0.0,0.0,40,0.00,,,0.00,VWS V14.01,2013-04-26 07:18:00,
2013-04-26 03:19:00,68.9,43.6,30.21,NNE,22,0.0,0.0,40,0.00,,,0.00,VWS V14.01,2013-04-26 07:19:00,
2013-04-26 03:20:00,68.9,43.6,30.21,NNE,22,0.0,0.0,40,0.00,,,0.00,VWS V14.01,2013-04-26 07:20:00,
2013-04-26 03:21:00,68.9,43.6,30.21,NNE,22,0.0,0.0,40,0.00,,,0.00,VWS V14.01,2013-04-26 07:21:00,
2013-04-26 03:22:00,70.2,42.7,30.21,NNE,22,1.6,2.5,37,0.00,,,0.00,VWS V14.01,2013-04-26 07:22:00,
2013-04-26 03:23:00,68.9,43.6,30.21,NW,315,0.0,0.0,40,0.00,,,0.00,VWS V14.01,2013-04-26 07:23:00,
2013-04-26 03:24:00,68.9,43.6,30.21,NNW,338,0.0,0.0,40,0.00,,,0.00,VWS V14.01,2013-04-26 07:24:00,
2013-04-26 03:26:00,68.9,43.6,30.21,North,0,0.0,0.0,40,0.00,,,0.00,VWS V14.01,2013-04-26 07:26:00,
2013-04-26 03:27:00,70.0,42.5,30.21,NNE,22,1.1,1.6,37,0.00,,,0.00,VWS V14.01,2013-04-26 07:27:00,
2013-04-26 03:28:00,68.9,43.6,30.21,NNW,338,0.0,0.0,40,0.00,,,0.00,VWS V14.01,2013-04-26 07:28:00,
2013-04-26 03:29:00,68.9,43.6,30.21,NNW,338,0.0,0.0,40,0.00,,,0.00,VWS V14.01,2013-04-26 07:29:00,
2013-04-26 03:30:00,68.9,43.6,30.21,NNW,338,0.0,0.0,40,0.00,,,0.00,VWS V14.01,2013-04-26 07:30:00,
2013-04-26 03:31:00,68.9,43.6,30.21,WNW,292,0.0,0.0,40,0.00,,,0.00,VWS V14.01,2013-04-26 07:31:00,
2013-04-26 03:32:00,69.6,42.2,30.21,NNE,22,2.2,2.2,37,0.00,,,0.00,VWS V14.01,2013-04-26 07:32:00,
2013-04-26 03:33:00,68.7,44.1,30.21,WNW,292,0.0,0.0,41,0.00,,,0.00,VWS V14.01,2013-04-26 07:33:00,
2013-04-26 03:34:00,68.7,43.5,30.21,NW,315,2.0,2.0,40,0.00,,,0.00,VWS V14.01,2013-04-26 07:34:00,
2013-04-26 03:35:00,68.9,44.3,30.21,NW,315,2.2,2.2,41,0.00,,,0.00,VWS V14.01,2013-04-26 07:35:00,
2013-04-26 03:36:00,68.9,44.3,30.21,WNW,292,2.0,2.2,41,0.00,,,0.00,VWS V14.01,2013-04-26 07:36:00,
2013-04-26 03:37:00,69.6,42.2,30.21,ENE,68,2.5,2.9,37,0.00,,,0.00,VWS V14.01,2013-04-26 07:37:00,
2013-04-26 03:38:00,68.9,44.9,30.21,WNW,292,0.0,0.9,42,0.00,,,0.00,VWS V14.01,2013-04-26 07:38:00,
2013-04-26 03:39:00,69.1,45.0,30.21,WNW,292,0.0,0.0,42,0.00,,,0.00,VWS V14.01,2013-04-26 07:39:00,
2013-04-26 03:40:00,69.1,45.0,30.21,WNW,292,0.0,0.0,42,0.00,,,0.00,VWS V14.01,2013-04-26 07:40:00,
2013-04-26 03:41:00,68.9,44.9,30.21,NW,315,0.0,0.0,42,0.00,,,0.00,VWS V14.01,2013-04-26 07:41:00,
2013-04-26 03:42:00,69.4,42.8,30.21,ENE,68,2.7,2.7,38,0.00,,,0.00,VWS V14.01,2013-04-26 07:42:00,
2013-04-26 03:43:00,68.9,44.9,30.18,NW,315,0.0,0.0,42,0.00,,,0.00,VWS V14.01,2013-04-26 07:43:00,
2013-04-26 03:44:00,68.9,44.9,30.18,NW,315,0.0,0.0,42,0.00,,,0.00,VWS V14.01,2013-04-26 07:44:00,
2013-04-26 03:45:00,68.9,44.9,30.18,NW,315,0.0,0.0,42,0.00,,,0.00,VWS V14.01,2013-04-26 07:45:00,
2013-04-26 03:46:00,68.9,44.9,30.18,WNW,292,0.0,0.9,42,0.00,,,0.00,VWS V14.01,2013-04-26 07:46:00,
2013-04-26 03:47:00,69.4,42.8,30.21,ENE,68,2.9,3.4,38,0.00,,,0.00,VWS V14.01,2013-04-26 07:47:00,
2013-04-26 03:48:00,68.9,44.9,30.18,NNW,338,1.3,1.3,42,0.00,,,0.00,VWS V14.01,2013-04-26 07:48:00,
2013-04-26 03:49:00,68.9,44.9,30.18,WNW,292,2.5,2.5,42,0.00,,,0.00,VWS V14.01,2013-04-26 07:49:00,
2013-04-26 03:50:00,68.9,44.9,30.18,WNW,292,2.5,2.5,42,0.00,,,0.00,VWS V14.01,2013-04-26 07:50:00,
2013-04-26 03:51:00,69.1,45.0,30.18,NW,315,2.5,2.9,42,0.00,,,0.00,VWS V14.01,2013-04-26 07:51:00,
2013-04-26 03:52:00,69.3,42.6,30.21,ENE,68,1.1,1.1,38,0.00,,,0.00,VWS V14.01,2013-04-26 07:52:00,
2013-04-26 03:53:00,69.1,45.7,30.18,WNW,292,2.5,2.7,43,0.00,,,0.00,VWS V14.01,2013-04-26 07:53:00,
2013-04-26 03:54:00,69.1,45.7,30.18,WNW,292,1.3,3.1,43,0.00,,,0.00,VWS V14.01,2013-04-26 07:54:00,
2013-04-26 03:55:00,69.1,45.7,30.18,North,0,2.7,2.7,43,0.00,,,0.00,VWS V14.01,2013-04-26 07:55:00,
2013-04-26 03:56:00,69.1,45.7,30.18,NNW,338,1.6,2.7,43,0.00,,,0.00,VWS V14.01,2013-04-26 07:56:00,
2013-04-26 03:57:00,69.1,43.1,30.21,NE,45,1.1,2.7,39,0.00,,,0.00,VWS V14.01,2013-04-26 07:57:00,
2013-04-26 03:58:00,69.1,45.7,30.21,West,270,0.0,2.0,43,0.00,,,0.00,VWS V14.01,2013-04-26 07:58:00,
2013-04-26 03:59:00,69.1,45.7,30.21,NW,315,0.0,0.0,43,0.00,,,0.00,VWS V14.01,2013-04-26 07:59:00,
2013-04-26 04:00:00,69.1,45.7,30.21,WNW,292,2.5,2.5,43,0.00,,,0.00,VWS V14.01,2013-04-26 08:00:00,
2013-04-26 04:01:00,69.1,45.7,30.21,WNW,292,1.1,2.5,43,0.00,,,0.00,VWS V14.01,2013-04-26 08:01:00,
2013-04-26 04:02:00,68.9,42.3,30.21,ENE,68,0.0,0.0,38,0.00,,,0.00,VWS V14.01,2013-04-26 08:02:00,
2013-04-26 04:03:00,69.1,45.7,30.21,WNW,292,1.6,2.2,43,0.00,,,0.00,VWS V14.01,2013-04-26 08:03:00,
2013-04-26 04:04:00,69.1,45.7,30.21,WNW,292,0.0,2.2,43,0.00,,,0.00,VWS V14.01,2013-04-26 08:04:00,
2013-04-26 04:05:00,69.1,45.7,30.21,WSW,248,0.0,0.0,43,0.00,,,0.00,VWS V14.01,2013-04-26 08:05:00,
2013-04-26 04:06:00,69.1,45.7,30.21,WNW,292,0.9,0.9,43,0.00,,,0.00,VWS V14.01,2013-04-26 08:06:00,
2013-04-26 04:07:00,68.7,42.8,30.21,East,90,0.0,0.0,39,0.00,,,0.00,VWS V14.01,2013-04-26 08:07:00,
2013-04-26 04:08:00,69.3,45.8,30.21,NNW,338,1.6,2.9,43,0.00,,,0.00,VWS V14.01,2013-04-26 08:08:00,
2013-04-26 04:09:00,69.3,45.8,30.21,West,270,0.0,2.7,43,0.00,,,0.00,VWS V14.01,2013-04-26 08:09:00,
2013-04-26 04:10:00,69.3,45.8,30.21,West,270,0.0,0.0,43,0.00,,,0.00,VWS V14.01,2013-04-26 08:10:00,
2013-04-26 04:11:00,69.3,45.8,30.21,WNW,292,0.0,2.5,43,0.00,,,0.00,VWS V14.01,2013-04-26 08:11:00,
2013-04-26 04:12:00,68.5,42.6,30.21,NNW,338,0.0,0.0,39,0.00,,,0.00,VWS V14.01,2013-04-26 08:12:00,
2013-04-26 04:13:00,69.3,45.8,30.21,West,270,2.5,2.5,43,0.00,,,0.00,VWS V14.01,2013-04-26 08:13:00,
2013-04-26 04:14:00,69.3,45.8,30.21,WSW,248,1.6,2.5,43,0.00,,,0.00,VWS V14.01,2013-04-26 08:14:00,
2013-04-26 04:15:00,69.4,46.0,30.21,West,270,2.2,2.2,43,0.00,,,0.00,VWS V14.01,2013-04-26 08:15:00,
2013-04-26 04:17:00,68.4,42.5,30.21,ESE,112,0.0,0.0,39,0.00,,,0.00,VWS V14.01,2013-04-26 08:17:00,
2013-04-26 04:18:00,69.4,46.0,30.21,West,270,1.3,1.3,43,0.00,,,0.00,VWS V14.01,2013-04-26 08:18:00,
2013-04-26 04:19:00,69.4,46.0,30.21,West,270,1.3,1.3,43,0.00,,,0.00,VWS V14.01,2013-04-26 08:19:00,
2013-04-26 04:20:00,69.6,46.2,30.21,North,0,2.5,2.5,43,0.00,,,0.00,VWS V14.01,2013-04-26 08:20:00,
2013-04-26 04:21:00,69.6,46.2,30.21,North,0,2.5,2.5,43,0.00,,,0.00,VWS V14.01,2013-04-26 08:21:00,
2013-04-26 04:22:00,68.4,42.5,30.21,ESE,112,0.0,0.0,39,0.00,,,0.00,VWS V14.01,2013-04-26 08:22:00,
2013-04-26 04:23:00,69.6,46.2,30.21,NW,315,2.7,2.7,43,0.00,,,0.00,VWS V14.01,2013-04-26 08:23:00,
2013-04-26 04:24:00,69.6,45.5,30.21,NNW,338,0.0,2.7,42,0.00,,,0.00,VWS V14.01,2013-04-26 08:24:00,
2013-04-26 04:25:00,69.8,45.7,30.21,NNW,338,2.0,2.7,42,0.00,,,0.00,VWS V14.01,2013-04-26 08:25:00,
2013-04-26 04:26:00,69.8,45.7,30.21,NNE,22,1.6,2.0,42,0.00,,,0.00,VWS V14.01,2013-04-26 08:26:00,
2013-04-26 04:27:00,68.0,42.8,30.18,ESE,112,0.0,0.0,40,0.00,,,0.00,VWS V14.01,2013-04-26 08:27:00,
2013-04-26 04:28:00,69.8,45.7,30.21,NNW,338,2.0,2.0,42,0.00,,,0.00,VWS V14.01,2013-04-26 08:28:00,
2013-04-26 04:29:00,69.8,45.7,30.21,NE,45,1.1,2.0,42,0.00,,,0.00,VWS V14.01,2013-04-26 08:29:00,
2013-04-26 04:30:00,69.8,45.7,30.21,NNE,22,1.6,1.6,42,0.00,,,0.00,VWS V14.01,2013-04-26 08:30:00,
2013-04-26 04:31:00,70.0,45.2,30.21,NNW,338,0.0,1.6,41,0.00,,,0.00,VWS V14.01,2013-04-26 08:31:00,
2013-04-26 04:32:00,67.8,43.3,30.18,ESE,112,0.0,0.0,41,0.00,,,0.00,VWS V14.01,2013-04-26 08:32:00,
2013-04-26 04:33:00,70.0,45.2,30.21,NE,45,2.0,2.0,41,0.00,,,0.00,VWS V14.01,2013-04-26 08:33:00,
2013-04-26 04:34:00,70.0,45.2,30.21,ENE,68,2.9,2.9,41,0.00,,,0.00,VWS V14.01,2013-04-26 08:34:00,
2013-04-26 04:35:00,70.0,45.2,30.21,ENE,68,3.4,3.4,41,0.00,,,0.00,VWS V14.01,2013-04-26 08:35:00,
2013-04-26 04:37:00,67.6,43.8,30.18,ESE,112,0.0,0.0,42,0.00,,,0.00,VWS V14.01,2013-04-26 08:37:00,
2013-04-26 04:38:00,70.0,44.6,30.21,ENE,68,2.5,2.9,40,0.00,,,0.00,VWS V14.01,2013-04-26 08:38:00,
2013-04-26 04:39:00,70.2,44.7,30.21,ENE,68,1.3,2.5,40,0.00,,,0.00,VWS V14.01,2013-04-26 08:39:00,
2013-04-26 04:40:00,70.2,44.1,30.21,ENE,68,2.7,2.9,39,0.00,,,0.00,VWS V14.01,2013-04-26 08:40:00,
2013-04-26 04:41:00,70.2,44.1,30.21,ENE,68,2.7,2.7,39,0.00,,,0.00,VWS V14.01,2013-04-26 08:41:00,
2013-04-26 04:42:00,67.5,43.0,30.18,ESE,112,0.0,0.0,41,0.00,,,0.00,VWS V14.01,2013-04-26 08:42:00,
2013-04-26 04:43:00,70.2,44.1,30.21,ENE,68,1.3,2.2,39,0.00,,,0.00,VWS V14.01,2013-04-26 08:43:00,
2013-04-26 04:44:00,70.2,44.1,30.21,ENE,68,2.7,2.7,39,0.00,,,0.00,VWS V14.01,2013-04-26 08:44:00,
2013-04-26 04:45:00,70.2,44.1,30.21,ENE,68,2.7,3.4,39,0.00,,,0.00,VWS V14.01,2013-04-26 08:45:00,
2013-04-26 04:46:00,70.2,44.1,30.21,ENE,68,3.1,3.1,39,0.00,,,0.00,VWS V14.01,2013-04-26 08:46:00,
2013-04-26 04:47:00,67.5,43.6,30.18,ESE,112,0.0,0.0,42,0.00,,,0.00,VWS V14.01,2013-04-26 08:47:00,
2013-04-26 04:48:00,70.2,43.4,30.21,ENE,68,2.7,2.7,38,0.00,,,0.00,VWS V14.01,2013-04-26 08:48:00,
2013-04-26 04:49:00,70.2,43.4,30.21,NE,45,1.3,2.7,38,0.00,,,0.00,VWS V14.01,2013-04-26 08:49:00,
2013-04-26 04:50:00,70.2,43.4,30.21,NNE,22,1.6,2.0,38,0.00,,,0.00,VWS V14.01,2013-04-26 08:50:00,
2013-04-26 04:51:00,70.2,43.4,30.21,NNE,22,0.0,1.6,38,0.00,,,0.00,VWS V14.01,2013-04-26 08:51:00,
2013-04-26 04:52:00,67.5,43.6,30.18,ESE,112,0.0,0.0,42,0.00,,,0.00,VWS V14.01,2013-04-26 08:52:00,
2013-04-26 04:54:00,70.2,42.7,30.21,NNE,22,2.5,2.5,37,0.00,,,0.00,VWS V14.01,2013-04-26 08:54:00,
2013-04-26 04:55:00,70.2,42.7,30.21,NNE,22,2.5,2.5,37,0.00,,,0.00,VWS V14.01,2013-04-26 08:55:00,
2013-04-26 04:56:00,70.2,42.7,30.21,NNE,22,1.6,2.5,37,0.00,,,0.00,VWS V14.01,2013-04-26 08:56:00,
2013-04-26 04:57:00,70.2,42.7,30.21,NNE,22,1.1,1.6,37,0.00,,,0.00,VWS V14.01,2013-04-26 08:57:00,
2013-04-26 04:58:00,67.3,43.4,30.18,ESE,112,0.0,0.0,42,0.00,,,0.00,VWS V14.01,2013-04-26 08:58:00,
2013-04-26 04:59:00,70.0,42.5,30.21,NNE,22,1.3,1.3,37,0.00,,,0.00,VWS V14.01,2013-04-26 08:59:00,
2013-04-26 05:00:00,70.0,42.5,30.21,NNE,22,1.3,1.6,37,0.00,,,0.00,VWS V14.01,2013-04-26 09:00:00,
2013-04-26 05:01:00,70.0,42.5,30.21,NNE,22,0.9,2.2,37,0.00,,,0.00,VWS V14.01,2013-04-26 09:01:00,
2013-04-26 05:02:00,70.0,42.5,30.21,NNE,22,1.1,1.6,37,0.00,,,0.00,VWS V14.01,2013-04-26 09:02:00,
2013-04-26 05:03:00,67.3,44.0,30.18,WNW,292,0.0,0.0,43,0.00,,,0.00,VWS V14.01,2013-04-26 09:03:00,
2013-04-26 05:04:00,69.8,42.4,30.21,North,0,2.5,2.9,37,0.00,,,0.00,VWS V14.01,2013-04-26 09:04:00,
2013-04-26 05:05:00,69.8,42.4,30.21,NNE,22,1.6,2.7,37,0.00,,,0.00,VWS V14.01,2013-04-26 09:05:00,
2013-04-26 05:06:00,69.8,42.4,30.21,NNE,22,2.0,2.0,37,0.00,,,0.00,VWS V14.01,2013-04-26 09:06:00,
2013-04-26 05:07:00,69.6,42.2,30.21,NNE,22,1.3,2.2,37,0.00,,,0.00,VWS V14.01,2013-04-26 09:07:00,
2013-04-26 05:08:00,67.1,43.9,30.18,NNW,338,0.0,0.0,43,0.00,,,0.00,VWS V14.01,2013-04-26 09:08:00,
2013-04-26 05:09:00,69.6,42.2,30.21,NE,45,2.0,2.0,37,0.00,,,0.00,VWS V14.01,2013-04-26 09:09:00,
2013-04-26 05:10:00,69.6,42.2,30.21,ENE,68,2.5,2.7,37,0.00,,,0.00,VWS V14.01,2013-04-26 09:10:00,
2013-04-26 05:12:00,69.6,42.2,30.21,ENE,68,3.4,3.4,37,0.00,,,0.00,VWS V14.01,2013-04-26 09:12:00,
2013-04-26 05:13:00,67.1,44.5,30.18,NNW,338,0.0,0.0,44,0.00,,,0.00,VWS V14.01,2013-04-26 09:13:00,
2013-04-26 05:14:00,69.4,42.8,30.21,ENE,68,2.5,3.1,38,0.00,,,0.00,VWS V14.01,2013-04-26 09:14:00,
2013-04-26 05:15:00,69.4,42.8,30.21,NNE,22,2.9,3.4,38,0.00,,,0.00,VWS V14.01,2013-04-26 09:15:00,
2013-04-26 05:16:00,69.4,42.8,30.21,NE,45,2.5,2.9,38,0.00,,,0.00,VWS V14.01,2013-04-26 09:16:00,
2013-04-26 05:17:00,69.4,42.8,30.21,ENE,68,2.9,2.9,38,0.00,,,0.00,VWS V14.01,2013-04-26 09:17:00,
2013-04-26 05:18:00,67.1,44.5,30.18,NNW,338,0.0,0.0,44,0.00,,,0.00,VWS V14.01,2013-04-26 09:18:00,
2013-04-26 05:19:00,69.4,42.8,30.21,East,90,2.0,2.9,38,0.00,,,0.00,VWS V14.01,2013-04-26 09:19:00,
2013-04-26 05:20:00,69.4,42.8,30.21,NE,45,2.5,2.7,38,0.00,,,0.00,VWS V14.01,2013-04-26 09:20:00,
2013-04-26 05:21:00,69.4,42.8,30.21,ENE,68,3.4,3.4,38,0.00,,,0.00,VWS V14.01,2013-04-26 09:21:00,
2013-04-26 05:22:00,69.4,42.8,30.21,ENE,68,2.9,3.4,38,0.00,,,0.00,VWS V14.01,2013-04-26 09:22:00,
2013-04-26 05:23:00,66.9,44.3,30.18,NNW,338,0.0,0.0,44,0.00,,,0.00,VWS V14.01,2013-04-26 09:23:00,
2013-04-26 05:24:00,69.3,42.6,30.21,North,0,1.1,1.1,38,0.00,,,0.00,VWS V14.01,2013-04-26 09:24:00,
2013-04-26 05:25:00,69.3,42.6,30.21,NNE,22,1.6,2.5,38,0.00,,,0.00,VWS V14.01,2013-04-26 09:25:00,
2013-04-26 05:26:00,69.3,42.6,30.21,NNE,22,0.0,1.6,38,0.00,,,0.00,VWS V14.01,2013-04-26 09:26:00,
2013-04-26 05:27:00,69.3,42.6,30.21,NE,45,2.0,2.0,38,0.00,,,0.00,VWS V14.01,2013-04-26 09:27:00,
2013-04-26 05:28:00,66.9,44.3,30.18,NNW,338,0.0,0.0,44,0.00,,,0.00,VWS V14.01,2013-04-26 09:28:00,
2013-04-26 05:29:00,69.1,42.4,30.21,ENE,68,1.6,1.6,38,0.00,,,0.00,VWS V14.01,2013-04-26 09:29:00,
2013-04-26 05:31:00,69.1,43.1,30.21,NNE,22,1.6,1.6,39,0.00,,,0.00,VWS V14.01,2013-04-26 09:31:00,
2013-04-26 05:32:00,69.1,43.1,30.21,NE,45,0.0,2.7,39,0.00,,,0.00,VWS V14.01,2013-04-26 09:32:00,
2013-04-26 05:33:00,66.7,44.2,30.18,NNW,338,0.0,0.0,44,0.00,,,0.00,VWS V14.01,2013-04-26 09:33:00,
2013-04-26 05:34:00,68.9,43.0,30.21,NNE,22,0.0,1.1,39,0.00,,,0.00,VWS V14.01,2013-04-26 09:34:00,
2013-04-26 05:35:00,68.9,43.0,30.21,NNE,22,0.0,0.0,39,0.00,,,0.00,VWS V14.01,2013-04-26 09:35:00,
2013-04-26 05:36:00,68.9,43.0,30.21,ENE,68,0.0,0.0,39,0.00,,,0.00,VWS V14.01,2013-04-26 09:36:00,
2013-04-26 05:37:00,68.9,42.3,30.21,ENE,68,0.0,0.0,38,0.00,,,0.00,VWS V14.01,2013-04-26 09:37:00,
2013-04-26 05:38:00,66.7,44.8,30.18,NNW,338,0.0,0.0,45,0.00,,,0.00,VWS V14.01,2013-04-26 09:38:00,
2013-04-26 05:39:00,68.7,42.8,30.21,ENE,68,1.1,2.0,39,0.00,,,0.00,VWS V14.01,2013-04-26 09:39:00,
2013-04-26 05:40:00,68.7,42.8,30.21,East,90,0.0,1.1,39,0.00,,,0.00,VWS V14.01,2013-04-26 09:40:00,
2013-04-26 05:41:00,68.7,42.8,30.21,East,90,0.0,0.0,39,0.00,,,0.00,VWS V14.01,2013-04-26 09:41:00,
2013-04-26 05:42:00,68.7,42.8,30.21,East,90,0.0,0.0,39,0.00,,,0.00,VWS V14.01,2013-04-26 09:42:00,
2013-04-26 05:43:00,66.6,44.6,30.18,NNW,338,0.0,0.0,45,0.00,,,0.00,VWS V14.01,2013-04-26 09:43:00,
2013-04-26 05:44:00,68.7,42.8,30.21,NNW,338,0.0,0.0,39,0.00,,,0.00,VWS V14.01,2013-04-26 09:44:00,
2013-04-26 05:45:00,68.5,42.6,30.21,NNW,338,0.0,0.0,39,0.00,,,0.00,VWS V14.01,2013-04-26 09:45:00,
2013-04-26 05:46:00,68.5,42.6,30.21,NNW,338,0.0,0.0,39,0.00,,,0.00,VWS V14.01,2013-04-26 09:46:00,
2013-04-26 05:47:00,68.5,42.6,30.21,NNW,338,0.0,0.0,39,0.00,,,0.00,VWS V14.01,2013-04-26 09:47:00,
2013-04-26 05:48:00,66.6,44.6,30.18,NNW,338,0.0,0.0,45,0.00,,,0.00,VWS V14.01,2013-04-26 09:48:00,
2013-04-26 05:49:00,68.4,42.5,30.21,NNW,338,0.0,0.0,39,0.00,,,0.00,VWS V14.01,2013-04-26 09:49:00,
2013-04-26 05:50:00,68.4,42.5,30.21,NNW,338,0.0,0.0,39,0.00,,,0.00,VWS V14.01,2013-04-26 09:50:00,
2013-04-26 05:51:00,68.4,42.5,30.21,ESE,112,0.0,0.0,39,0.00,,,0.00,VWS V14.01,2013-04-26 09:51:00,
2013-04-26 05:52:00,68.4,42.5,30.21,ESE,112,0.0,0.0,39,0.00,,,0.00,VWS V14.01,2013-04-26 09:52:00,
2013-04-26 05:53:00,66.7,45.9,30.21,NNW,338,0.0,0.0,47,0.00,,,0.00,VWS V14.01,2013-04-26 09:53:00,
2013-04-26 05:54:00,68.4,42.5,30.21,ESE,112,0.0,0.0,39,0.00,,,0.00,VWS V14.01,2013-04-26 09:54:00,
2013-04-26 05:55:00,68.4,42.5,30.21,ESE,112,0.0,0.0,39,0.00,,,0.00,VWS V14.01,2013-04-26 09:55:00,
2013-04-26 05:56:00,68.4,42.5,30.21,ESE,112,0.0,0.0,39,0.00,,,0.00,VWS V14.01,2013-04-26 09:56:00,
2013-04-26 05:57:00,68.4,42.5,30.21,ESE,112,0.0,0.0,39,0.00,,,0.00,VWS V14.01,2013-04-26 09:57:00,
2013-04-26 05:58:00,66.7,45.3,30.21,NW,315,0.0,0.0,46,0.00,,,0.00,VWS V14.01,2013-04-26 09:58:00,
2013-04-26 05:59:00,68.2,42.3,30.18,ESE,112,0.0,0.0,39,0.00,,,0.00,VWS V14.01,2013-04-26 09:59:00,
2013-04-26 06:00:00,68.2,42.3,30.18,ESE,112,0.0,0.0,39,0.00,,,0.00,VWS V14.01,2013-04-26 10:00:00,
2013-04-26 06:01:00,68.2,43.0,30.18,ESE,112,0.0,0.0,40,0.00,,,0.00,VWS V14.01,2013-04-26 10:01:00,
2013-04-26 06:02:00,68.0,42.8,30.18,ESE,112,0.0,0.0,40,0.00,,,0.00,VWS V14.01,2013-04-26 10:02:00,
2013-04-26 06:03:00,66.6,45.2,30.21,WNW,292,0.0,0.0,46,0.00,,,0.00,VWS V14.01,2013-04-26 10:03:00,
2013-04-26 06:04:00,68.0,42.8,30.18,ESE,112,0.0,0.0,40,0.00,,,0.00,VWS V14.01,2013-04-26 10:04:00,
2013-04-26 06:05:00,67.8,42.6,30.18,ESE,112,0.0,0.0,40,0.00,,,0.00,VWS V14.01,2013-04-26 10:05:00,
2013-04-26 06:06:00,67.8,43.3,30.18,ESE,112,0.0,0.0,41,0.00,,,0.00,VWS V14.01,2013-04-26 10:06:00,
2013-04-26 06:07:00,67.8,43.3,30.18,ESE,112,0.0,0.0,41,0.00,,,0.00,VWS V14.01,2013-04-26 10:07:00,
2013-04-26 06:08:00,66.6,45.2,30.21,WNW,292,0.0,0.0,46,0.00,,,0.00,VWS V14.01,2013-04-26 10:08:00,
2013-04-26 06:09:00,67.8,43.3,30.18,ESE,112,0.0,0.0,41,0.00,,,0.00,VWS V14.01,2013-04-26 10:09:00,
2013-04-26 06:10:00,67.6,43.1,30.18,ESE,112,0.0,0.0,41,0.00,,,0.00,VWS V14.01,2013-04-26 10:10:00,
2013-04-26 06:11:00,67.6,43.1,30.18,ESE,112,0.0,0.0,41,0.00,,,0.00,VWS V14.01,2013-04-26 10:11:00,
2013-04-26 06:12:00,67.6,43.8,30.18,ESE,112,0.0,0.0,42,0.00,,,0.00,VWS V14.01,2013-04-26 10:12:00,
2013-04-26 06:13:00,66.4,45.0,30.21,WNW,292,0.0,0.0,46,0.00,,,0.00,VWS V14.01,2013-04-26 10:13:00,
2013-04-26 06:14:00,67.6,43.1,30.18,ESE,112,0.0,0.0,41,0.00,,,0.00,VWS V14.01,2013-04-26 10:14:00,
2013-04-26 06:15:00,67.6,43.1,30.18,ESE,112,0.0,0.0,41,0.00,,,0.00,VWS V14.01,2013-04-26 10:15:00,
2013-04-26 06:16:00,67.6,43.1,30.18,ESE,112,0.0,0.0,41,0.00,,,0.00,VWS V14.01,2013-04-26 10:16:00,
2013-04-26 06:17:00,67.5,43.0,30.18,ESE,112,0.0,0.0,41,0.00,,,0.00,VWS V14.01,2013-04-26 10:17:00,
2013-04-26 06:18:00,66.4,45.0,30.21,WNW,292,0.0,0.0,46,0.00,,,0.00,VWS V14.01,2013-04-26 10:18:00,
2013-04-26 06:19:00,67.5,43.0,30.18,ESE,112,0.0,0.0,41,0.00,,,0.00,VWS V14.01,2013-04-26 10:19:00,
2013-04-26 06:20:00,67.5,43.6,30.18,ESE,112,0.0,0.0,42,0.00,,,0.00,VWS V14.01,2013-04-26 10:20:00,
2013-04-26 06:21:00,67.5,43.6,30.18,ESE,112,0.0,0.0,42,0.00,,,0.00,VWS V14.01,2013-04-26 10:21:00,
2013-04-26 06:22:00,67.5,43.6,30.18,ESE,112,0.0,0.0,42,0.00,,,0.00,VWS V14.01,2013-04-26 10:22:00,
2013-04-26 06:23:00,66.2,44.8,30.21,NNW,338,0.0,0.0,46,0.00,,,0.00,VWS V14.01,2013-04-26 10:23:00,
2013-04-26 06:24:00,67.5,43.6,30.18,ESE,112,0.0,0.0,42,0.00,,,0.00,VWS V14.01,2013-04-26 10:24:00,
2013-04-26 06:26:00,67.5,43.6,30.18,ESE,112,0.0,0.0,42,0.00,,,0.00,VWS V14.01,2013-04-26 10:26:00,
2013-04-26 06:28:00,66.0,45.2,30.21,NNW,338,0.0,0.0,47,0.00,,,0.00,VWS V14.01,2013-04-26 10:28:00,
2013-04-26 06:29:00,67.5,43.6,30.18,ESE,112,0.0,0.0,42,0.00,,,0.00,VWS V14.01,2013-04-26 10:29:00,
2013-04-26 06:30:00,67.5,43.6,30.18,ESE,112,0.0,0.0,42,0.00,,,0.00,VWS V14.01,2013-04-26 10:30:00,
2013-04-26 06:31:00,67.5,43.6,30.18,ESE,112,0.0,0.0,42,0.00,,,0.00,VWS V14.01,2013-04-26 10:31:00,
2013-04-26 06:32:00,67.3,43.4,30.18,ESE,112,0.0,0.0,42,0.00,,,0.00,VWS V14.01,2013-04-26 10:32:00,
2013-04-26 06:33:00,66.0,45.2,30.21,NNW,338,0.0,0.0,47,0.00,,,0.00,VWS V14.01,2013-04-26 10:33:00,
2013-04-26 06:34:00,67.3,44.0,30.18,ENE,68,0.0,0.0,43,0.00,,,0.00,VWS V14.01,2013-04-26 10:34:00,
2013-04-26 06:35:00,67.3,44.0,30.18,WNW,292,0.0,0.0,43,0.00,,,0.00,VWS V14.01,2013-04-26 10:35:00,
2013-04-26 06:36:00,67.3,44.0,30.18,WNW,292,0.0,0.0,43,0.00,,,0.00,VWS V14.01,2013-04-26 10:36:00,
2013-04-26 06:37:00,67.3,44.0,30.18,WNW,292,0.0,0.0,43,0.00,,,0.00,VWS V14.01,2013-04-26 10:37:00,
2013-04-26 06:38:00,66.0,45.2,30.21,NNE,22,0.0,0.0,47,0.00,,,0.00,VWS V14.01,2013-04-26 10:38:00,
2013-04-26 06:39:00,67.3,44.0,30.18,WNW,292,0.0,0.0,43,0.00,,,0.00,VWS V14.01,2013-04-26 10:39:00,
2013-04-26 06:40:00,67.3,44.0,30.18,WNW,292,0.0,0.0,43,0.00,,,0.00,VWS V14.01,2013-04-26 10:40:00,
2013-04-26 06:41:00,67.3,44.0,30.18,North,0,0.0,0.0,43,0.00,,,0.00,VWS V14.01,2013-04-26 10:41:00,
2013-04-26 06:42:00,67.1,43.9,30.18,NNW,338,0.0,0.0,43,0.00,,,0.00,VWS V14.01,2013-04-26 10:42:00,
2013-04-26 06:43:00,66.0,45.2,30.21,NNE,22,0.0,0.0,47,0.00,,,0.00,VWS V14.01,2013-04-26 10:43:00,
2013-04-26 06:44:00,67.1,44.5,30.18,North,0,0.0,0.0,44,0.00,,,0.00,VWS V14.01,2013-04-26 10:44:00,
2013-04-26 06:45:00,67.1,44.5,30.18,NNW,338,0.0,0.0,44,0.00,,,0.00,VWS V14.01,2013-04-26 10:45:00,
2013-04-26 06:46:00,67.1,44.5,30.18,NNW,338,0.0,0.0,44,0.00,,,0.00,VWS V14.01,2013-04-26 10:46:00,
2013-04-26 06:47:00,67.1,44.5,30.18,NNW,338,0.0,0.0,44,0.00,,,0.00,VWS V14.01,2013-04-26 10:47:00,
2013-04-26 06:48:00,65.8,45.1,30.21,NNE,22,0.0,0.0,47,0.00,,,0.00,VWS V14.01,2013-04-26 10:48:00,
2013-04-26 06:49:00,67.1,44.5,30.18,NNW,338,0.0,0.0,44,0.00,,,0.00,VWS V14.01,2013-04-26 10:49:00,
2013-04-26 06:50:00,67.1,44.5,30.18,NNW,338,0.0,0.0,44,0.00,,,0.00,VWS V14.01,2013-04-26 10:50:00,
2013-04-26 06:51:00,67.1,44.5,30.18,NNW,338,0.0,0.0,44,0.00,,,0.00,VWS V14.01,2013-04-26 10:51:00,
2013-04-26 06:52:00,67.1,44.5,30.18,NNW,338,0.0,0.0,44,0.00,,,0.00,VWS V14.01,2013-04-26 10:52:00,
2013-04-26 06:53:00,65.8,45.6,30.21,ENE,68,0.0,0.0,48,0.00,,,0.00,VWS V14.01,2013-04-26 10:53:00,
2013-04-26 06:54:00,67.1,44.5,30.18,NNW,338,0.0,0.0,44,0.00,,,0.00,VWS V14.01,2013-04-26 10:54:00,
2013-04-26 06:55:00,66.9,44.3,30.18,NNW,338,0.0,0.0,44,0.00,,,0.00,VWS V14.01,2013-04-26 10:55:00,
2013-04-26 06:56:00,66.9,44.3,30.18,NNW,338,0.0,0.0,44,0.00,,,0.00,VWS V14.01,2013-04-26 10:56:00,
2013-04-26 06:57:00,66.9,44.3,30.18,NNW,338,0.0,0.0,44,0.00,,,0.00,VWS V14.01,2013-04-26 10:57:00,
2013-04-26 06:58:00,65.8,45.6,30.21,ENE,68,0.0,0.0,48,0.00,,,0.00,VWS V14.01,2013-04-26 10:58:00,
2013-04-26 06:59:00,66.9,44.3,30.18,NNW,338,0.0,0.0,44,0.00,,,0.00,VWS V14.01,2013-04-26 10:59:00,
2013-04-26 07:00:00,66.9,44.3,30.18,NNW,338,0.0,0.0,44,0.00,,,0.00,VWS V14.01,2013-04-26 11:00:00,
2013-04-26 07:01:00,66.9,44.3,30.18,NNW,338,0.0,0.0,44,0.00,,,0.00,VWS V14.01,2013-04-26 11:01:00,
2013-04-26 07:02:00,66.9,44.3,30.18,NNW,338,0.0,0.0,44,0.00,,,0.00,VWS V14.01,2013-04-26 11:02:00,
2013-04-26 07:03:00,65.8,45.6,30.21,ENE,68,0.0,0.0,48,0.00,,,0.00,VWS V14.01,2013-04-26 11:03:00,
2013-04-26 07:04:00,66.7,44.2,30.18,NNW,338,0.0,0.0,44,0.00,,,0.00,VWS V14.01,2013-04-26 11:04:00,
2013-04-26 07:05:00,66.7,44.2,30.18,NNW,338,0.0,0.0,44,0.00,,,0.00,VWS V14.01,2013-04-26 11:05:00,
2013-04-26 07:06:00,66.7,44.2,30.18,NNW,338,0.0,0.0,44,0.00,,,0.00,VWS V14.01,2013-04-26 11:06:00,
2013-04-26 07:07:00,66.7,44.2,30.18,NNW,338,0.0,0.0,44,0.00,,,0.00,VWS V14.01,2013-04-26 11:07:00,
2013-04-26 07:08:00,65.8,45.6,30.21,ENE,68,0.0,0.0,48,0.00,,,0.00,VWS V14.01,2013-04-26 11:08:00,
2013-04-26 07:09:00,66.7,44.7,30.18,NNW,338,0.0,0.0,45,0.00,,,0.00,VWS V14.01,2013-04-26 11:09:00,
2013-04-26 07:10:00,66.7,44.7,30.18,NNW,338,0.0,0.0,45,0.00,,,0.00,VWS V14.01,2013-04-26 11:10:00,
2013-04-26 07:11:00,66.7,44.7,30.18,NNW,338,0.0,0.0,45,0.00,,,0.00,VWS V14.01,2013-04-26 11:11:00,
2013-04-26 07:12:00,66.7,44.7,30.18,NNW,338,0.0,0.0,45,0.00,,,0.00,VWS V14.01,2013-04-26 11:12:00,
2013-04-26 07:13:00,66.2,46.0,30.21,ESE,112,0.0,0.0,48,0.00,,,0.00,VWS V14.01,2013-04-26 11:13:00,
2013-04-26 07:14:00,66.7,44.7,30.18,NNW,338,0.0,0.0,45,0.00,,,0.00,VWS V14.01,2013-04-26 11:14:00,
2013-04-26 07:15:00,66.7,44.7,30.18,NNW,338,0.0,0.0,45,0.00,,,0.00,VWS V14.01,2013-04-26 11:15:00,
2013-04-26 07:16:00,66.7,44.7,30.18,NNW,338,0.0,0.0,45,0.00,,,0.00,VWS V14.01,2013-04-26 11:16:00,
2013-04-26 07:17:00,66.7,44.7,30.18,NNW,338,0.0,0.0,45,0.00,,,0.00,VWS V14.01,2013-04-26 11:17:00,
2013-04-26 07:18:00,66.6,46.8,30.21,ESE,112,0.0,0.0,49,0.00,,,0.00,VWS V14.01,2013-04-26 11:18:00,
2013-04-26 07:19:00,66.6,44.6,30.18,NNW,338,0.0,0.0,45,0.00,,,0.00,VWS V14.01,2013-04-26 11:19:00,
2013-04-26 07:20:00,66.6,44.6,30.18,NNW,338,0.0,0.0,45,0.00,,,0.00,VWS V14.01,2013-04-26 11:20:00,
2013-04-26 07:21:00,66.6,44.6,30.18,NNW,338,0.0,0.0,45,0.00,,,0.00,VWS V14.01,2013-04-26 11:21:00,
2013-04-26 07:22:00,66.6,44.6,30.18,NNW,338,0.0,0.0,45,0.00,,,0.00,VWS V14.01,2013-04-26 11:22:00,
2013-04-26 07:23:00,67.1,47.3,30.21,ESE,112,0.0,0.0,49,0.00,,,0.00,VWS V14.01,2013-04-26 11:23:00,
2013-04-26 07:24:00,66.6,44.6,30.18,NNW,338,0.0,0.0,45,0.00,,,0.00,VWS V14.01,2013-04-26 11:24:00,
2013-04-26 07:25:00,66.7,45.3,30.18,NNW,338,0.0,0.0,46,0.00,,,0.00,VWS V14.01,2013-04-26 11:25:00,
2013-04-26 07:27:00,66.7,45.9,30.18,NNW,338,0.0,0.0,47,0.00,,,0.00,VWS V14.01,2013-04-26 11:27:00,
2013-04-26 07:28:00,67.6,48.4,30.21,ESE,112,0.0,0.0,50,0.00,,,0.00,VWS V14.01,2013-04-26 11:28:00,
2013-04-26 07:29:00,66.7,45.3,30.21,NNW,338,0.0,0.0,46,0.00,,,0.00,VWS V14.01,2013-04-26 11:29:00,
2013-04-26 07:30:00,66.7,45.3,30.21,NNW,338,0.0,0.0,46,0.00,,,0.00,VWS V14.01,2013-04-26 11:30:00,
2013-04-26 07:31:00,66.7,45.3,30.21,NW,315,0.0,0.0,46,0.00,,,0.00,VWS V14.01,2013-04-26 11:31:00,
2013-04-26 07:32:00,66.7,45.3,30.21,NW,315,0.0,0.0,46,0.00,,,0.00,VWS V14.01,2013-04-26 11:32:00,
2013-04-26 07:33:00,68.4,49.0,30.21,ESE,112,0.0,0.0,50,0.00,,,0.00,VWS V14.01,2013-04-26 11:33:00,
2013-04-26 07:34:00,66.6,45.2,30.21,NW,315,0.0,0.0,46,0.00,,,0.00,VWS V14.01,2013-04-26 11:34:00,
2013-04-26 07:35:00,66.6,45.2,30.21,NW,315,0.0,0.0,46,0.00,,,0.00,VWS V14.01,2013-04-26 11:35:00,
2013-04-26 07:36:00,66.6,45.2,30.21,NW,315,0.0,0.0,46,0.00,,,0.00,VWS V14.01,2013-04-26 11:36:00,
2013-04-26 07:37:00,66.6,45.2,30.21,NW,315,0.0,0.0,46,0.00,,,0.00,VWS V14.01,2013-04-26 11:37:00,
2013-04-26 07:38:00,68.9,50.0,30.21,ESE,112,0.0,0.0,51,0.00,,,0.00,VWS V14.01,2013-04-26 11:38:00,
2013-04-26 07:39:00,66.6,45.2,30.21,WNW,292,0.0,0.0,46,0.00,,,0.00,VWS V14.01,2013-04-26 11:39:00,
2013-04-26 07:40:00,66.6,45.2,30.21,WNW,292,0.0,0.0,46,0.00,,,0.00,VWS V14.01,2013-04-26 11:40:00,
2013-04-26 07:41:00,66.6,45.2,30.21,WNW,292,0.0,0.0,46,0.00,,,0.00,VWS V14.01,2013-04-26 11:41:00,
2013-04-26 07:42:00,66.6,45.2,30.21,WNW,292,0.0,0.0,46,0.00,,,0.00,VWS V14.01,2013-04-26 11:42:00,
2013-04-26 07:43:00,69.8,50.9,30.21,NNE,22,0.0,0.0,51,0.00,,,0.00,VWS V14.01,2013-04-26 11:43:00,
2013-04-26 07:44:00,66.4,45.0,30.21,WNW,292,0.0,0.0,46,0.00,,,0.00,VWS V14.01,2013-04-26 11:44:00,
2013-04-26 07:45:00,66.4,45.0,30.21,WNW,292,0.0,0.0,46,0.00,,,0.00,VWS V14.01,2013-04-26 11:45:00,
2013-04-26 07:46:00,66.4,45.0,30.21,WNW,292,0.0,0.0,46,0.00,,,0.00,VWS V14.01,2013-04-26 11:46:00,
2013-04-26 07:47:00,66.4,45.0,30.21,WNW,292,0.0,0.0,46,0.00,,,0.00,VWS V14.01,2013-04-26 11:47:00,
2013-04-26 07:48:00,70.7,51.7,30.21,NNW,338,0.0,0.0,51,0.00,,,0.00,VWS V14.01,2013-04-26 11:48:00,
2013-04-26 07:49:00,66.4,45.0,30.21,WNW,292,0.0,0.0,46,0.00,,,0.00,VWS V14.01,2013-04-26 11:49:00,
2013-04-26 07:50:00,66.4,45.0,30.21,WNW,292,0.0,0.0,46,0.00,,,0.00,VWS V14.01,2013-04-26 11:50:00,
2013-04-26 07:51:00,66.4,45.0,30.21,WNW,292,0.0,0.0,46,0.00,,,0.00,VWS V14.01,2013-04-26 11:51:00,
2013-04-26 07:52:00,66.4,45.0,30.21,WNW,292,0.0,0.0,46,0.00,,,0.00,VWS V14.01,2013-04-26 11:52:00,
2013-04-26 07:53:00,71.6,51.5,30.21,WNW,292,0.0,0.0,49,0.00,,,0.00,VWS V14.01,2013-04-26 11:53:00,
2013-04-26 07:54:00,66.4,45.0,30.21,WNW,292,0.0,0.0,46,0.00,,,0.00,VWS V14.01,2013-04-26 11:54:00,
2013-04-26 07:55:00,66.4,45.0,30.21,WNW,292,0.0,0.0,46,0.00,,,0.00,VWS V14.01,2013-04-26 11:55:00,
2013-04-26 07:56:00,66.2,44.8,30.21,WNW,292,0.0,0.0,46,0.00,,,0.00,VWS V14.01,2013-04-26 11:56:00,
2013-04-26 07:57:00,66.2,44.8,30.21,WNW,292,0.0,0.0,46,0.00,,,0.00,VWS V14.01,2013-04-26 11:57:00,
2013-04-26 07:58:00,72.3,51.5,30.21,North,0,0.0,0.0,48,0.00,,,0.00,VWS V14.01,2013-04-26 11:58:00,
2013-04-26 07:59:00,66.0,45.2,30.21,NNW,338,0.0,0.0,47,0.00,,,0.00,VWS V14.01,2013-04-26 11:59:00,
2013-04-26 08:01:00,66.0,45.2,30.21,NNW,338,0.0,0.0,47,0.00,,,0.00,VWS V14.01,2013-04-26 12:01:00,
2013-04-26 08:02:00,66.0,45.2,30.21,NNW,338,0.0,0.0,47,0.00,,,0.00,VWS V14.01,2013-04-26 12:02:00,
2013-04-26 08:03:00,73.0,51.1,30.21,NNE,22,0.0,0.0,46,0.00,,,0.00,VWS V14.01,2013-04-26 12:03:00,
2013-04-26 08:04:00,66.2,45.4,30.21,NNW,338,0.0,0.0,47,0.00,,,0.00,VWS V14.01,2013-04-26 12:04:00,
2013-04-26 08:05:00,66.0,45.2,30.21,NNW,338,0.0,0.0,47,0.00,,,0.00,VWS V14.01,2013-04-26 12:05:00,
2013-04-26 08:06:00,66.0,45.2,30.21,NNW,338,0.0,0.0,47,0.00,,,0.00,VWS V14.01,2013-04-26 12:06:00,
2013-04-26 08:07:00,66.0,45.2,30.21,NNW,338,0.0,0.0,47,0.00,,,0.00,VWS V14.01,2013-04-26 12:07:00,
2013-04-26 08:08:00,73.4,50.2,30.21,NNE,22,0.0,0.0,44,0.00,,,0.00,VWS V14.01,2013-04-26 12:08:00,
2013-04-26 08:09:00,66.0,45.2,30.21,NNW,338,0.0,0.0,47,0.00,,,0.00,VWS V14.01,2013-04-26 12:09:00,
2013-04-26 08:10:00,66.0,45.2,30.21,NNE,22,0.0,0.0,47,0.00,,,0.00,VWS V14.01,2013-04-26 12:10:00,
2013-04-26 08:11:00,66.0,45.2,30.21,NNE,22,0.0,0.0,47,0.00,,,0.00,VWS V14.01,2013-04-26 12:11:00,
2013-04-26 08:12:00,66.0,45.2,30.21,NNE,22,0.0,0.0,47,0.00,,,0.00,VWS V14.01,2013-04-26 12:12:00,
2013-04-26 08:13:00,66.0,45.2,30.21,NNE,22,0.0,0.0,47,0.00,,,0.00,VWS V14.01,2013-04-26 12:13:00,
2013-04-26 08:14:00,74.5,47.9,30.21,North,0,2.5,2.5,39,0.00,,,0.00,VWS V14.01,2013-04-26 12:14:00,
2013-04-26 08:15:00,66.0,45.2,30.21,NNE,22,0.0,0.0,47,0.00,,,0.00,VWS V14.01,2013-04-26 12:15:00,
2013-04-26 08:16:00,66.0,45.2,30.21,NNE,22,0.0,0.0,47,0.00,,,0.00,VWS V14.01,2013-04-26 12:16:00,
2013-04-26 08:17:00,66.0,45.2,30.21,NNE,22,0.0,0.0,47,0.00,,,0.00,VWS V14.01,2013-04-26 12:17:00,
2013-04-26 08:18:00,66.0,45.2,30.21,NNE,22,0.0,0.0,47,0.00,,,0.00,VWS V14.01,2013-04-26 12:18:00,
2013-04-26 08:19:00,74.7,47.4,30.21,North,0,0.0,0.0,38,0.00,,,0.00,VWS V14.01,2013-04-26 12:19:00,
2013-04-26 08:21:00,65.8,45.1,30.21,NNE,22,0.0,0.0,47,0.00,,,0.00,VWS V14.01,2013-04-26 12:21:00,
2013-04-26 08:22:00,65.8,45.1,30.21,NNE,22,0.0,0.0,47,0.00,,,0.00,VWS V14.01,2013-04-26 12:22:00,
2013-04-26 08:23:00,65.8,45.1,30.21,NNE,22,0.0,0.0,47,0.00,,,0.00,VWS V14.01,2013-04-26 12:23:00,
2013-04-26 08:24:00,75.6,46.0,30.24,North,0,1.3,1.3,35,0.00,,,0.00,VWS V14.01,2013-04-26 12:24:00,
2013-04-26 08:25:00,65.8,45.6,30.21,NNE,22,0.0,0.0,48,0.00,,,0.00,VWS V14.01,2013-04-26 12:25:00,
2013-04-26 08:26:00,65.8,45.1,30.21,NE,45,0.0,0.0,47,0.00,,,0.00,VWS V14.01,2013-04-26 12:26:00,
2013-04-26 08:27:00,65.8,45.6,30.21,ENE,68,0.0,0.0,48,0.00,,,0.00,VWS V14.01,2013-04-26 12:27:00,
2013-04-26 08:28:00,65.8,45.6,30.21,ENE,68,0.0,0.0,48,0.00,,,0.00,VWS V14.01,2013-04-26 12:28:00,
2013-04-26 08:29:00,76.6,46.2,30.24,ENE,68,0.9,0.9,34,0.00,,,0.00,VWS V14.01,2013-04-26 12:29:00,
2013-04-26 08:30:00,65.8,45.6,30.21,ENE,68,0.0,0.0,48,0.00,,,0.00,VWS V14.01,2013-04-26 12:30:00,
2013-04-26 08:31:00,65.8,45.6,30.21,ENE,68,0.0,0.0,48,0.00,,,0.00,VWS V14.01,2013-04-26 12:31:00,
2013-04-26 08:32:00,65.8,45.6,30.21,ENE,68,0.0,0.0,48,0.00,,,0.00,VWS V14.01,2013-04-26 12:32:00,
2013-04-26 08:33:00,65.8,45.6,30.21,ENE,68,0.0,0.0,48,0.00,,,0.00,VWS V14.01,2013-04-26 12:33:00,
2013-04-26 08:34:00,77.2,45.1,30.24,ESE,112,0.0,1.1,32,0.00,,,0.00,VWS V14.01,2013-04-26 12:34:00,
2013-04-26 08:36:00,65.8,45.6,30.21,ENE,68,0.0,0.0,48,0.00,,,0.00,VWS V14.01,2013-04-26 12:36:00,
2013-04-26 08:37:00,65.8,45.6,30.21,ENE,68,0.0,0.0,48,0.00,,,0.00,VWS V14.01,2013-04-26 12:37:00,
2013-04-26 08:38:00,65.8,45.6,30.21,ENE,68,0.0,0.0,48,0.00,,,0.00,VWS V14.01,2013-04-26 12:38:00,
2013-04-26 08:39:00,78.1,45.0,30.21,East,90,0.0,0.0,31,0.00,,,0.00,VWS V14.01,2013-04-26 12:39:00,
2013-04-26 08:40:00,66.0,45.8,30.21,ENE,68,0.0,0.0,48,0.00,,,0.00,VWS V14.01,2013-04-26 12:40:00,
2013-04-26 08:41:00,66.0,45.8,30.21,ENE,68,0.0,0.0,48,0.00,,,0.00,VWS V14.01,2013-04-26 12:41:00,
2013-04-26 08:42:00,66.0,45.8,30.21,ENE,68,0.0,0.0,48,0.00,,,0.00,VWS V14.01,2013-04-26 12:42:00,
2013-04-26 08:43:00,65.8,45.6,30.21,ENE,68,0.0,0.0,48,0.00,,,0.00,VWS V14.01,2013-04-26 12:43:00,
2013-04-26 08:44:00,78.8,44.8,30.21,ENE,68,0.0,0.0,30,0.00,,,0.00,VWS V14.01,2013-04-26 12:44:00,
2013-04-26 08:45:00,66.0,45.8,30.21,ENE,68,0.0,0.0,48,0.00,,,0.00,VWS V14.01,2013-04-26 12:45:00,
2013-04-26 08:46:00,66.0,46.3,30.21,ENE,68,0.0,0.0,49,0.00,,,0.00,VWS V14.01,2013-04-26 12:46:00,
2013-04-26 08:47:00,66.0,46.3,30.21,ENE,68,0.0,0.0,49,0.00,,,0.00,VWS V14.01,2013-04-26 12:47:00,
2013-04-26 08:48:00,66.2,46.0,30.21,ESE,112,0.0,0.0,48,0.00,,,0.00,VWS V14.01,2013-04-26 12:48:00,
2013-04-26 08:49:00,79.2,43.3,30.21,South,180,2.7,2.7,28,0.00,,,0.00,VWS V14.01,2013-04-26 12:49:00,
2013-04-26 08:50:00,66.4,46.1,30.21,ESE,112,0.0,0.0,48,0.00,,,0.00,VWS V14.01,2013-04-26 12:50:00,
2013-04-26 08:51:00,66.6,46.8,30.21,ESE,112,0.0,0.0,49,0.00,,,0.00,VWS V14.01,2013-04-26 12:51:00,
2013-04-26 08:52:00,66.6,46.8,30.21,ESE,112,0.0,0.0,49,0.00,,,0.00,VWS V14.01,2013-04-26 12:52:00,
2013-04-26 08:53:00,66.6,46.8,30.21,ESE,112,0.0,0.0,49,0.00,,,0.00,VWS V14.01,2013-04-26 12:53:00,
2013-04-26 08:54:00,79.5,37.4,30.24,SE,135,0.0,0.0,22,0.00,,,0.00,VWS V14.01,2013-04-26 12:54:00,
2013-04-26 08:55:00,66.7,47.0,30.21,ESE,112,0.0,0.0,49,0.00,,,0.00,VWS V14.01,2013-04-26 12:55:00,
2013-04-26 08:56:00,66.7,47.0,30.21,ESE,112,0.0,0.0,49,0.00,,,0.00,VWS V14.01,2013-04-26 12:56:00,
2013-04-26 08:57:00,66.9,47.2,30.21,ESE,112,0.0,0.0,49,0.00,,,0.00,VWS V14.01,2013-04-26 12:57:00,
2013-04-26 08:58:00,67.1,47.3,30.21,ESE,112,0.0,0.0,49,0.00,,,0.00,VWS V14.01,2013-04-26 12:58:00,
2013-04-26 08:59:00,79.9,36.5,30.24,SE,135,2.5,3.1,21,0.00,,,0.00,VWS V14.01,2013-04-26 12:59:00,
2013-04-26 09:00:00,67.3,47.5,30.21,ESE,112,0.0,0.0,49,0.00,,,0.00,VWS V14.01,2013-04-26 13:00:00,
2013-04-26 09:01:00,67.3,48.0,30.21,ESE,112,0.0,0.0,50,0.00,,,0.00,VWS V14.01,2013-04-26 13:01:00,
2013-04-26 09:02:00,67.3,48.0,30.21,ESE,112,0.0,0.0,50,0.00,,,0.00,VWS V14.01,2013-04-26 13:02:00,
2013-04-26 09:03:00,67.6,48.4,30.21,ESE,112,0.0,0.0,50,0.00,,,0.00,VWS V14.01,2013-04-26 13:03:00,
2013-04-26 09:04:00,79.9,35.3,30.24,SW,225,1.3,2.0,20,0.00,,,0.00,VWS V14.01,2013-04-26 13:04:00,
2013-04-26 09:05:00,68.0,48.7,30.21,ESE,112,0.0,0.0,50,0.00,,,0.00,VWS V14.01,2013-04-26 13:05:00,
2013-04-26 09:06:00,68.0,48.7,30.21,ESE,112,0.0,0.0,50,0.00,,,0.00,VWS V14.01,2013-04-26 13:06:00,
2013-04-26 09:07:00,68.0,48.7,30.21,ESE,112,0.0,0.0,50,0.00,,,0.00,VWS V14.01,2013-04-26 13:07:00,
2013-04-26 09:08:00,68.4,49.0,30.21,ESE,112,0.0,0.0,50,0.00,,,0.00,VWS V14.01,2013-04-26 13:08:00,
2013-04-26 09:09:00,80.1,35.4,30.24,SSE,158,6.0,6.0,20,0.00,,,0.00,VWS V14.01,2013-04-26 13:09:00,
2013-04-26 09:10:00,68.9,50.0,30.21,ESE,112,0.0,0.0,51,0.00,,,0.00,VWS V14.01,2013-04-26 13:10:00,
2013-04-26 09:11:00,68.9,50.0,30.21,ESE,112,0.0,0.0,51,0.00,,,0.00,VWS V14.01,2013-04-26 13:11:00,
2013-04-26 09:12:00,68.9,50.0,30.21,ESE,112,0.0,0.0,51,0.00,,,0.00,VWS V14.01,2013-04-26 13:12:00,
2013-04-26 09:13:00,68.9,50.0,30.21,ESE,112,0.0,0.0,51,0.00,,,0.00,VWS V14.01,2013-04-26 13:13:00,
2013-04-26 09:14:00,79.9,35.3,30.24,South,180,0.0,3.1,20,0.00,,,0.00,VWS V14.01,2013-04-26 13:14:00,
2013-04-26 09:15:00,69.6,50.7,30.21,ESE,112,0.0,0.0,51,0.00,,,0.00,VWS V14.01,2013-04-26 13:15:00,
2013-04-26 09:16:00,69.6,50.7,30.21,ESE,112,0.0,0.0,51,0.00,,,0.00,VWS V14.01,2013-04-26 13:16:00,
2013-04-26 09:18:00,69.8,50.9,30.21,ENE,68,0.0,0.0,51,0.00,,,0.00,VWS V14.01,2013-04-26 13:18:00,
2013-04-26 09:19:00,80.8,34.7,30.24,SSE,158,2.2,3.4,19,0.00,,,0.00,VWS V14.01,2013-04-26 13:19:00,
2013-04-26 09:20:00,70.3,51.4,30.21,North,0,0.0,0.0,51,0.00,,,0.00,VWS V14.01,2013-04-26 13:20:00,
2013-04-26 09:21:00,70.5,51.5,30.21,NNW,338,0.0,0.0,51,0.00,,,0.00,VWS V14.01,2013-04-26 13:21:00,
2013-04-26 09:22:00,70.7,51.7,30.21,NNW,338,0.0,0.0,51,0.00,,,0.00,VWS V14.01,2013-04-26 13:22:00,
2013-04-26 09:23:00,70.7,51.7,30.21,NNW,338,0.0,0.0,51,0.00,,,0.00,VWS V14.01,2013-04-26 13:23:00,
2013-04-26 09:24:00,81.0,34.9,30.27,SSE,158,2.7,4.0,19,0.00,,,0.00,VWS V14.01,2013-04-26 13:24:00,
2013-04-26 09:25:00,71.1,51.5,30.21,NNW,338,0.0,0.0,50,0.00,,,0.00,VWS V14.01,2013-04-26 13:25:00,
2013-04-26 09:26:00,71.2,51.7,30.21,NW,315,0.0,0.0,50,0.00,,,0.00,VWS V14.01,2013-04-26 13:26:00,
2013-04-26 09:27:00,71.4,51.8,30.21,WNW,292,0.0,0.0,50,0.00,,,0.00,VWS V14.01,2013-04-26 13:27:00,
2013-04-26 09:28:00,71.6,51.5,30.21,WNW,292,0.0,0.0,49,0.00,,,0.00,VWS V14.01,2013-04-26 13:28:00,
2013-04-26 09:29:00,81.3,32.4,30.27,ESE,112,1.6,2.5,17,0.00,,,0.00,VWS V14.01,2013-04-26 13:29:00,
2013-04-26 09:30:00,71.8,51.6,30.21,WNW,292,0.0,0.0,49,0.00,,,0.00,VWS V14.01,2013-04-26 13:30:00,
2013-04-26 09:31:00,72.0,51.2,30.21,WNW,292,0.0,0.0,48,0.00,,,0.00,VWS V14.01,2013-04-26 13:31:00,
2013-04-26 09:32:00,72.1,51.4,30.21,North,0,0.0,0.0,48,0.00,,,0.00,VWS V14.01,2013-04-26 13:32:00,
2013-04-26 09:33:00,72.1,51.4,30.21,North,0,0.0,0.0,48,0.00,,,0.00,VWS V14.01,2013-04-26 13:33:00,
2013-04-26 09:34:00,81.3,32.4,30.27,SE,135,3.1,3.6,17,0.00,,,0.00,VWS V14.01,2013-04-26 13:34:00,
2013-04-26 09:35:00,72.5,51.2,30.21,North,0,0.0,0.0,47,0.00,,,0.00,VWS V14.01,2013-04-26 13:35:00,
2013-04-26 09:36:00,72.7,50.7,30.21,North,0,0.0,0.0,46,0.00,,,0.00,VWS V14.01,2013-04-26 13:36:00,
2013-04-26 09:37:00,72.9,50.9,30.21,NNE,22,0.0,0.0,46,0.00,,,0.00,VWS V14.01,2013-04-26 13:37:00,
2013-04-26 09:38:00,73.0,51.1,30.21,NNE,22,0.0,0.0,46,0.00,,,0.00,VWS V14.01,2013-04-26 13:38:00,
2013-04-26 09:39:00,81.5,32.5,30.27,SE,135,3.6,4.3,17,0.00,,,0.00,VWS V14.01,2013-04-26 13:39:00,
2013-04-26 09:40:00,73.2,50.6,30.21,NNE,22,0.0,0.0,45,0.00,,,0.00,VWS V14.01,2013-04-26 13:40:00,
2013-04-26 09:41:00,73.4,50.2,30.21,NNE,22,0.0,0.0,44,0.00,,,0.00,VWS V14.01,2013-04-26 13:41:00,
2013-04-26 09:43:00,73.4,50.2,30.21,NNE,22,0.0,0.0,44,0.00,,,0.00,VWS V14.01,2013-04-26 13:43:00,
2013-04-26 09:44:00,81.9,32.8,30.27,ESE,112,2.7,4.3,17,0.00,,,0.00,VWS V14.01,2013-04-26 13:44:00,
2013-04-26 09:45:00,73.9,50.1,30.21,NNE,22,0.0,0.0,43,0.00,,,0.00,VWS V14.01,2013-04-26 13:45:00,
2013-04-26 09:46:00,74.1,49.6,30.21,NNW,338,1.6,2.7,42,0.00,,,0.00,VWS V14.01,2013-04-26 13:46:00,
2013-04-26 09:47:00,74.3,49.8,30.21,North,0,2.0,2.5,42,0.00,,,0.00,VWS V14.01,2013-04-26 13:47:00,
2013-04-26 09:48:00,74.3,47.8,30.21,North,0,2.0,3.4,39,0.00,,,0.00,VWS V14.01,2013-04-26 13:48:00,
2013-04-26 09:49:00,82.9,32.2,30.27,ESE,112,3.1,3.8,16,0.00,,,0.00,VWS V14.01,2013-04-26 13:49:00,
2013-04-26 09:50:00,74.7,49.4,30.21,North,0,1.3,2.7,41,0.00,,,0.00,VWS V14.01,2013-04-26 13:50:00,
2013-04-26 09:51:00,74.7,47.4,30.21,North,0,2.2,2.7,38,0.00,,,0.00,VWS V14.01,2013-04-26 13:51:00,
2013-04-26 09:52:00,74.7,47.4,30.21,North,0,0.0,2.5,38,0.00,,,0.00,VWS V14.01,2013-04-26 13:52:00,
2013-04-26 09:54:00,82.9,28.9,30.27,ESE,112,3.4,4.7,14,0.00,,,0.00,VWS V14.01,2013-04-26 13:54:00,
2013-04-26 09:55:00,75.0,47.0,30.21,North,0,2.2,2.2,37,0.00,,,0.00,VWS V14.01,2013-04-26 13:55:00,
2013-04-26 09:56:00,75.0,47.0,30.21,NNW,338,2.2,2.2,37,0.00,,,0.00,VWS V14.01,2013-04-26 13:56:00,
2013-04-26 09:57:00,75.4,46.6,30.21,NNE,22,1.6,2.5,36,0.00,,,0.00,VWS V14.01,2013-04-26 13:57:00,
2013-04-26 09:58:00,75.6,46.0,30.24,North,0,1.1,2.0,35,0.00,,,0.00,VWS V14.01,2013-04-26 13:58:00,
2013-04-26 09:59:00,82.8,28.8,30.27,ESE,112,2.9,4.0,14,0.00,,,0.00,VWS V14.01,2013-04-26 13:59:00,
2013-04-26 10:00:00,75.7,46.2,30.24,East,90,0.0,1.3,35,0.00,,,0.00,VWS V14.01,2013-04-26 14:00:00,
2013-04-26 10:01:00,75.7,46.2,30.24,ENE,68,0.0,0.0,35,0.00,,,0.00,VWS V14.01,2013-04-26 14:01:00,
2013-04-26 10:02:00,76.3,46.7,30.24,East,90,0.0,1.1,35,0.00,,,0.00,VWS V14.01,2013-04-26 14:02:00,
2013-04-26 10:03:00,76.5,46.8,30.24,ENE,68,0.0,0.0,35,0.00,,,0.00,VWS V14.01,2013-04-26 14:03:00,
2013-04-26 10:04:00,82.9,28.9,30.27,ESE,112,4.0,4.3,14,0.00,,,0.00,VWS V14.01,2013-04-26 14:04:00,
2013-04-26 10:05:00,76.8,45.6,30.24,ENE,68,2.2,2.2,33,0.00,,,0.00,VWS V14.01,2013-04-26 14:05:00,
2013-04-26 10:06:00,77.0,45.7,30.24,ENE,68,0.0,2.2,33,0.00,,,0.00,VWS V14.01,2013-04-26 14:06:00,
2013-04-26 10:07:00,77.0,44.1,30.24,East,90,0.0,1.1,31,0.00,,,0.00,VWS V14.01,2013-04-26 14:07:00,
2013-04-26 10:08:00,77.2,45.1,30.24,ESE,112,1.1,2.2,32,0.00,,,0.00,VWS V14.01,2013-04-26 14:08:00,
2013-04-26 10:09:00,82.6,28.6,30.27,SE,135,2.9,4.9,14,0.00,,,0.00,VWS V14.01,2013-04-26 14:09:00,
2013-04-26 10:10:00,77.4,44.4,30.24,ENE,68,1.3,2.0,31,0.00,,,0.00,VWS V14.01,2013-04-26 14:10:00,
2013-04-26 10:11:00,77.5,44.5,30.24,NNE,22,0.0,2.0,31,0.00,,,0.00,VWS V14.01,2013-04-26 14:11:00,
2013-04-26 10:12:00,77.5,44.5,30.24,NNE,22,1.1,1.1,31,0.00,,,0.00,VWS V14.01,2013-04-26 14:12:00,
2013-04-26 10:13:00,78.1,45.0,30.21,NNE,22,0.0,1.1,31,0.00,,,0.00,VWS V14.01,2013-04-26 14:13:00,
2013-04-26 10:14:00,82.8,28.8,30.27,SSE,158,3.8,3.8,14,0.00,,,0.00,VWS V14.01,2013-04-26 14:14:00,
2013-04-26 10:15:00,78.3,45.2,30.21,East,90,0.0,0.0,31,0.00,,,0.00,VWS V14.01,2013-04-26 14:15:00,
2013-04-26 10:16:00,78.4,44.5,30.21,East,90,0.0,0.0,30,0.00,,,0.00,VWS V14.01,2013-04-26 14:16:00,
2013-04-26 10:17:00,78.4,44.5,30.21,ENE,68,0.0,0.0,30,0.00,,,0.00,VWS V14.01,2013-04-26 14:17:00,
2013-04-26 10:18:00,78.6,44.6,30.21,NE,45,0.0,1.1,30,0.00,,,0.00,VWS V14.01,2013-04-26 14:18:00,
2013-04-26 10:19:00,83.7,29.5,30.27,ESE,112,3.8,4.0,14,0.00,,,0.00,VWS V14.01,2013-04-26 14:19:00,
2013-04-26 10:20:00,79.2,45.1,30.21,SSE,158,0.0,0.0,30,0.00,,,0.00,VWS V14.01,2013-04-26 14:20:00,
2013-04-26 10:21:00,79.2,45.1,30.21,SSE,158,0.0,0.0,30,0.00,,,0.00,VWS V14.01,2013-04-26 14:21:00,
2013-04-26 10:23:00,79.2,43.3,30.21,SE,135,2.7,2.7,28,0.00,,,0.00,VWS V14.01,2013-04-26 14:23:00,
2013-04-26 10:24:00,84.2,28.1,30.27,ESE,112,5.4,5.4,13,0.00,,,0.00,VWS V14.01,2013-04-26 14:24:00,
2013-04-26 10:25:00,79.3,38.4,30.21,SSW,202,1.1,3.1,23,0.00,,,0.00,VWS V14.01,2013-04-26 14:25:00,
2013-04-26 10:26:00,79.3,38.4,30.21,WSW,248,2.0,2.5,23,0.00,,,0.00,VWS V14.01,2013-04-26 14:26:00,
2013-04-26 10:27:00,79.5,38.5,30.21,West,270,2.5,2.5,23,0.00,,,0.00,VWS V14.01,2013-04-26 14:27:00,
2013-04-26 10:28:00,79.5,37.4,30.24,WSW,248,0.0,2.5,22,0.00,,,0.00,VWS V14.01,2013-04-26 14:28:00,
2013-04-26 10:29:00,84.0,29.8,30.27,ESE,112,2.5,4.9,14,0.00,,,0.00,VWS V14.01,2013-04-26 14:29:00,
2013-04-26 10:30:00,79.7,36.3,30.24,ESE,112,2.7,3.1,21,0.00,,,0.00,VWS V14.01,2013-04-26 14:30:00,
2013-04-26 10:31:00,79.7,36.3,30.24,ESE,112,2.5,2.7,21,0.00,,,0.00,VWS V14.01,2013-04-26 14:31:00,
2013-04-26 10:32:00,79.7,36.3,30.24,SE,135,1.1,2.5,21,0.00,,,0.00,VWS V14.01,2013-04-26 14:32:00,
2013-04-26 10:33:00,79.9,36.5,30.24,SE,135,2.5,3.1,21,0.00,,,0.00,VWS V14.01,2013-04-26 14:33:00,
2013-04-26 10:34:00,84.2,28.1,30.27,ESE,112,3.4,4.9,13,0.00,,,0.00,VWS V14.01,2013-04-26 14:34:00,
2013-04-26 10:36:00,79.9,35.3,30.24,SSE,158,2.7,2.7,20,0.00,,,0.00,VWS V14.01,2013-04-26 14:36:00,
2013-04-26 10:37:00,79.9,35.3,30.24,SSW,202,2.0,2.9,20,0.00,,,0.00,VWS V14.01,2013-04-26 14:37:00,
2013-04-26 10:38:00,79.9,35.3,30.24,SSW,202,2.0,2.0,20,0.00,,,0.00,VWS V14.01,2013-04-26 14:38:00,
2013-04-26 10:39:00,84.2,28.1,30.24,SSE,158,4.0,5.8,13,0.00,,,0.00,VWS V14.01,2013-04-26 14:39:00,
2013-04-26 10:40:00,79.9,35.3,30.24,SSE,158,3.1,3.4,20,0.00,,,0.00,VWS V14.01,2013-04-26 14:40:00,
2013-04-26 10:41:00,79.9,35.3,30.24,South,180,6.0,6.0,20,0.00,,,0.00,VWS V14.01,2013-04-26 14:41:00,
2013-04-26 10:42:00,80.1,35.4,30.24,South,180,3.8,6.0,20,0.00,,,0.00,VWS V14.01,2013-04-26 14:42:00,
2013-04-26 10:43:00,80.1,35.4,30.24,SSE,158,6.0,6.0,20,0.00,,,0.00,VWS V14.01,2013-04-26 14:43:00,
2013-04-26 10:44:00,84.4,28.2,30.24,SE,135,3.8,3.8,13,0.00,,,0.00,VWS V14.01,2013-04-26 14:44:00,
2013-04-26 10:45:00,79.9,35.3,30.24,SSE,158,4.9,6.0,20,0.00,,,0.00,VWS V14.01,2013-04-26 14:45:00,
2013-04-26 10:46:00,79.9,35.3,30.24,South,180,3.8,5.4,20,0.00,,,0.00,VWS V14.01,2013-04-26 14:46:00,
2013-04-26 10:47:00,79.9,35.3,30.24,SSE,158,3.1,3.8,20,0.00,,,0.00,VWS V14.01,2013-04-26 14:47:00,
2013-04-26 10:49:00,84.9,24.6,30.24,ESE,112,6.3,6.3,11,0.00,,,0.00,VWS V14.01,2013-04-26 14:49:00,
2013-04-26 10:50:00,80.4,35.7,30.24,SSE,158,2.7,2.7,20,0.00,,,0.00,VWS V14.01,2013-04-26 14:50:00,
2013-04-26 10:51:00,80.4,35.7,30.24,ESE,112,0.0,2.7,20,0.00,,,0.00,VWS V14.01,2013-04-26 14:51:00,
2013-04-26 10:53:00,80.6,34.6,30.24,ESE,112,3.4,4.0,19,0.00,,,0.00,VWS V14.01,2013-04-26 14:53:00,
2013-04-26 10:54:00,85.3,24.9,30.27,ESE,112,4.0,6.0,11,0.00,,,0.00,VWS V14.01,2013-04-26 14:54:00,
2013-04-26 10:55:00,80.8,34.7,30.24,SE,135,2.9,3.8,19,0.00,,,0.00,VWS V14.01,2013-04-26 14:55:00,
2013-04-26 10:56:00,80.8,34.7,30.24,South,180,2.0,3.1,19,0.00,,,0.00,VWS V14.01,2013-04-26 14:56:00,
2013-04-26 10:57:00,80.8,34.7,30.24,ESE,112,4.0,4.0,19,0.00,,,0.00,VWS V14.01,2013-04-26 14:57:00,
2013-04-26 10:58:00,81.0,34.9,30.27,ESE,112,1.6,4.0,19,0.00,,,0.00,VWS V14.01,2013-04-26 14:58:00,
2013-04-26 10:59:00,84.9,24.6,30.27,SSE,158,4.0,4.9,11,0.00,,,0.00,VWS V14.01,2013-04-26 14:59:00,
2013-04-26 11:00:00,81.3,32.4,30.27,East,90,2.9,4.0,17,0.00,,,0.00,VWS V14.01,2013-04-26 15:00:00,
2013-04-26 11:01:00,81.1,32.2,30.27,South,180,2.5,2.9,17,0.00,,,0.00,VWS V14.01,2013-04-26 15:01:00,
2013-04-26 11:02:00,81.1,32.2,30.27,SE,135,2.5,3.6,17,0.00,,,0.00,VWS V14.01,2013-04-26 15:02:00,
2013-04-26 11:03:00,81.1,32.2,30.27,SE,135,2.5,2.5,17,0.00,,,0.00,VWS V14.01,2013-04-26 15:03:00,
2013-04-26 11:04:00,85.5,25.0,30.27,SSW,202,2.7,2.7,11,0.00,,,0.00,VWS V14.01,2013-04-26 15:04:00,
2013-04-26 11:05:00,81.5,32.5,30.27,SE,135,2.7,3.6,17,0.00,,,0.00,VWS V14.01,2013-04-26 15:05:00,
2013-04-26 11:06:00,81.7,32.7,30.27,SSE,158,4.9,4.9,17,0.00,,,0.00,VWS V14.01,2013-04-26 15:06:00,
2013-04-26 11:07:00,81.5,32.5,30.27,SE,135,3.6,6.0,17,0.00,,,0.00,VWS V14.01,2013-04-26 15:07:00,
2013-04-26 11:08:00,81.5,32.5,30.27,SE,135,3.6,3.6,17,0.00,,,0.00,VWS V14.01,2013-04-26 15:08:00,
2013-04-26 11:09:00,86.2,25.6,30.27,South,180,3.4,4.7,11,0.00,,,0.00,VWS V14.01,2013-04-26 15:09:00,
2013-04-26 11:10:00,81.3,32.4,30.27,SSE,158,2.0,4.7,17,0.00,,,0.00,VWS V14.01,2013-04-26 15:10:00,
2013-04-26 11:11:00,81.3,32.4,30.27,SE,135,3.4,3.8,17,0.00,,,0.00,VWS V14.01,2013-04-26 15:11:00,
2013-04-26 11:12:00,81.3,32.4,30.27,ESE,112,3.4,4.3,17,0.00,,,0.00,VWS V14.01,2013-04-26 15:12:00,
2013-04-26 11:13:00,81.5,32.5,30.27,SSE,158,4.3,4.3,17,0.00,,,0.00,VWS V14.01,2013-04-26 15:13:00,
2013-04-26 11:14:00,86.2,25.6,30.27,SE,135,3.1,4.9,11,0.00,,,0.00,VWS V14.01,2013-04-26 15:14:00,
2013-04-26 11:15:00,81.7,32.7,30.27,SSE,158,2.0,3.6,17,0.00,,,0.00,VWS V14.01,2013-04-26 15:15:00,
2013-04-26 11:16:00,81.7,32.7,30.27,ESE,112,3.1,5.4,17,0.00,,,0.00,VWS V14.01,2013-04-26 15:16:00,
2013-04-26 11:17:00,81.9,32.8,30.27,SE,135,2.9,3.8,17,0.00,,,0.00,VWS V14.01,2013-04-26 15:17:00,
2013-04-26 11:19:00,86.4,25.7,30.27,SE,135,2.5,2.9,11,0.00,,,0.00,VWS V14.01,2013-04-26 15:19:00,
2013-04-26 11:20:00,82.2,33.1,30.27,ESE,112,2.9,3.4,17,0.00,,,0.00,VWS V14.01,2013-04-26 15:20:00,
2013-04-26 11:21:00,82.4,31.8,30.27,East,90,1.6,3.4,16,0.00,,,0.00,VWS V14.01,2013-04-26 15:21:00,
2013-04-26 11:22:00,82.4,31.8,30.27,NE,45,2.5,2.5,16,0.00,,,0.00,VWS V14.01,2013-04-26 15:22:00,
2013-04-26 11:23:00,82.4,31.8,30.27,ESE,112,2.0,2.5,16,0.00,,,0.00,VWS V14.01,2013-04-26 15:23:00,
2013-04-26 11:24:00,85.8,25.3,30.27,South,180,5.4,6.5,11,0.00,,,0.00,VWS V14.01,2013-04-26 15:24:00,
2013-04-26 11:25:00,82.9,32.2,30.27,ESE,112,5.4,5.4,16,0.00,,,0.00,VWS V14.01,2013-04-26 15:25:00,
2013-04-26 11:26:00,82.9,32.2,30.27,East,90,4.0,5.4,16,0.00,,,0.00,VWS V14.01,2013-04-26 15:26:00,
2013-04-26 11:27:00,82.9,28.9,30.27,East,90,3.4,4.0,14,0.00,,,0.00,VWS V14.01,2013-04-26 15:27:00,
2013-04-26 11:28:00,82.9,28.9,30.27,East,90,4.7,4.7,14,0.00,,,0.00,VWS V14.01,2013-04-26 15:28:00,
2013-04-26 11:29:00,86.0,25.4,30.27,SSE,158,3.8,4.3,11,0.00,,,0.00,VWS V14.01,2013-04-26 15:29:00,
2013-04-26 11:30:00,83.1,29.0,30.27,South,180,2.5,4.7,14,0.00,,,0.00,VWS V14.01,2013-04-26 15:30:00,
2013-04-26 11:31:00,83.1,29.0,30.27,SSE,158,3.8,3.8,14,0.00,,,0.00,VWS V14.01,2013-04-26 15:31:00,
2013-04-26 11:32:00,82.8,28.8,30.27,ESE,112,3.1,4.7,14,0.00,,,0.00,VWS V14.01,2013-04-26 15:32:00,
2013-04-26 11:33:00,82.8,28.8,30.27,ESE,112,4.0,4.0,14,0.00,,,0.00,VWS V14.01,2013-04-26 15:33:00,
2013-04-26 11:34:00,85.8,25.3,30.27,SSE,158,6.3,6.3,11,0.00,,,0.00,VWS V14.01,2013-04-26 15:34:00,
2013-04-26 11:35:00,82.8,28.8,30.27,SE,135,2.2,3.6,14,0.00,,,0.00,VWS V14.01,2013-04-26 15:35:00,
2013-04-26 11:36:00,82.8,28.8,30.27,SSE,158,3.4,3.4,14,0.00,,,0.00,VWS V14.01,2013-04-26 15:36:00,
2013-04-26 11:37:00,82.9,28.9,30.27,South,180,4.3,4.3,14,0.00,,,0.00,VWS V14.01,2013-04-26 15:37:00,
2013-04-26 11:38:00,82.9,28.9,30.27,ESE,112,4.0,4.3,14,0.00,,,0.00,VWS V14.01,2013-04-26 15:38:00,
2013-04-26 11:39:00,85.5,25.0,30.27,East,90,2.2,2.9,11,0.00,,,0.00,VWS V14.01,2013-04-26 15:39:00,
2013-04-26 11:40:00,82.6,28.6,30.27,ESE,112,3.8,6.5,14,0.00,,,0.00,VWS V14.01,2013-04-26 15:40:00,
2013-04-26 11:41:00,82.4,28.5,30.27,SSE,158,3.6,4.7,14,0.00,,,0.00,VWS V14.01,2013-04-26 15:41:00,
2013-04-26 11:42:00,82.6,28.6,30.27,SSE,158,1.3,3.8,14,0.00,,,0.00,VWS V14.01,2013-04-26 15:42:00,
2013-04-26 11:43:00,82.6,28.6,30.27,SSE,158,4.0,4.0,14,0.00,,,0.00,VWS V14.01,2013-04-26 15:43:00,
2013-04-26 11:44:00,86.0,25.4,30.27,SSE,158,4.0,4.0,11,0.00,,,0.00,VWS V14.01,2013-04-26 15:44:00,
2013-04-26 11:45:00,82.8,28.8,30.27,SSE,158,4.0,4.0,14,0.00,,,0.00,VWS V14.01,2013-04-26 15:45:00,
2013-04-26 11:46:00,82.9,28.9,30.27,SSE,158,4.0,4.0,14,0.00,,,0.00,VWS V14.01,2013-04-26 15:46:00,
2013-04-26 11:47:00,82.8,28.8,30.27,SE,135,2.2,5.4,14,0.00,,,0.00,VWS V14.01,2013-04-26 15:47:00,
2013-04-26 11:48:00,82.8,28.8,30.27,SSE,158,3.4,3.4,14,0.00,,,0.00,VWS V14.01,2013-04-26 15:48:00,
2013-04-26 11:49:00,82.8,28.8,30.27,SSE,158,3.4,3.8,14,0.00,,,0.00,VWS V14.01,2013-04-26 15:49:00,
2013-04-26 11:50:00,85.8,25.3,30.27,SE,135,4.3,5.4,11,0.00,,,0.00,VWS V14.01,2013-04-26 15:50:00,
2013-04-26 11:51:00,83.1,29.0,30.27,ESE,112,4.3,4.3,14,0.00,,,0.00,VWS V14.01,2013-04-26 15:51:00,
2013-04-26 11:52:00,83.1,29.0,30.27,ESE,112,4.3,4.3,14,0.00,,,0.00,VWS V14.01,2013-04-26 15:52:00,
2013-04-26 11:53:00,83.1,29.0,30.27,ESE,112,1.6,4.3,14,0.00,,,0.00,VWS V14.01,2013-04-26 15:53:00,
2013-04-26 11:54:00,83.7,29.5,30.27,East,90,4.3,4.3,14,0.00,,,0.00,VWS V14.01,2013-04-26 15:54:00,
2013-04-26 11:55:00,85.3,24.9,30.27,ESE,112,2.9,4.3,11,0.00,,,0.00,VWS V14.01,2013-04-26 15:55:00,
2013-04-26 11:56:00,83.7,29.5,30.27,ESE,112,2.5,5.4,14,0.00,,,0.00,VWS V14.01,2013-04-26 15:56:00,
2013-04-26 11:57:00,83.8,29.6,30.27,ESE,112,3.1,3.1,14,0.00,,,0.00,VWS V14.01,2013-04-26 15:57:00,
2013-04-26 11:58:00,84.0,29.8,30.27,ESE,112,3.1,3.1,14,0.00,,,0.00,VWS V14.01,2013-04-26 15:58:00,
2013-04-26 11:59:00,84.2,28.1,30.27,ESE,112,5.4,5.4,13,0.00,,,0.00,VWS V14.01,2013-04-26 15:59:00,
2013-04-26 12:00:00,86.0,25.4,30.27,South,180,2.9,3.1,11,0.00,,,0.00,VWS V14.01,2013-04-26 16:00:00,
2013-04-26 12:01:00,84.2,28.1,30.27,East,90,4.9,6.9,13,0.00,,,0.00,VWS V14.01,2013-04-26 16:01:00,
2013-04-26 12:02:00,84.0,29.8,30.27,SE,135,3.1,4.9,14,0.00,,,0.00,VWS V14.01,2013-04-26 16:02:00,
2013-04-26 12:03:00,84.0,29.8,30.27,ESE,112,4.9,5.8,14,0.00,,,0.00,VWS V14.01,2013-04-26 16:03:00,
2013-04-26 12:04:00,84.0,29.8,30.27,ESE,112,2.5,4.9,14,0.00,,,0.00,VWS V14.01,2013-04-26 16:04:00,
2013-04-26 12:05:00,86.5,25.9,30.27,SSE,158,4.0,4.0,11,0.00,,,0.00,VWS V14.01,2013-04-26 16:05:00,
2013-04-26 12:06:00,84.0,29.8,30.27,SE,135,2.0,2.7,14,0.00,,,0.00,VWS V14.01,2013-04-26 16:06:00,
2013-04-26 12:07:00,84.0,29.8,30.27,ESE,112,2.7,2.7,14,0.00,,,0.00,VWS V14.01,2013-04-26 16:07:00,
2013-04-26 12:08:00,84.2,28.1,30.27,East,90,4.9,6.5,13,0.00,,,0.00,VWS V14.01,2013-04-26 16:08:00,
2013-04-26 12:09:00,84.2,28.1,30.27,ESE,112,3.4,4.9,13,0.00,,,0.00,VWS V14.01,2013-04-26 16:09:00,
2013-04-26 12:10:00,86.9,26.1,30.27,SSW,202,1.6,2.9,11,0.00,,,0.00,VWS V14.01,2013-04-26 16:10:00,
2013-04-26 12:11:00,84.2,28.1,30.27,East,90,3.6,4.5,13,0.00,,,0.00,VWS V14.01,2013-04-26 16:11:00,
2013-04-26 12:12:00,84.2,28.1,30.27,ESE,112,3.4,3.6,13,0.00,,,0.00,VWS V14.01,2013-04-26 16:12:00,
2013-04-26 12:13:00,84.4,28.2,30.24,ESE,112,2.7,3.8,13,0.00,,,0.00,VWS V14.01,2013-04-26 16:13:00,
2013-04-26 12:14:00,84.2,28.1,30.24,SSE,158,4.0,5.8,13,0.00,,,0.00,VWS V14.01,2013-04-26 16:14:00,
2013-04-26 12:15:00,87.1,26.3,30.27,SSE,158,4.0,4.0,11,0.00,,,0.00,VWS V14.01,2013-04-26 16:15:00,
2013-04-26 12:16:00,84.2,28.1,30.24,ESE,112,2.9,2.9,13,0.00,,,0.00,VWS V14.01,2013-04-26 16:16:00,
2013-04-26 12:17:00,84.2,28.1,30.24,ESE,112,3.4,3.8,13,0.00,,,0.00,VWS V14.01,2013-04-26 16:17:00,
2013-04-26 12:18:00,84.4,28.2,30.24,ESE,112,3.1,3.4,13,0.00,,,0.00,VWS V14.01,2013-04-26 16:18:00,
2013-04-26 12:19:00,84.4,28.2,30.24,ESE,112,3.4,3.8,13,0.00,,,0.00,VWS V14.01,2013-04-26 16:19:00,
2013-04-26 12:20:00,86.7,26.0,30.27,SE,135,6.5,6.5,11,0.00,,,0.00,VWS V14.01,2013-04-26 16:20:00,
2013-04-26 12:21:00,84.7,24.5,30.24,SSE,158,3.1,4.7,11,0.00,,,0.00,VWS V14.01,2013-04-26 16:21:00,
2013-04-26 12:22:00,84.7,24.5,30.24,ESE,112,4.3,4.5,11,0.00,,,0.00,VWS V14.01,2013-04-26 16:22:00,
2013-04-26 12:23:00,84.9,24.6,30.24,ESE,112,5.8,5.8,11,0.00,,,0.00,VWS V14.01,2013-04-26 16:23:00,
2013-04-26 12:24:00,84.9,24.6,30.24,SE,135,4.9,6.3,11,0.00,,,0.00,VWS V14.01,2013-04-26 16:24:00,
2013-04-26 12:25:00,86.5,25.9,30.27,SE,135,6.9,6.9,11,0.00,,,0.00,VWS V14.01,2013-04-26 16:25:00,
2013-04-26 12:26:00,84.9,24.6,30.24,SE,135,1.3,4.7,11,0.00,,,0.00,VWS V14.01,2013-04-26 16:26:00,
2013-04-26 12:27:00,84.9,24.6,30.24,SE,135,2.2,2.2,11,0.00,,,0.00,VWS V14.01,2013-04-26 16:27:00,
2013-04-26 12:28:00,85.3,24.9,30.27,South,180,4.3,4.7,11,0.00,,,0.00,VWS V14.01,2013-04-26 16:28:00,
2013-04-26 12:30:00,87.1,26.3,30.27,South,180,7.4,7.4,11,0.00,,,0.00,VWS V14.01,2013-04-26 16:30:00,
2013-04-26 12:31:00,85.1,24.7,30.27,SE,135,4.3,4.3,11,0.00,,,0.00,VWS V14.01,2013-04-26 16:31:00,
2013-04-26 12:32:00,84.9,24.6,30.27,ESE,112,3.4,5.8,11,0.00,,,0.00,VWS V14.01,2013-04-26 16:32:00,
2013-04-26 12:33:00,84.9,24.6,30.27,SE,135,4.3,4.3,11,0.00,,,0.00,VWS V14.01,2013-04-26 16:33:00,
2013-04-26 12:34:00,84.9,24.6,30.27,SSE,158,4.0,4.9,11,0.00,,,0.00,VWS V14.01,2013-04-26 16:34:00,
2013-04-26 12:35:00,87.4,26.5,30.27,SE,135,6.5,6.5,11,0.00,,,0.00,VWS V14.01,2013-04-26 16:35:00,
2013-04-26 12:36:00,84.7,24.5,30.27,SW,225,1.3,2.0,11,0.00,,,0.00,VWS V14.01,2013-04-26 16:36:00,
2013-04-26 12:37:00,84.7,24.5,30.27,SW,225,1.1,4.0,11,0.00,,,0.00,VWS V14.01,2013-04-26 16:37:00,
2013-04-26 12:38:00,85.1,24.7,30.27,SSW,202,2.7,2.7,11,0.00,,,0.00,VWS V14.01,2013-04-26 16:38:00,
2013-04-26 12:39:00,85.5,25.0,30.27,SSW,202,2.7,2.7,11,0.00,,,0.00,VWS V14.01,2013-04-26 16:39:00,
2013-04-26 12:40:00,87.1,26.3,30.24,SE,135,4.0,6.7,11,0.00,,,0.00,VWS V14.01,2013-04-26 16:40:00,
2013-04-26 12:41:00,85.8,25.3,30.27,SSE,158,2.7,3.4,11,0.00,,,0.00,VWS V14.01,2013-04-26 16:41:00,
2013-04-26 12:42:00,85.8,25.3,30.27,ESE,112,2.9,2.9,11,0.00,,,0.00,VWS V14.01,2013-04-26 16:42:00,
2013-04-26 12:43:00,85.8,25.3,30.27,SSE,158,3.4,4.9,11,0.00,,,0.00,VWS V14.01,2013-04-26 16:43:00,
2013-04-26 12:44:00,86.2,25.6,30.27,South,180,3.4,4.7,11,0.00,,,0.00,VWS V14.01,2013-04-26 16:44:00,
2013-04-26 12:45:00,87.1,26.3,30.24,SE,135,6.0,6.0,11,0.00,,,0.00,VWS V14.01,2013-04-26 16:45:00,
2013-04-26 12:46:00,86.4,25.7,30.27,ESE,112,4.3,5.4,11,0.00,,,0.00,VWS V14.01,2013-04-26 16:46:00,
2013-04-26 12:47:00,86.2,25.6,30.27,ESE,112,4.9,6.3,11,0.00,,,0.00,VWS V14.01,2013-04-26 16:47:00,
2013-04-26 12:48:00,86.0,25.4,30.27,ENE,68,4.9,5.4,11,0.00,,,0.00,VWS V14.01,2013-04-26 16:48:00,
2013-04-26 12:49:00,86.2,25.6,30.27,SE,135,3.1,4.9,11,0.00,,,0.00,VWS V14.01,2013-04-26 16:49:00,
2013-04-26 12:50:00,87.1,26.3,30.24,SSE,158,6.5,7.2,11,0.00,,,0.00,VWS V14.01,2013-04-26 16:50:00,
2013-04-26 12:51:00,86.4,25.7,30.27,SE,135,6.0,6.0,11,0.00,,,0.00,VWS V14.01,2013-04-26 16:51:00,
2013-04-26 12:52:00,86.4,25.7,30.27,SE,135,4.0,6.0,11,0.00,,,0.00,VWS V14.01,2013-04-26 16:52:00,
2013-04-26 12:53:00,86.4,25.7,30.27,SSW,202,2.9,4.3,11,0.00,,,0.00,VWS V14.01,2013-04-26 16:53:00,
2013-04-26 12:54:00,86.4,25.7,30.27,ESE,112,5.6,5.6,11,0.00,,,0.00,VWS V14.01,2013-04-26 16:54:00,
2013-04-26 12:55:00,87.3,26.4,30.27,South,180,5.6,5.8,11,0.00,,,0.00,VWS V14.01,2013-04-26 16:55:00,
2013-04-26 12:56:00,86.5,25.9,30.27,SSW,202,6.3,6.3,11,0.00,,,0.00,VWS V14.01,2013-04-26 16:56:00,
2013-04-26 12:57:00,86.5,25.9,30.27,SSE,158,4.9,6.3,11,0.00,,,0.00,VWS V14.01,2013-04-26 16:57:00,
2013-04-26 12:58:00,86.5,25.9,30.27,SSE,158,5.8,5.8,11,0.00,,,0.00,VWS V14.01,2013-04-26 16:58:00,
2013-04-26 12:59:00,85.8,25.3,30.27,South,180,5.4,6.5,11,0.00,,,0.00,VWS V14.01,2013-04-26 16:59:00,
2013-04-26 13:00:00,86.7,26.0,30.27,ESE,112,6.5,6.5,11,0.00,,,0.00,VWS V14.01,2013-04-26 17:00:00,
2013-04-26 13:01:00,85.5,25.0,30.27,SE,135,2.7,5.6,11,0.00,,,0.00,VWS V14.01,2013-04-26 17:01:00,
2013-04-26 13:02:00,85.6,25.2,30.27,SE,135,2.9,5.6,11,0.00,,,0.00,VWS V14.01,2013-04-26 17:02:00,
2013-04-26 13:03:00,85.6,25.2,30.27,ESE,112,2.5,3.4,11,0.00,,,0.00,VWS V14.01,2013-04-26 17:03:00,
2013-04-26 13:05:00,86.7,26.0,30.27,SE,135,5.4,7.2,11,0.00,,,0.00,VWS V14.01,2013-04-26 17:05:00,
2013-04-26 13:06:00,86.0,25.4,30.27,SSE,158,3.4,7.2,11,0.00,,,0.00,VWS V14.01,2013-04-26 17:06:00,
2013-04-26 13:07:00,85.5,25.0,30.27,SSE,158,2.9,4.0,11,0.00,,,0.00,VWS V14.01,2013-04-26 17:07:00,
2013-04-26 13:08:00,85.5,25.0,30.27,South,180,3.4,3.4,11,0.00,,,0.00,VWS V14.01,2013-04-26 17:08:00,
2013-04-26 13:09:00,85.8,25.3,30.27,WSW,248,2.9,3.4,11,0.00,,,0.00,VWS V14.01,2013-04-26 17:09:00,
2013-04-26 13:10:00,86.7,26.0,30.27,SSE,158,5.8,6.5,11,0.00,,,0.00,VWS V14.01,2013-04-26 17:10:00,
2013-04-26 13:11:00,85.8,25.3,30.27,SSE,158,6.3,6.3,11,0.00,,,0.00,VWS V14.01,2013-04-26 17:11:00,
2013-04-26 13:12:00,85.6,25.2,30.27,SSE,158,2.5,8.1,11,0.00,,,0.00,VWS V14.01,2013-04-26 17:12:00,
2013-04-26 13:13:00,85.5,25.0,30.27,SSE,158,7.4,7.4,11,0.00,,,0.00,VWS V14.01,2013-04-26 17:13:00,
2013-04-26 13:14:00,85.5,25.0,30.27,SW,225,2.9,7.4,11,0.00,,,0.00,VWS V14.01,2013-04-26 17:14:00,
2013-04-26 13:15:00,86.4,25.7,30.27,SSE,158,7.8,10.1,11,0.00,,,0.00,VWS V14.01,2013-04-26 17:15:00,
2013-04-26 13:17:00,86.0,25.4,30.27,SSE,158,4.9,5.6,11,0.00,,,0.00,VWS V14.01,2013-04-26 17:17:00,
2013-04-26 13:18:00,86.0,25.4,30.27,SE,135,3.1,6.0,11,0.00,,,0.00,VWS V14.01,2013-04-26 17:18:00,
2013-04-26 13:19:00,86.0,25.4,30.27,SSE,158,4.0,4.0,11,0.00,,,0.00,VWS V14.01,2013-04-26 17:19:00,
2013-04-26 13:20:00,85.6,25.2,30.27,SSE,158,6.0,7.6,11,0.00,,,0.00,VWS V14.01,2013-04-26 17:20:00,
2013-04-26 13:21:00,86.0,25.4,30.27,SSE,158,3.8,5.6,11,0.00,,,0.00,VWS V14.01,2013-04-26 17:21:00,
2013-04-26 13:22:00,85.8,25.3,30.27,SE,135,7.4,7.4,11,0.00,,,0.00,VWS V14.01,2013-04-26 17:22:00,
2013-04-26 13:23:00,85.8,25.3,30.27,SSW,202,5.4,7.4,11,0.00,,,0.00,VWS V14.01,2013-04-26 17:23:00,
2013-04-26 13:25:00,86.4,25.7,30.24,SSE,158,5.6,5.6,11,0.00,,,0.00,VWS V14.01,2013-04-26 17:25:00,
2013-04-26 13:26:00,85.8,25.3,30.27,SSE,158,2.7,4.3,11,0.00,,,0.00,VWS V14.01,2013-04-26 17:26:00,
2013-04-26 13:27:00,85.8,25.3,30.27,South,180,4.9,4.9,11,0.00,,,0.00,VWS V14.01,2013-04-26 17:27:00,
2013-04-26 13:28:00,85.3,24.9,30.27,SE,135,4.0,4.9,11,0.00,,,0.00,VWS V14.01,2013-04-26 17:28:00,
2013-04-26 13:29:00,85.3,24.9,30.27,South,180,4.3,4.3,11,0.00,,,0.00,VWS V14.01,2013-04-26 17:29:00,
2013-04-26 13:30:00,86.5,25.9,30.24,South,180,4.9,4.9,11,0.00,,,0.00,VWS V14.01,2013-04-26 17:30:00,
2013-04-26 13:31:00,85.5,25.0,30.27,SSE,158,5.8,5.8,11,0.00,,,0.00,VWS V14.01,2013-04-26 17:31:00,
2013-04-26 13:32:00,85.6,25.2,30.27,SSW,202,2.7,5.8,11,0.00,,,0.00,VWS V14.01,2013-04-26 17:32:00,
2013-04-26 13:33:00,85.6,25.2,30.27,SSE,158,4.0,4.0,11,0.00,,,0.00,VWS V14.01,2013-04-26 17:33:00,
2013-04-26 13:34:00,85.6,25.2,30.27,ESE,112,3.1,6.0,11,0.00,,,0.00,VWS V14.01,2013-04-26 17:34:00,
2013-04-26 13:35:00,87.4,26.5,30.24,SE,135,6.3,7.4,11,0.00,,,0.00,VWS V14.01,2013-04-26 17:35:00,
2013-04-26 13:36:00,86.2,25.6,30.27,ESE,112,4.3,6.3,11,0.00,,,0.00,VWS V14.01,2013-04-26 17:36:00,
2013-04-26 13:37:00,86.4,25.7,30.27,South,180,4.9,5.8,11,0.00,,,0.00,VWS V14.01,2013-04-26 17:37:00,
2013-04-26 13:38:00,86.5,25.9,30.27,SSW,202,2.7,4.9,11,0.00,,,0.00,VWS V14.01,2013-04-26 17:38:00,
2013-04-26 13:39:00,86.5,25.9,30.27,South,180,3.4,4.5,11,0.00,,,0.00,VWS V14.01,2013-04-26 17:39:00,
2013-04-26 13:40:00,87.8,24.5,30.27,SSE,158,2.5,8.1,10,0.00,,,0.00,VWS V14.01,2013-04-26 17:40:00,
2013-04-26 13:41:00,86.7,26.0,30.27,SSW,202,2.7,5.6,11,0.00,,,0.00,VWS V14.01,2013-04-26 17:41:00,
2013-04-26 13:42:00,86.7,26.0,30.27,SSW,202,2.7,2.7,11,0.00,,,0.00,VWS V14.01,2013-04-26 17:42:00,
2013-04-26 13:43:00,86.7,26.0,30.27,WSW,248,2.9,3.4,11,0.00,,,0.00,VWS V14.01,2013-04-26 17:43:00,
2013-04-26 13:44:00,86.9,26.1,30.27,SSE,158,4.0,4.0,11,0.00,,,0.00,VWS V14.01,2013-04-26 17:44:00,
2013-04-26 13:45:00,89.1,25.5,30.27,ESE,112,7.4,7.4,10,0.00,,,0.00,VWS V14.01,2013-04-26 17:45:00,
2013-04-26 13:46:00,87.1,26.3,30.27,SE,135,5.8,5.8,11,0.00,,,0.00,VWS V14.01,2013-04-26 17:46:00,
2013-04-26 13:47:00,87.3,26.4,30.27,South,180,4.9,5.8,11,0.00,,,0.00,VWS V14.01,2013-04-26 17:47:00,
2013-04-26 13:48:00,87.1,26.3,30.27,SW,225,4.0,6.3,11,0.00,,,0.00,VWS V14.01,2013-04-26 17:48:00,
2013-04-26 13:49:00,87.1,26.3,30.27,SSE,158,4.0,4.0,11,0.00,,,0.00,VWS V14.01,2013-04-26 17:49:00,
2013-04-26 13:50:00,89.6,25.9,30.27,SSE,158,5.4,7.6,10,0.00,,,0.00,VWS V14.01,2013-04-26 17:50:00,
2013-04-26 13:51:00,87.1,26.3,30.27,SSE,158,3.4,6.5,11,0.00,,,0.00,VWS V14.01,2013-04-26 17:51:00,
2013-04-26 13:52:00,86.9,26.1,30.27,SSE,158,4.9,8.1,11,0.00,,,0.00,VWS V14.01,2013-04-26 17:52:00,
2013-04-26 13:53:00,86.7,26.0,30.27,SSE,158,5.6,6.0,11,0.00,,,0.00,VWS V14.01,2013-04-26 17:53:00,
2013-04-26 13:54:00,86.7,26.0,30.27,SSE,158,5.8,5.8,11,0.00,,,0.00,VWS V14.01,2013-04-26 17:54:00,
2013-04-26 13:55:00,89.2,25.6,30.24,SE,135,2.9,4.7,10,0.00,,,0.00,VWS V14.01,2013-04-26 17:55:00,
2013-04-26 13:56:00,86.7,26.0,30.27,SSE,158,3.8,6.5,11,0.00,,,0.00,VWS V14.01,2013-04-26 17:56:00,
2013-04-26 13:57:00,86.5,25.9,30.27,SSE,158,4.7,6.0,11,0.00,,,0.00,VWS V14.01,2013-04-26 17:57:00,
2013-04-26 13:58:00,86.5,25.9,30.27,SSE,158,4.7,4.7,11,0.00,,,0.00,VWS V14.01,2013-04-26 17:58:00,
2013-04-26 14:00:00,90.5,26.6,30.24,SSE,158,4.0,7.4,10,0.00,,,0.00,VWS V14.01,2013-04-26 18:00:00,
2013-04-26 14:01:00,87.1,26.3,30.27,SSE,158,6.0,6.9,11,0.00,,,0.00,VWS V14.01,2013-04-26 18:01:00,
2013-04-26 14:02:00,87.1,26.3,30.27,SE,135,6.3,6.3,11,0.00,,,0.00,VWS V14.01,2013-04-26 18:02:00,
2013-04-26 14:03:00,87.1,26.3,30.27,SSW,202,2.5,6.3,11,0.00,,,0.00,VWS V14.01,2013-04-26 18:03:00,
2013-04-26 14:04:00,87.1,26.3,30.27,South,180,7.4,7.4,11,0.00,,,0.00,VWS V14.01,2013-04-26 18:04:00,
2013-04-26 14:05:00,90.0,26.2,30.24,ESE,112,7.6,7.6,10,0.00,,,0.00,VWS V14.01,2013-04-26 18:05:00,
2013-04-26 14:06:00,87.1,26.3,30.27,South,180,3.8,5.6,11,0.00,,,0.00,VWS V14.01,2013-04-26 18:06:00,
2013-04-26 14:08:00,87.4,26.5,30.27,SW,225,4.5,4.5,11,0.00,,,0.00,VWS V14.01,2013-04-26 18:08:00,
2013-04-26 14:09:00,87.4,26.5,30.27,SE,135,3.6,5.6,11,0.00,,,0.00,VWS V14.01,2013-04-26 18:09:00,
2013-04-26 14:10:00,89.2,25.6,30.24,SSE,158,4.0,7.2,10,0.00,,,0.00,VWS V14.01,2013-04-26 18:10:00,
2013-04-26 14:11:00,87.4,26.5,30.27,SE,135,5.4,7.8,11,0.00,,,0.00,VWS V14.01,2013-04-26 18:11:00,
2013-04-26 14:12:00,87.4,26.5,30.27,SSE,158,2.9,6.0,11,0.00,,,0.00,VWS V14.01,2013-04-26 18:12:00,
2013-04-26 14:13:00,87.4,26.5,30.27,SE,135,3.8,8.7,11,0.00,,,0.00,VWS V14.01,2013-04-26 18:13:00,
2013-04-26 14:14:00,87.1,26.3,30.24,SE,135,6.7,6.7,11,0.00,,,0.00,VWS V14.01,2013-04-26 18:14:00,
2013-04-26 14:15:00,90.5,26.6,30.24,SSE,158,4.3,4.3,10,0.00,,,0.00,VWS V14.01,2013-04-26 18:15:00,
2013-04-26 14:16:00,87.1,26.3,30.24,SSE,158,7.8,7.8,11,0.00,,,0.00,VWS V14.01,2013-04-26 18:16:00,
2013-04-26 14:17:00,87.1,26.3,30.24,SSE,158,5.6,7.8,11,0.00,,,0.00,VWS V14.01,2013-04-26 18:17:00,
2013-04-26 14:18:00,87.1,26.3,30.24,South,180,4.0,7.2,11,0.00,,,0.00,VWS V14.01,2013-04-26 18:18:00,
2013-04-26 14:19:00,87.1,26.3,30.24,SSE,158,5.8,5.8,11,0.00,,,0.00,VWS V14.01,2013-04-26 18:19:00,
2013-04-26 14:20:00,88.7,25.2,30.24,South,180,4.3,4.3,10,0.00,,,0.00,VWS V14.01,2013-04-26 18:20:00,
2013-04-26 14:21:00,87.1,26.3,30.24,SE,135,6.7,9.0,11,0.00,,,0.00,VWS V14.01,2013-04-26 18:21:00,
2013-04-26 14:22:00,86.9,26.1,30.24,South,180,6.0,7.2,11,0.00,,,0.00,VWS V14.01,2013-04-26 18:22:00,
2013-04-26 14:23:00,87.1,26.3,30.24,SSE,158,4.3,7.2,11,0.00,,,0.00,VWS V14.01,2013-04-26 18:23:00,
2013-04-26 14:24:00,87.1,26.3,30.24,South,180,3.8,4.3,11,0.00,,,0.00,VWS V14.01,2013-04-26 18:24:00,
2013-04-26 14:25:00,87.8,24.5,30.24,SSE,158,5.6,6.7,10,0.00,,,0.00,VWS V14.01,2013-04-26 18:25:00,
2013-04-26 14:26:00,87.1,26.3,30.24,South,180,4.3,7.4,11,0.00,,,0.00,VWS V14.01,2013-04-26 18:26:00,
2013-04-26 14:27:00,87.1,26.3,30.24,SSE,158,6.0,6.5,11,0.00,,,0.00,VWS V14.01,2013-04-26 18:27:00,
2013-04-26 14:28:00,87.1,26.3,30.27,SSE,158,7.4,7.4,11,0.00,,,0.00,VWS V14.01,2013-04-26 18:28:00,
2013-04-26 14:29:00,87.1,26.3,30.27,SSE,158,5.8,7.4,11,0.00,,,0.00,VWS V14.01,2013-04-26 18:29:00,
2013-04-26 14:30:00,89.2,25.6,30.24,SSE,158,2.5,6.3,10,0.00,,,0.00,VWS V14.01,2013-04-26 18:30:00,
2013-04-26 14:31:00,87.3,26.4,30.27,SE,135,6.5,6.5,11,0.00,,,0.00,VWS V14.01,2013-04-26 18:31:00,
2013-04-26 14:32:00,87.3,26.4,30.27,SE,135,6.5,6.5,11,0.00,,,0.00,VWS V14.01,2013-04-26 18:32:00,
2013-04-26 14:33:00,87.4,26.5,30.27,South,180,6.0,6.5,11,0.00,,,0.00,VWS V14.01,2013-04-26 18:33:00,
2013-04-26 14:34:00,87.1,26.3,30.27,SSE,158,6.3,8.5,11,0.00,,,0.00,VWS V14.01,2013-04-26 18:34:00,
2013-04-26 14:35:00,88.3,24.9,30.24,SE,135,7.8,7.8,10,0.00,,,0.00,VWS V14.01,2013-04-26 18:35:00,
2013-04-26 14:36:00,86.7,26.0,30.27,South,180,4.3,7.8,11,0.00,,,0.00,VWS V14.01,2013-04-26 18:36:00,
2013-04-26 14:37:00,86.2,25.6,30.27,ESE,112,6.5,7.4,11,0.00,,,0.00,VWS V14.01,2013-04-26 18:37:00,
2013-04-26 14:38:00,86.2,25.6,30.27,ESE,112,6.0,6.5,11,0.00,,,0.00,VWS V14.01,2013-04-26 18:38:00,
2013-04-26 14:39:00,86.5,25.9,30.27,SE,135,4.3,6.5,11,0.00,,,0.00,VWS V14.01,2013-04-26 18:39:00,
2013-04-26 14:40:00,87.6,26.7,30.24,South,180,2.5,2.5,11,0.00,,,0.00,VWS V14.01,2013-04-26 18:40:00,
2013-04-26 14:41:00,86.5,25.9,30.27,SSE,158,6.3,7.2,11,0.00,,,0.00,VWS V14.01,2013-04-26 18:41:00,
2013-04-26 14:42:00,86.2,25.6,30.27,SE,135,6.5,10.5,11,0.00,,,0.00,VWS V14.01,2013-04-26 18:42:00,
2013-04-26 14:43:00,86.2,25.6,30.27,SE,135,5.6,7.8,11,0.00,,,0.00,VWS V14.01,2013-04-26 18:43:00,
2013-04-26 14:44:00,86.4,25.7,30.27,SE,135,4.9,7.8,11,0.00,,,0.00,VWS V14.01,2013-04-26 18:44:00,
2013-04-26 14:45:00,88.7,25.2,30.24,SSE,158,5.6,5.6,10,0.00,,,0.00,VWS V14.01,2013-04-26 18:45:00,
2013-04-26 14:46:00,86.9,26.1,30.27,SSE,158,9.8,9.8,11,0.00,,,0.00,VWS V14.01,2013-04-26 18:46:00,
2013-04-26 14:47:00,86.9,26.1,30.27,SSE,158,9.8,9.8,11,0.00,,,0.00,VWS V14.01,2013-04-26 18:47:00,
2013-04-26 14:48:00,86.4,25.7,30.27,SSE,158,6.5,9.8,11,0.00,,,0.00,VWS V14.01,2013-04-26 18:48:00,
2013-04-26 14:49:00,86.5,25.9,30.27,SE,135,10.1,10.1,11,0.00,,,0.00,VWS V14.01,2013-04-26 18:49:00,
2013-04-26 14:50:00,89.6,25.9,30.24,SW,225,2.0,2.5,10,0.00,,,0.00,VWS V14.01,2013-04-26 18:50:00,
2013-04-26 14:51:00,86.4,25.7,30.27,SE,135,8.7,8.7,11,0.00,,,0.00,VWS V14.01,2013-04-26 18:51:00,
2013-04-26 14:52:00,85.8,25.3,30.27,SE,135,5.4,8.7,11,0.00,,,0.00,VWS V14.01,2013-04-26 18:52:00,
2013-04-26 14:53:00,85.8,25.3,30.27,South,180,3.8,5.8,11,0.00,,,0.00,VWS V14.01,2013-04-26 18:53:00,
2013-04-26 14:54:00,85.6,25.2,30.27,SE,135,7.6,7.6,11,0.00,,,0.00,VWS V14.01,2013-04-26 18:54:00,
2013-04-26 14:55:00,88.3,24.9,30.24,West,270,4.9,4.9,10,0.00,,,0.00,VWS V14.01,2013-04-26 18:55:00,
2013-04-26 14:56:00,85.8,25.3,30.27,SSE,158,7.8,10.3,11,0.00,,,0.00,VWS V14.01,2013-04-26 18:56:00,
2013-04-26 14:57:00,85.8,25.3,30.27,SSE,158,5.6,7.8,11,0.00,,,0.00,VWS V14.01,2013-04-26 18:57:00,
2013-04-26 14:58:00,86.2,25.6,30.24,SSE,158,4.3,6.0,11,0.00,,,0.00,VWS V14.01,2013-04-26 18:58:00,
2013-04-26 14:59:00,86.2,25.6,30.24,South,180,5.4,8.1,11,0.00,,,0.00,VWS V14.01,2013-04-26 18:59:00,
2013-04-26 15:00:00,89.2,25.6,30.24,SSW,202,1.6,2.5,10,0.00,,,0.00,VWS V14.01,2013-04-26 19:00:00,
2013-04-26 15:01:00,86.0,25.4,30.24,SSE,158,5.8,8.5,11,0.00,,,0.00,VWS V14.01,2013-04-26 19:01:00,
2013-04-26 15:02:00,86.4,25.7,30.24,South,180,4.9,6.5,11,0.00,,,0.00,VWS V14.01,2013-04-26 19:02:00,
2013-04-26 15:03:00,86.5,25.9,30.24,SSE,158,4.7,4.9,11,0.00,,,0.00,VWS V14.01,2013-04-26 19:03:00,
2013-04-26 15:04:00,86.5,25.9,30.24,SE,135,4.0,4.7,11,0.00,,,0.00,VWS V14.01,2013-04-26 19:04:00,
2013-04-26 15:05:00,89.1,25.5,30.24,NNE,22,5.6,5.6,10,0.00,,,0.00,VWS V14.01,2013-04-26 19:05:00,
2013-04-26 15:06:00,87.4,26.5,30.24,SE,135,7.4,7.6,11,0.00,,,0.00,VWS V14.01,2013-04-26 19:06:00,
2013-04-26 15:07:00,87.4,26.5,30.24,SSE,158,11.0,11.0,11,0.00,,,0.00,VWS V14.01,2013-04-26 19:07:00,
2013-04-26 15:08:00,87.3,26.4,30.24,SSE,158,7.4,11.0,11,0.00,,,0.00,VWS V14.01,2013-04-26 19:08:00,
2013-04-26 15:10:00,88.5,25.1,30.21,WNW,292,5.6,5.6,10,0.00,,,0.00,VWS V14.01,2013-04-26 19:10:00,
2013-04-26 15:11:00,87.8,24.5,30.24,SSE,158,5.6,6.3,10,0.00,,,0.00,VWS V14.01,2013-04-26 19:11:00,
2013-04-26 15:12:00,87.8,24.5,30.24,South,180,4.7,7.8,10,0.00,,,0.00,VWS V14.01,2013-04-26 19:12:00,
2013-04-26 15:13:00,87.8,24.5,30.27,SE,135,6.5,6.5,10,0.00,,,0.00,VWS V14.01,2013-04-26 19:13:00,
2013-04-26 15:14:00,87.8,24.5,30.27,SE,135,8.1,8.1,10,0.00,,,0.00,VWS V14.01,2013-04-26 19:14:00,
2013-04-26 15:15:00,87.4,26.5,30.21,West,270,8.7,8.7,11,0.00,,,0.00,VWS V14.01,2013-04-26 19:15:00,
2013-04-26 15:16:00,88.2,24.8,30.27,SE,135,6.0,7.4,10,0.00,,,0.00,VWS V14.01,2013-04-26 19:16:00,
2013-04-26 15:17:00,88.2,24.8,30.27,SSE,158,5.8,10.3,10,0.00,,,0.00,VWS V14.01,2013-04-26 19:17:00,
2013-04-26 15:18:00,88.2,24.8,30.27,South,180,6.3,6.3,10,0.00,,,0.00,VWS V14.01,2013-04-26 19:18:00,
2013-04-26 15:19:00,88.7,25.2,30.27,SSE,158,3.1,6.3,10,0.00,,,0.00,VWS V14.01,2013-04-26 19:19:00,
2013-04-26 15:20:00,89.1,25.5,30.27,SE,135,7.8,7.8,10,0.00,,,0.00,VWS V14.01,2013-04-26 19:20:00,
2013-04-26 15:21:00,86.2,25.6,30.21,NNW,338,3.1,3.1,11,0.00,,,0.00,VWS V14.01,2013-04-26 19:21:00,
2013-04-26 15:22:00,89.6,25.9,30.27,SE,135,6.0,6.3,10,0.00,,,0.00,VWS V14.01,2013-04-26 19:22:00,
2013-04-26 15:23:00,89.8,26.0,30.27,SE,135,5.6,7.2,10,0.00,,,0.00,VWS V14.01,2013-04-26 19:23:00,
2013-04-26 15:24:00,89.6,25.9,30.27,SE,135,4.9,6.0,10,0.00,,,0.00,VWS V14.01,2013-04-26 19:24:00,
2013-04-26 15:25:00,89.6,25.9,30.27,SSE,158,5.4,7.6,10,0.00,,,0.00,VWS V14.01,2013-04-26 19:25:00,
2013-04-26 15:26:00,86.2,29.6,30.21,WNW,292,4.0,4.9,13,0.00,,,0.00,VWS V14.01,2013-04-26 19:26:00,
2013-04-26 15:27:00,89.4,25.8,30.27,SE,135,5.8,5.8,10,0.00,,,0.00,VWS V14.01,2013-04-26 19:27:00,
2013-04-26 15:28:00,89.2,25.6,30.24,SE,135,7.2,7.2,10,0.00,,,0.00,VWS V14.01,2013-04-26 19:28:00,
2013-04-26 15:29:00,89.2,25.6,30.24,South,180,4.7,7.2,10,0.00,,,0.00,VWS V14.01,2013-04-26 19:29:00,
2013-04-26 15:30:00,89.2,25.6,30.24,SE,135,2.9,4.7,10,0.00,,,0.00,VWS V14.01,2013-04-26 19:30:00,
2013-04-26 15:31:00,86.9,30.2,30.21,West,270,4.0,4.0,13,0.00,,,0.00,VWS V14.01,2013-04-26 19:31:00,
2013-04-26 15:32:00,90.3,26.4,30.24,South,180,4.3,7.6,10,0.00,,,0.00,VWS V14.01,2013-04-26 19:32:00,
2013-04-26 15:33:00,90.5,26.6,30.24,SE,135,4.7,6.0,10,0.00,,,0.00,VWS V14.01,2013-04-26 19:33:00,
2013-04-26 15:34:00,90.5,26.6,30.24,SSE,158,5.4,6.5,10,0.00,,,0.00,VWS V14.01,2013-04-26 19:34:00,
2013-04-26 15:35:00,90.5,26.6,30.24,SSE,158,4.0,7.4,10,0.00,,,0.00,VWS V14.01,2013-04-26 19:35:00,
2013-04-26 15:36:00,87.6,26.7,30.21,NNW,338,6.3,6.5,11,0.00,,,0.00,VWS V14.01,2013-04-26 19:36:00,
2013-04-26 15:37:00,90.3,26.4,30.24,SSE,158,5.8,7.8,10,0.00,,,0.00,VWS V14.01,2013-04-26 19:37:00,
2013-04-26 15:38:00,90.7,26.7,30.24,SE,135,5.4,5.8,10,0.00,,,0.00,VWS V14.01,2013-04-26 19:38:00,
2013-04-26 15:39:00,90.3,26.4,30.24,South,180,5.8,5.8,10,0.00,,,0.00,VWS V14.01,2013-04-26 19:39:00,
2013-04-26 15:40:00,90.0,26.2,30.24,SE,135,7.4,7.6,10,0.00,,,0.00,VWS V14.01,2013-04-26 19:40:00,
2013-04-26 15:41:00,87.6,26.7,30.18,West,270,4.0,6.5,11,0.00,,,0.00,VWS V14.01,2013-04-26 19:41:00,
2013-04-26 15:42:00,89.2,25.6,30.24,South,180,4.3,7.4,10,0.00,,,0.00,VWS V14.01,2013-04-26 19:42:00,
2013-04-26 15:43:00,89.1,25.5,30.24,South,180,3.4,5.6,10,0.00,,,0.00,VWS V14.01,2013-04-26 19:43:00,
2013-04-26 15:44:00,89.2,25.6,30.24,SE,135,5.4,5.4,10,0.00,,,0.00,VWS V14.01,2013-04-26 19:44:00,
2013-04-26 15:45:00,89.6,25.9,30.24,SSE,158,4.0,7.2,10,0.00,,,0.00,VWS V14.01,2013-04-26 19:45:00,
2013-04-26 15:46:00,87.1,26.3,30.18,West,270,5.4,8.1,11,0.00,,,0.00,VWS V14.01,2013-04-26 19:46:00,
2013-04-26 15:47:00,90.1,26.3,30.24,SW,225,6.5,7.6,10,0.00,,,0.00,VWS V14.01,2013-04-26 19:47:00,
2013-04-26 15:48:00,90.7,26.7,30.24,SSE,158,7.8,9.0,10,0.00,,,0.00,VWS V14.01,2013-04-26 19:48:00,
2013-04-26 15:49:00,90.7,26.7,30.24,SSE,158,4.3,7.8,10,0.00,,,0.00,VWS V14.01,2013-04-26 19:49:00,
2013-04-26 15:50:00,90.5,26.6,30.24,SSE,158,4.3,4.3,10,0.00,,,0.00,VWS V14.01,2013-04-26 19:50:00,
2013-04-26 15:51:00,87.1,26.3,30.18,WNW,292,6.0,6.0,11,0.00,,,0.00,VWS V14.01,2013-04-26 19:51:00,
2013-04-26 15:52:00,89.4,25.8,30.24,SSE,158,4.3,6.3,10,0.00,,,0.00,VWS V14.01,2013-04-26 19:52:00,
2013-04-26 15:53:00,89.1,25.5,30.24,ESE,112,6.7,6.7,10,0.00,,,0.00,VWS V14.01,2013-04-26 19:53:00,
2013-04-26 15:54:00,89.1,25.5,30.24,SE,135,6.0,6.7,10,0.00,,,0.00,VWS V14.01,2013-04-26 19:54:00,
2013-04-26 15:55:00,88.7,25.2,30.24,South,180,4.3,6.0,10,0.00,,,0.00,VWS V14.01,2013-04-26 19:55:00,
2013-04-26 15:56:00,87.6,26.7,30.18,WNW,292,6.0,6.0,11,0.00,,,0.00,VWS V14.01,2013-04-26 19:56:00,
2013-04-26 15:57:00,88.5,25.1,30.24,SSW,202,1.6,4.9,10,0.00,,,0.00,VWS V14.01,2013-04-26 19:57:00,
2013-04-26 15:59:00,88.2,24.8,30.24,SSE,158,6.5,6.5,10,0.00,,,0.00,VWS V14.01,2013-04-26 19:59:00,
2013-04-26 16:00:00,88.2,24.8,30.24,South,180,6.0,6.7,10,0.00,,,0.00,VWS V14.01,2013-04-26 20:00:00,
2013-04-26 16:01:00,87.4,26.5,30.18,SW,225,4.5,5.8,11,0.00,,,0.00,VWS V14.01,2013-04-26 20:01:00,
2013-04-26 16:02:00,88.5,25.1,30.24,SSE,158,4.0,5.8,10,0.00,,,0.00,VWS V14.01,2013-04-26 20:02:00,
2013-04-26 16:03:00,88.5,25.1,30.24,South,180,8.7,8.7,10,0.00,,,0.00,VWS V14.01,2013-04-26 20:03:00,
2013-04-26 16:04:00,88.5,25.1,30.24,SE,135,6.3,8.7,10,0.00,,,0.00,VWS V14.01,2013-04-26 20:04:00,
2013-04-26 16:05:00,89.2,25.6,30.24,SSE,158,2.5,6.3,10,0.00,,,0.00,VWS V14.01,2013-04-26 20:05:00,
2013-04-26 16:06:00,87.6,26.7,30.18,West,270,3.6,5.4,11,0.00,,,0.00,VWS V14.01,2013-04-26 20:06:00,
2013-04-26 16:07:00,88.7,25.2,30.24,SE,135,4.9,7.6,10,0.00,,,0.00,VWS V14.01,2013-04-26 20:07:00,
2013-04-26 16:08:00,88.3,24.9,30.24,SSE,158,5.6,6.9,10,0.00,,,0.00,VWS V14.01,2013-04-26 20:08:00,
2013-04-26 16:10:00,88.3,24.9,30.24,SE,135,7.8,7.8,10,0.00,,,0.00,VWS V14.01,2013-04-26 20:10:00,
2013-04-26 16:11:00,87.6,26.7,30.21,West,270,5.4,6.0,11,0.00,,,0.00,VWS V14.01,2013-04-26 20:11:00,
2013-04-26 16:12:00,87.6,26.7,30.24,SE,135,5.8,7.6,11,0.00,,,0.00,VWS V14.01,2013-04-26 20:12:00,
2013-04-26 16:13:00,87.6,26.7,30.24,SE,135,6.5,6.5,11,0.00,,,0.00,VWS V14.01,2013-04-26 20:13:00,
2013-04-26 16:14:00,87.6,26.7,30.24,SE,135,7.4,7.4,11,0.00,,,0.00,VWS V14.01,2013-04-26 20:14:00,
2013-04-26 16:15:00,87.6,26.7,30.24,South,180,2.5,7.4,11,0.00,,,0.00,VWS V14.01,2013-04-26 20:15:00,
2013-04-26 16:16:00,88.0,24.7,30.21,WNW,292,3.4,4.9,10,0.00,,,0.00,VWS V14.01,2013-04-26 20:16:00,
2013-04-26 16:17:00,88.0,24.7,30.24,SE,135,7.6,8.1,10,0.00,,,0.00,VWS V14.01,2013-04-26 20:17:00,
2013-04-26 16:18:00,87.8,24.5,30.24,SE,135,5.6,7.6,10,0.00,,,0.00,VWS V14.01,2013-04-26 20:18:00,
2013-04-26 16:19:00,88.0,24.7,30.24,SSW,202,2.2,5.8,10,0.00,,,0.00,VWS V14.01,2013-04-26 20:19:00,
2013-04-26 16:20:00,88.7,25.2,30.24,SSE,158,5.6,5.6,10,0.00,,,0.00,VWS V14.01,2013-04-26 20:20:00,
2013-04-26 16:21:00,87.1,26.3,30.21,WSW,248,7.6,7.6,11,0.00,,,0.00,VWS V14.01,2013-04-26 20:21:00,
2013-04-26 16:22:00,89.2,25.6,30.24,South,180,2.0,3.6,10,0.00,,,0.00,VWS V14.01,2013-04-26 20:22:00,
2013-04-26 16:23:00,89.4,25.8,30.24,SW,225,2.2,3.6,10,0.00,,,0.00,VWS V14.01,2013-04-26 20:23:00,
2013-04-26 16:24:00,89.4,25.8,30.24,SW,225,2.0,2.7,10,0.00,,,0.00,VWS V14.01,2013-04-26 20:24:00,
2013-04-26 16:25:00,89.6,25.9,30.24,SW,225,2.0,2.5,10,0.00,,,0.00,VWS V14.01,2013-04-26 20:25:00,
2013-04-26 16:26:00,86.7,30.0,30.21,West,270,7.2,7.2,13,0.00,,,0.00,VWS V14.01,2013-04-26 20:26:00,
2013-04-26 16:27:00,89.4,25.8,30.24,WNW,292,2.0,3.8,10,0.00,,,0.00,VWS V14.01,2013-04-26 20:27:00,
2013-04-26 16:28:00,88.9,25.3,30.24,SSE,158,3.1,5.8,10,0.00,,,0.00,VWS V14.01,2013-04-26 20:28:00,
2013-04-26 16:29:00,88.9,25.3,30.24,West,270,2.9,4.0,10,0.00,,,0.00,VWS V14.01,2013-04-26 20:29:00,
2013-04-26 16:30:00,88.3,24.9,30.24,West,270,4.9,4.9,10,0.00,,,0.00,VWS V14.01,2013-04-26 20:30:00,
2013-04-26 16:31:00,86.4,29.8,30.21,WNW,292,7.6,7.6,13,0.00,,,0.00,VWS V14.01,2013-04-26 20:31:00,
2013-04-26 16:32:00,88.5,25.1,30.24,NW,315,2.0,2.5,10,0.00,,,0.00,VWS V14.01,2013-04-26 20:32:00,
2013-04-26 16:33:00,89.1,25.5,30.24,West,270,2.0,3.4,10,0.00,,,0.00,VWS V14.01,2013-04-26 20:33:00,
2013-04-26 16:34:00,89.6,25.9,30.24,SSE,158,1.3,2.9,10,0.00,,,0.00,VWS V14.01,2013-04-26 20:34:00,
2013-04-26 16:35:00,89.2,25.6,30.24,WSW,248,2.5,3.6,10,0.00,,,0.00,VWS V14.01,2013-04-26 20:35:00,
2013-04-26 16:36:00,86.4,29.8,30.21,West,270,3.4,7.2,13,0.00,,,0.00,VWS V14.01,2013-04-26 20:36:00,
2013-04-26 16:37:00,89.8,26.0,30.24,West,270,1.6,2.9,10,0.00,,,0.00,VWS V14.01,2013-04-26 20:37:00,
2013-04-26 16:38:00,89.1,25.5,30.24,West,270,4.9,4.9,10,0.00,,,0.00,VWS V14.01,2013-04-26 20:38:00,
2013-04-26 16:39:00,89.1,25.5,30.24,NNE,22,5.6,6.0,10,0.00,,,0.00,VWS V14.01,2013-04-26 20:39:00,
2013-04-26 16:40:00,89.1,25.5,30.24,NNE,22,5.6,5.6,10,0.00,,,0.00,VWS V14.01,2013-04-26 20:40:00,
2013-04-26 16:41:00,86.2,29.6,30.21,West,270,4.3,6.5,13,0.00,,,0.00,VWS V14.01,2013-04-26 20:41:00,
2013-04-26 16:42:00,89.8,26.0,30.24,WNW,292,3.6,4.0,10,0.00,,,0.00,VWS V14.01,2013-04-26 20:42:00,
2013-04-26 16:43:00,90.0,26.2,30.21,WSW,248,5.8,5.8,10,0.00,,,0.00,VWS V14.01,2013-04-26 20:43:00,
2013-04-26 16:44:00,89.6,25.9,30.21,WNW,292,3.1,5.8,10,0.00,,,0.00,VWS V14.01,2013-04-26 20:44:00,
2013-04-26 16:45:00,89.6,25.9,30.21,WNW,292,3.4,3.4,10,0.00,,,0.00,VWS V14.01,2013-04-26 20:45:00,
2013-04-26 16:46:00,85.8,29.4,30.21,West,270,6.5,7.4,13,0.00,,,0.00,VWS V14.01,2013-04-26 20:46:00,
2013-04-26 16:47:00,88.3,24.9,30.21,WNW,292,2.7,6.3,10,0.00,,,0.00,VWS V14.01,2013-04-26 20:47:00,
2013-04-26 16:48:00,88.3,24.9,30.21,WNW,292,3.6,3.6,10,0.00,,,0.00,VWS V14.01,2013-04-26 20:48:00,
2013-04-26 16:49:00,87.8,24.5,30.21,WNW,292,2.9,3.6,10,0.00,,,0.00,VWS V14.01,2013-04-26 20:49:00,
2013-04-26 16:50:00,87.4,26.5,30.21,West,270,8.7,8.7,11,0.00,,,0.00,VWS V14.01,2013-04-26 20:50:00,
2013-04-26 16:51:00,85.3,28.9,30.21,SSE,158,4.9,4.9,13,0.00,,,0.00,VWS V14.01,2013-04-26 20:51:00,
2013-04-26 16:53:00,86.4,25.7,30.21,WNW,292,6.0,8.1,11,0.00,,,0.00,VWS V14.01,2013-04-26 20:53:00,
2013-04-26 16:54:00,85.8,25.3,30.21,WSW,248,3.8,6.0,11,0.00,,,0.00,VWS V14.01,2013-04-26 20:54:00,
2013-04-26 16:55:00,86.2,25.6,30.21,WSW,248,3.1,4.3,11,0.00,,,0.00,VWS V14.01,2013-04-26 20:55:00,
2013-04-26 16:56:00,85.6,29.2,30.21,SSW,202,3.4,3.8,13,0.00,,,0.00,VWS V14.01,2013-04-26 20:56:00,
2013-04-26 16:57:00,86.7,26.0,30.21,West,270,7.4,7.4,11,0.00,,,0.00,VWS V14.01,2013-04-26 20:57:00,
2013-04-26 16:58:00,86.4,25.7,30.21,WSW,248,5.4,8.1,11,0.00,,,0.00,VWS V14.01,2013-04-26 20:58:00,
2013-04-26 16:59:00,86.4,25.7,30.21,SW,225,5.8,5.8,11,0.00,,,0.00,VWS V14.01,2013-04-26 20:59:00,
2013-04-26 17:00:00,86.4,25.7,30.21,West,270,4.9,5.8,11,0.00,,,0.00,VWS V14.01,2013-04-26 21:00:00,
2013-04-26 17:01:00,86.0,29.5,30.21,NNE,22,7.2,7.2,13,0.00,,,0.00,VWS V14.01,2013-04-26 21:01:00,
2013-04-26 17:02:00,86.5,25.9,30.21,West,270,3.8,4.9,11,0.00,,,0.00,VWS V14.01,2013-04-26 21:02:00,
2013-04-26 17:03:00,86.5,29.9,30.21,NW,315,4.0,7.6,13,0.00,,,0.00,VWS V14.01,2013-04-26 21:03:00,
2013-04-26 17:04:00,86.5,29.9,30.21,WNW,292,5.4,5.4,13,0.00,,,0.00,VWS V14.01,2013-04-26 21:04:00,
2013-04-26 17:05:00,86.9,30.2,30.21,WNW,292,4.0,6.0,13,0.00,,,0.00,VWS V14.01,2013-04-26 21:05:00,
2013-04-26 17:06:00,85.8,29.4,30.21,NNW,338,6.0,7.8,13,0.00,,,0.00,VWS V14.01,2013-04-26 21:06:00,
2013-04-26 17:07:00,87.3,30.5,30.21,WNW,292,5.6,5.6,13,0.00,,,0.00,VWS V14.01,2013-04-26 21:07:00,
2013-04-26 17:08:00,87.8,30.9,30.21,West,270,4.3,7.4,13,0.00,,,0.00,VWS V14.01,2013-04-26 21:08:00,
2013-04-26 17:09:00,87.8,24.5,30.21,WNW,292,6.5,6.9,10,0.00,,,0.00,VWS V14.01,2013-04-26 21:09:00,
2013-04-26 17:10:00,87.6,26.7,30.21,NNW,338,6.5,6.5,11,0.00,,,0.00,VWS V14.01,2013-04-26 21:10:00,
2013-04-26 17:11:00,85.3,28.9,30.21,North,0,5.4,5.8,13,0.00,,,0.00,VWS V14.01,2013-04-26 21:11:00,
2013-04-26 17:12:00,87.4,26.5,30.21,WSW,248,5.6,7.2,11,0.00,,,0.00,VWS V14.01,2013-04-26 21:12:00,
2013-04-26 17:13:00,87.4,26.5,30.18,WSW,248,6.5,6.5,11,0.00,,,0.00,VWS V14.01,2013-04-26 21:13:00,
2013-04-26 17:14:00,87.6,26.7,30.18,West,270,5.4,6.5,11,0.00,,,0.00,VWS V14.01,2013-04-26 21:14:00,
2013-04-26 17:15:00,87.6,26.7,30.18,NW,315,4.9,6.5,11,0.00,,,0.00,VWS V14.01,2013-04-26 21:15:00,
2013-04-26 17:16:00,85.8,29.4,30.21,West,270,3.1,4.3,13,0.00,,,0.00,VWS V14.01,2013-04-26 21:16:00,
2013-04-26 17:17:00,87.6,26.7,30.18,West,270,4.7,7.6,11,0.00,,,0.00,VWS V14.01,2013-04-26 21:17:00,
2013-04-26 17:18:00,87.6,26.7,30.18,West,270,6.5,6.5,11,0.00,,,0.00,VWS V14.01,2013-04-26 21:18:00,
2013-04-26 17:19:00,87.6,26.7,30.18,West,270,8.5,9.8,11,0.00,,,0.00,VWS V14.01,2013-04-26 21:19:00,
2013-04-26 17:20:00,87.1,26.3,30.18,WNW,292,8.1,11.0,11,0.00,,,0.00,VWS V14.01,2013-04-26 21:20:00,
2013-04-26 17:21:00,85.5,29.1,30.21,SW,225,4.0,7.8,13,0.00,,,0.00,VWS V14.01,2013-04-26 21:21:00,
2013-04-26 17:22:00,87.3,26.4,30.18,SE,135,4.7,7.2,11,0.00,,,0.00,VWS V14.01,2013-04-26 21:22:00,
2013-04-26 17:23:00,87.4,26.5,30.18,WNW,292,6.5,6.5,11,0.00,,,0.00,VWS V14.01,2013-04-26 21:23:00,
2013-04-26 17:24:00,87.4,26.5,30.18,NW,315,8.1,8.1,11,0.00,,,0.00,VWS V14.01,2013-04-26 21:24:00,
2013-04-26 17:25:00,87.1,26.3,30.18,WNW,292,6.0,8.1,11,0.00,,,0.00,VWS V14.01,2013-04-26 21:25:00,
2013-04-26 17:26:00,85.6,29.2,30.18,WNW,292,5.4,6.3,13,0.00,,,0.00,VWS V14.01,2013-04-26 21:26:00,
2013-04-26 17:27:00,86.7,26.0,30.18,WNW,292,3.8,11.0,11,0.00,,,0.00,VWS V14.01,2013-04-26 21:27:00,
2013-04-26 17:28:00,87.1,30.3,30.18,West,270,3.8,5.8,13,0.00,,,0.00,VWS V14.01,2013-04-26 21:28:00,
2013-04-26 17:29:00,87.3,26.4,30.18,SW,225,3.8,6.3,11,0.00,,,0.00,VWS V14.01,2013-04-26 21:29:00,
2013-04-26 17:30:00,87.6,26.7,30.18,West,270,4.9,6.0,11,0.00,,,0.00,VWS V14.01,2013-04-26 21:30:00,
2013-04-26 17:31:00,86.0,29.5,30.18,South,180,5.4,5.4,13,0.00,,,0.00,VWS V14.01,2013-04-26 21:31:00,
2013-04-26 17:32:00,87.3,26.4,30.18,West,270,4.0,7.6,11,0.00,,,0.00,VWS V14.01,2013-04-26 21:32:00,
2013-04-26 17:33:00,87.1,26.3,30.18,West,270,4.3,6.5,11,0.00,,,0.00,VWS V14.01,2013-04-26 21:33:00,
2013-04-26 17:34:00,87.3,26.4,30.18,NW,315,5.8,7.8,11,0.00,,,0.00,VWS V14.01,2013-04-26 21:34:00,
2013-04-26 17:35:00,87.4,26.5,30.18,West,270,4.0,5.8,11,0.00,,,0.00,VWS V14.01,2013-04-26 21:35:00,
2013-04-26 17:36:00,86.0,29.5,30.18,West,270,5.8,5.8,13,0.00,,,0.00,VWS V14.01,2013-04-26 21:36:00,
2013-04-26 17:37:00,87.4,26.5,30.18,West,270,6.5,6.5,11,0.00,,,0.00,VWS V14.01,2013-04-26 21:37:00,
2013-04-26 17:38:00,87.4,26.5,30.18,WNW,292,4.9,6.5,11,0.00,,,0.00,VWS V14.01,2013-04-26 21:38:00,
2013-04-26 17:39:00,87.8,24.5,30.18,WNW,292,4.9,4.9,10,0.00,,,0.00,VWS V14.01,2013-04-26 21:39:00,
2013-04-26 17:40:00,87.6,26.7,30.18,WNW,292,4.5,7.8,11,0.00,,,0.00,VWS V14.01,2013-04-26 21:40:00,
2013-04-26 17:41:00,85.5,29.1,30.18,WNW,292,5.8,6.7,13,0.00,,,0.00,VWS V14.01,2013-04-26 21:41:00,
2013-04-26 17:42:00,87.6,26.7,30.18,SW,225,3.6,3.6,11,0.00,,,0.00,VWS V14.01,2013-04-26 21:42:00,
2013-04-26 17:43:00,87.8,24.5,30.21,West,270,3.8,6.0,10,0.00,,,0.00,VWS V14.01,2013-04-26 21:43:00,
2013-04-26 17:44:00,87.8,24.5,30.21,West,270,8.1,8.1,10,0.00,,,0.00,VWS V14.01,2013-04-26 21:44:00,
2013-04-26 17:45:00,87.6,26.7,30.21,WSW,248,2.9,8.1,11,0.00,,,0.00,VWS V14.01,2013-04-26 21:45:00,
2013-04-26 17:46:00,84.9,28.6,30.18,WNW,292,4.0,6.7,13,0.00,,,0.00,VWS V14.01,2013-04-26 21:46:00,
2013-04-26 17:47:00,87.6,26.7,30.21,WNW,292,2.7,2.7,11,0.00,,,0.00,VWS V14.01,2013-04-26 21:47:00,
2013-04-26 17:48:00,87.6,26.7,30.21,WNW,292,2.7,2.7,11,0.00,,,0.00,VWS V14.01,2013-04-26 21:48:00,
2013-04-26 17:49:00,87.6,26.7,30.21,West,270,6.3,6.3,11,0.00,,,0.00,VWS V14.01,2013-04-26 21:49:00,
2013-04-26 17:50:00,87.8,30.9,30.21,West,270,4.9,6.3,13,0.00,,,0.00,VWS V14.01,2013-04-26 21:50:00,
2013-04-26 17:51:00,84.2,28.1,30.18,West,270,7.8,7.8,13,0.00,,,0.00,VWS V14.01,2013-04-26 21:51:00,
2013-04-26 17:52:00,87.8,24.5,30.21,West,270,5.8,8.7,10,0.00,,,0.00,VWS V14.01,2013-04-26 21:52:00,
2013-04-26 17:53:00,87.3,26.4,30.21,SW,225,6.0,7.6,11,0.00,,,0.00,VWS V14.01,2013-04-26 21:53:00,
2013-04-26 17:55:00,87.1,26.3,30.21,North,0,4.9,8.1,11,0.00,,,0.00,VWS V14.01,2013-04-26 21:55:00,
2013-04-26 17:56:00,84.4,28.2,30.18,West,270,4.0,7.2,13,0.00,,,0.00,VWS V14.01,2013-04-26 21:56:00,
2013-04-26 17:57:00,87.3,30.5,30.21,WSW,248,5.4,6.3,13,0.00,,,0.00,VWS V14.01,2013-04-26 21:57:00,
2013-04-26 17:58:00,87.3,30.5,30.21,WSW,248,5.8,7.4,13,0.00,,,0.00,VWS V14.01,2013-04-26 21:58:00,
2013-04-26 17:59:00,87.3,30.5,30.21,West,270,5.8,8.7,13,0.00,,,0.00,VWS V14.01,2013-04-26 21:59:00,
2013-04-26 18:00:00,86.7,30.0,30.21,West,270,6.3,8.1,13,0.00,,,0.00,VWS V14.01,2013-04-26 22:00:00,
2013-04-26 18:01:00,83.8,29.6,30.18,WNW,292,6.5,7.4,14,0.00,,,0.00,VWS V14.01,2013-04-26 22:01:00,
2013-04-26 18:03:00,86.7,30.0,30.21,West,270,5.8,7.4,13,0.00,,,0.00,VWS V14.01,2013-04-26 22:03:00,
2013-04-26 18:04:00,86.7,30.0,30.21,WNW,292,5.8,5.8,13,0.00,,,0.00,VWS V14.01,2013-04-26 22:04:00,
2013-04-26 18:05:00,86.7,30.0,30.21,WNW,292,7.6,7.6,13,0.00,,,0.00,VWS V14.01,2013-04-26 22:05:00,
2013-04-26 18:06:00,83.5,29.3,30.18,WNW,292,6.9,8.1,14,0.00,,,0.00,VWS V14.01,2013-04-26 22:06:00,
2013-04-26 18:07:00,86.4,29.8,30.21,WNW,292,3.1,8.5,13,0.00,,,0.00,VWS V14.01,2013-04-26 22:07:00,
2013-04-26 18:08:00,86.4,29.8,30.21,WSW,248,4.5,7.4,13,0.00,,,0.00,VWS V14.01,2013-04-26 22:08:00,
2013-04-26 18:10:00,86.4,29.8,30.21,WNW,292,7.2,7.2,13,0.00,,,0.00,VWS V14.01,2013-04-26 22:10:00,
2013-04-26 18:11:00,83.7,29.5,30.18,WNW,292,5.8,5.8,14,0.00,,,0.00,VWS V14.01,2013-04-26 22:11:00,
2013-04-26 18:12:00,86.4,29.8,30.21,West,270,7.4,7.6,13,0.00,,,0.00,VWS V14.01,2013-04-26 22:12:00,
2013-04-26 18:13:00,86.0,29.5,30.21,West,270,7.4,7.4,13,0.00,,,0.00,VWS V14.01,2013-04-26 22:13:00,
2013-04-26 18:14:00,86.0,29.5,30.21,West,270,4.0,7.4,13,0.00,,,0.00,VWS V14.01,2013-04-26 22:14:00,
2013-04-26 18:15:00,86.0,29.5,30.21,West,270,3.6,8.5,13,0.00,,,0.00,VWS V14.01,2013-04-26 22:15:00,
2013-04-26 18:16:00,83.7,29.5,30.18,WNW,292,2.9,2.9,14,0.00,,,0.00,VWS V14.01,2013-04-26 22:16:00,
2013-04-26 18:17:00,86.2,29.6,30.21,WNW,292,6.7,6.7,13,0.00,,,0.00,VWS V14.01,2013-04-26 22:17:00,
2013-04-26 18:18:00,86.2,29.6,30.21,West,270,5.6,7.8,13,0.00,,,0.00,VWS V14.01,2013-04-26 22:18:00,
2013-04-26 18:19:00,86.2,29.6,30.21,WNW,292,7.4,7.8,13,0.00,,,0.00,VWS V14.01,2013-04-26 22:19:00,
2013-04-26 18:20:00,85.8,29.4,30.21,West,270,6.5,7.4,13,0.00,,,0.00,VWS V14.01,2013-04-26 22:20:00,
2013-04-26 18:21:00,83.8,29.6,30.18,WSW,248,4.0,4.0,14,0.00,,,0.00,VWS V14.01,2013-04-26 22:21:00,
2013-04-26 18:22:00,85.8,29.4,30.21,WSW,248,9.6,9.6,13,0.00,,,0.00,VWS V14.01,2013-04-26 22:22:00,
2013-04-26 18:23:00,85.6,29.2,30.21,WNW,292,7.8,9.6,13,0.00,,,0.00,VWS V14.01,2013-04-26 22:23:00,
2013-04-26 18:24:00,85.6,29.2,30.21,WNW,292,7.8,8.5,13,0.00,,,0.00,VWS V14.01,2013-04-26 22:24:00,
2013-04-26 18:25:00,85.3,28.9,30.21,SSE,158,4.9,9.8,13,0.00,,,0.00,VWS V14.01,2013-04-26 22:25:00,
2013-04-26 18:26:00,83.5,29.3,30.18,West,270,4.0,9.6,14,0.00,,,0.00,VWS V14.01,2013-04-26 22:26:00,
2013-04-26 18:27:00,85.3,28.9,30.21,West,270,6.5,6.5,13,0.00,,,0.00,VWS V14.01,2013-04-26 22:27:00,
2013-04-26 18:28:00,85.3,28.9,30.21,WNW,292,4.5,6.5,13,0.00,,,0.00,VWS V14.01,2013-04-26 22:28:00,
2013-04-26 18:29:00,85.3,28.9,30.21,South,180,3.6,5.4,13,0.00,,,0.00,VWS V14.01,2013-04-26 22:29:00,
2013-04-26 18:30:00,85.5,29.1,30.21,West,270,3.8,3.8,13,0.00,,,0.00,VWS V14.01,2013-04-26 22:30:00,
2013-04-26 18:31:00,83.5,29.3,30.18,West,270,3.4,3.4,14,0.00,,,0.00,VWS V14.01,2013-04-26 22:31:00,
2013-04-26 18:32:00,85.6,29.2,30.21,West,270,4.9,5.8,13,0.00,,,0.00,VWS V14.01,2013-04-26 22:32:00,
2013-04-26 18:33:00,85.6,29.2,30.21,West,270,6.5,6.5,13,0.00,,,0.00,VWS V14.01,2013-04-26 22:33:00,
2013-04-26 18:34:00,85.6,29.2,30.21,WSW,248,6.0,6.5,13,0.00,,,0.00,VWS V14.01,2013-04-26 22:34:00,
2013-04-26 18:35:00,85.6,29.2,30.21,ESE,112,7.2,7.2,13,0.00,,,0.00,VWS V14.01,2013-04-26 22:35:00,
2013-04-26 18:36:00,83.3,29.2,30.18,NW,315,5.4,5.4,14,0.00,,,0.00,VWS V14.01,2013-04-26 22:36:00,
2013-04-26 18:37:00,86.0,29.5,30.21,WSW,248,6.0,6.3,13,0.00,,,0.00,VWS V14.01,2013-04-26 22:37:00,
2013-04-26 18:38:00,85.8,29.4,30.21,West,270,5.4,6.3,13,0.00,,,0.00,VWS V14.01,2013-04-26 22:38:00,
2013-04-26 18:39:00,85.8,29.4,30.21,West,270,5.4,5.4,13,0.00,,,0.00,VWS V14.01,2013-04-26 22:39:00,
2013-04-26 18:40:00,85.8,29.4,30.21,West,270,6.0,8.1,13,0.00,,,0.00,VWS V14.01,2013-04-26 22:40:00,
2013-04-26 18:41:00,82.6,28.6,30.18,West,270,4.3,4.3,14,0.00,,,0.00,VWS V14.01,2013-04-26 22:41:00,
2013-04-26 18:42:00,85.6,29.2,30.21,West,270,8.7,8.7,13,0.00,,,0.00,VWS V14.01,2013-04-26 22:42:00,
2013-04-26 18:43:00,85.6,29.2,30.21,West,270,8.7,8.7,13,0.00,,,0.00,VWS V14.01,2013-04-26 22:43:00,
2013-04-26 18:44:00,85.3,28.9,30.21,North,0,4.0,8.7,13,0.00,,,0.00,VWS V14.01,2013-04-26 22:44:00,
2013-04-26 18:45:00,85.3,28.9,30.21,ENE,68,4.0,5.4,13,0.00,,,0.00,VWS V14.01,2013-04-26 22:45:00,
2013-04-26 18:46:00,82.0,28.2,30.18,West,270,4.7,5.4,14,0.00,,,0.00,VWS V14.01,2013-04-26 22:46:00,
2013-04-26 18:47:00,85.3,28.9,30.21,WNW,292,5.6,5.6,13,0.00,,,0.00,VWS V14.01,2013-04-26 22:47:00,
2013-04-26 18:48:00,85.5,29.1,30.21,WNW,292,6.0,8.1,13,0.00,,,0.00,VWS V14.01,2013-04-26 22:48:00,
2013-04-26 18:49:00,85.5,29.1,30.21,NW,315,3.1,6.0,13,0.00,,,0.00,VWS V14.01,2013-04-26 22:49:00,
2013-04-26 18:50:00,85.8,29.4,30.21,NW,315,4.3,4.3,13,0.00,,,0.00,VWS V14.01,2013-04-26 22:50:00,
2013-04-26 18:51:00,81.9,28.0,30.18,NNW,338,3.4,3.4,14,0.00,,,0.00,VWS V14.01,2013-04-26 22:51:00,
2013-04-26 18:52:00,85.8,29.4,30.21,WNW,292,6.5,6.5,13,0.00,,,0.00,VWS V14.01,2013-04-26 22:52:00,
2013-04-26 18:53:00,85.8,29.4,30.21,WNW,292,8.7,8.7,13,0.00,,,0.00,VWS V14.01,2013-04-26 22:53:00,
2013-04-26 18:54:00,85.6,29.2,30.21,West,270,6.0,8.7,13,0.00,,,0.00,VWS V14.01,2013-04-26 22:54:00,
2013-04-26 18:55:00,85.5,29.1,30.21,WNW,292,7.8,7.8,13,0.00,,,0.00,VWS V14.01,2013-04-26 22:55:00,
2013-04-26 18:56:00,81.5,27.8,30.18,NNE,22,4.7,6.9,14,0.00,,,0.00,VWS V14.01,2013-04-26 22:56:00,
2013-04-26 18:57:00,85.5,29.1,30.21,WNW,292,6.3,6.3,13,0.00,,,0.00,VWS V14.01,2013-04-26 22:57:00,
2013-04-26 18:58:00,85.5,29.1,30.18,NNW,338,5.8,7.8,13,0.00,,,0.00,VWS V14.01,2013-04-26 22:58:00,
2013-04-26 18:59:00,85.5,29.1,30.18,WNW,292,4.0,5.8,13,0.00,,,0.00,VWS V14.01,2013-04-26 22:59:00,
2013-04-26 19:00:00,85.5,29.1,30.18,WSW,248,4.5,4.7,13,0.00,,,0.00,VWS V14.01,2013-04-26 23:00:00,
2013-04-26 19:01:00,81.3,32.4,30.18,WNW,292,4.3,4.9,17,0.00,,,0.00,VWS V14.01,2013-04-26 23:01:00,
2013-04-26 19:02:00,85.6,29.2,30.18,WNW,292,7.6,7.6,13,0.00,,,0.00,VWS V14.01,2013-04-26 23:02:00,
2013-04-26 19:04:00,85.6,29.2,30.18,West,270,3.4,7.6,13,0.00,,,0.00,VWS V14.01,2013-04-26 23:04:00,
2013-04-26 19:05:00,85.6,29.2,30.18,WSW,248,4.0,4.0,13,0.00,,,0.00,VWS V14.01,2013-04-26 23:05:00,
2013-04-26 19:06:00,80.8,32.0,30.18,WNW,292,5.6,5.6,17,0.00,,,0.00,VWS V14.01,2013-04-26 23:06:00,
2013-04-26 19:07:00,85.8,29.4,30.18,NW,315,3.8,5.4,13,0.00,,,0.00,VWS V14.01,2013-04-26 23:07:00,
2013-04-26 19:08:00,85.8,29.4,30.18,West,270,3.4,4.9,13,0.00,,,0.00,VWS V14.01,2013-04-26 23:08:00,
2013-04-26 19:09:00,85.8,29.4,30.18,NNW,338,3.6,4.0,13,0.00,,,0.00,VWS V14.01,2013-04-26 23:09:00,
2013-04-26 19:10:00,86.0,29.5,30.18,WNW,292,5.6,5.6,13,0.00,,,0.00,VWS V14.01,2013-04-26 23:10:00,
2013-04-26 19:11:00,86.0,29.5,30.18,WNW,292,2.7,5.8,13,0.00,,,0.00,VWS V14.01,2013-04-26 23:11:00,
2013-04-26 19:12:00,80.4,31.7,30.18,West,270,5.4,5.4,17,0.00,,,0.00,VWS V14.01,2013-04-26 23:12:00,
2013-04-26 19:13:00,85.6,29.2,30.18,WNW,292,5.4,7.8,13,0.00,,,0.00,VWS V14.01,2013-04-26 23:13:00,
2013-04-26 19:14:00,85.5,29.1,30.18,WNW,292,2.5,6.3,13,0.00,,,0.00,VWS V14.01,2013-04-26 23:14:00,
2013-04-26 19:15:00,85.5,29.1,30.18,West,270,5.8,5.8,13,0.00,,,0.00,VWS V14.01,2013-04-26 23:15:00,
2013-04-26 19:16:00,85.5,29.1,30.18,WNW,292,5.8,6.7,13,0.00,,,0.00,VWS V14.01,2013-04-26 23:16:00,
2013-04-26 19:17:00,80.4,31.7,30.18,WSW,248,3.4,4.3,17,0.00,,,0.00,VWS V14.01,2013-04-26 23:17:00,
2013-04-26 19:18:00,85.1,28.8,30.18,West,270,2.9,6.5,13,0.00,,,0.00,VWS V14.01,2013-04-26 23:18:00,
2013-04-26 19:19:00,84.9,28.6,30.18,WNW,292,3.1,5.4,13,0.00,,,0.00,VWS V14.01,2013-04-26 23:19:00,
2013-04-26 19:20:00,84.9,28.6,30.18,NNE,22,6.3,7.4,13,0.00,,,0.00,VWS V14.01,2013-04-26 23:20:00,
2013-04-26 19:21:00,84.9,28.6,30.18,WNW,292,5.6,6.7,13,0.00,,,0.00,VWS V14.01,2013-04-26 23:21:00,
2013-04-26 19:22:00,80.1,31.4,30.18,WNW,292,3.4,3.4,17,0.00,,,0.00,VWS V14.01,2013-04-26 23:22:00,
2013-04-26 19:23:00,84.6,28.4,30.18,WNW,292,2.9,5.6,13,0.00,,,0.00,VWS V14.01,2013-04-26 23:23:00,
2013-04-26 19:24:00,84.6,28.4,30.18,WNW,292,5.8,5.8,13,0.00,,,0.00,VWS V14.01,2013-04-26 23:24:00,
2013-04-26 19:25:00,84.6,28.4,30.18,North,0,7.2,8.1,13,0.00,,,0.00,VWS V14.01,2013-04-26 23:25:00,
2013-04-26 19:27:00,79.9,31.2,30.18,West,270,2.7,3.8,17,0.00,,,0.00,VWS V14.01,2013-04-26 23:27:00,
2013-04-26 19:28:00,84.2,28.1,30.18,WSW,248,3.8,3.8,13,0.00,,,0.00,VWS V14.01,2013-04-26 23:28:00,
2013-04-26 19:29:00,84.4,28.2,30.18,WSW,248,3.4,4.0,13,0.00,,,0.00,VWS V14.01,2013-04-26 23:29:00,
2013-04-26 19:30:00,84.4,28.2,30.18,West,270,4.3,6.0,13,0.00,,,0.00,VWS V14.01,2013-04-26 23:30:00,
2013-04-26 19:31:00,84.4,28.2,30.18,West,270,4.0,7.2,13,0.00,,,0.00,VWS V14.01,2013-04-26 23:31:00,
2013-04-26 19:32:00,79.7,31.1,30.18,West,270,3.8,6.0,17,0.00,,,0.00,VWS V14.01,2013-04-26 23:32:00,
2013-04-26 19:33:00,84.0,29.8,30.18,West,270,8.1,8.1,14,0.00,,,0.00,VWS V14.01,2013-04-26 23:33:00,
2013-04-26 19:34:00,84.0,29.8,30.18,WNW,292,6.5,8.1,14,0.00,,,0.00,VWS V14.01,2013-04-26 23:34:00,
2013-04-26 19:35:00,83.8,29.6,30.18,WNW,292,7.4,8.5,14,0.00,,,0.00,VWS V14.01,2013-04-26 23:35:00,
2013-04-26 19:36:00,83.8,29.6,30.18,WNW,292,6.5,7.4,14,0.00,,,0.00,VWS V14.01,2013-04-26 23:36:00,
2013-04-26 19:37:00,79.3,30.8,30.18,WSW,248,2.9,3.8,17,0.00,,,0.00,VWS V14.01,2013-04-26 23:37:00,
2013-04-26 19:38:00,83.8,29.6,30.18,North,0,5.4,6.5,14,0.00,,,0.00,VWS V14.01,2013-04-26 23:38:00,
2013-04-26 19:39:00,83.8,29.6,30.18,NNE,22,5.6,6.3,14,0.00,,,0.00,VWS V14.01,2013-04-26 23:39:00,
2013-04-26 19:40:00,83.7,29.5,30.18,West,270,7.6,7.6,14,0.00,,,0.00,VWS V14.01,2013-04-26 23:40:00,
2013-04-26 19:41:00,83.5,29.3,30.18,WNW,292,6.9,8.1,14,0.00,,,0.00,VWS V14.01,2013-04-26 23:41:00,
2013-04-26 19:42:00,79.0,30.5,30.21,WNW,292,3.8,4.7,17,0.00,,,0.00,VWS V14.01,2013-04-26 23:42:00,
2013-04-26 19:43:00,83.5,29.3,30.18,West,270,8.5,8.5,14,0.00,,,0.00,VWS V14.01,2013-04-26 23:43:00,
2013-04-26 19:44:00,83.5,29.3,30.18,WNW,292,6.3,8.7,14,0.00,,,0.00,VWS V14.01,2013-04-26 23:44:00,
2013-04-26 19:45:00,83.5,29.3,30.18,WNW,292,4.3,6.3,14,0.00,,,0.00,VWS V14.01,2013-04-26 23:45:00,
2013-04-26 19:46:00,83.7,29.5,30.18,WNW,292,5.8,5.8,14,0.00,,,0.00,VWS V14.01,2013-04-26 23:46:00,
2013-04-26 19:47:00,78.6,34.2,30.21,West,270,5.4,5.4,20,0.00,,,0.00,VWS V14.01,2013-04-26 23:47:00,
2013-04-26 19:48:00,83.5,29.3,30.18,WNW,292,5.4,7.4,14,0.00,,,0.00,VWS V14.01,2013-04-26 23:48:00,
2013-04-26 19:49:00,83.7,29.5,30.18,North,0,4.3,5.8,14,0.00,,,0.00,VWS V14.01,2013-04-26 23:49:00,
2013-04-26 19:50:00,83.7,29.5,30.18,WNW,292,2.9,4.3,14,0.00,,,0.00,VWS V14.01,2013-04-26 23:50:00,
2013-04-26 19:51:00,83.7,29.5,30.18,WNW,292,6.0,6.0,14,0.00,,,0.00,VWS V14.01,2013-04-26 23:51:00,
2013-04-26 19:52:00,78.3,33.9,30.21,WNW,292,3.6,3.6,20,0.00,,,0.00,VWS V14.01,2013-04-26 23:52:00,
2013-04-26 19:53:00,83.7,29.5,30.18,NNE,22,6.3,6.3,14,0.00,,,0.00,VWS V14.01,2013-04-26 23:53:00,
2013-04-26 19:54:00,83.7,29.5,30.18,West,270,2.5,6.3,14,0.00,,,0.00,VWS V14.01,2013-04-26 23:54:00,
2013-04-26 19:55:00,83.8,29.6,30.18,NW,315,2.2,4.0,14,0.00,,,0.00,VWS V14.01,2013-04-26 23:55:00,
2013-04-26 19:56:00,83.8,29.6,30.18,WSW,248,4.0,7.2,14,0.00,,,0.00,VWS V14.01,2013-04-26 23:56:00,
2013-04-26 19:57:00,83.8,29.6,30.18,NNW,338,3.1,4.0,14,0.00,,,0.00,VWS V14.01,2013-04-26 23:57:00,
2013-04-26 19:58:00,83.8,29.6,30.18,WNW,292,6.3,6.3,14,0.00,,,0.00,VWS V14.01,2013-04-26 23:58:00,
2013-04-26 19:59:00,83.8,29.6,30.18,SE,135,2.0,6.3,14,0.00,,,0.00,VWS V14.01,2013-04-26 23:59:00,
2013-04-26 20:00:00,83.8,29.6,30.18,WNW,292,4.3,4.3,14,0.00,,,0.00,VWS V14.01,2013-04-27 00:00:00,
2013-04-26 20:01:00,83.5,29.3,30.18,West,270,4.0,9.6,14,0.00,,,0.00,VWS V14.01,2013-04-27 00:01:00,
2013-04-26 20:02:00,83.3,29.2,30.18,NW,315,5.6,6.0,14,0.00,,,0.00,VWS V14.01,2013-04-27 00:02:00,
2013-04-26 20:03:00,83.5,29.3,30.18,West,270,4.0,5.6,14,0.00,,,0.00,VWS V14.01,2013-04-27 00:03:00,
2013-04-26 20:04:00,83.5,29.3,30.18,West,270,3.1,4.3,14,0.00,,,0.00,VWS V14.01,2013-04-27 00:04:00,
2013-04-26 20:05:00,77.4,34.4,30.21,WNW,292,4.0,4.0,21,0.00,,,0.00,VWS V14.01,2013-04-27 00:05:00,
2013-04-26 20:06:00,83.5,29.3,30.18,West,270,3.4,3.4,14,0.00,,,0.00,VWS V14.01,2013-04-27 00:06:00,
2013-04-26 20:07:00,83.5,29.3,30.18,WNW,292,4.0,4.0,14,0.00,,,0.00,VWS V14.01,2013-04-27 00:07:00,
2013-04-26 20:08:00,83.7,29.5,30.18,WNW,292,7.2,7.2,14,0.00,,,0.00,VWS V14.01,2013-04-27 00:08:00,
2013-04-26 20:09:00,83.5,29.3,30.18,West,270,5.8,7.2,14,0.00,,,0.00,VWS V14.01,2013-04-27 00:09:00,
2013-04-26 20:10:00,77.0,34.1,30.21,NNW,338,3.1,3.4,21,0.00,,,0.00,VWS V14.01,2013-04-27 00:10:00,
2013-04-26 20:11:00,83.3,29.2,30.18,SSW,202,1.3,5.4,14,0.00,,,0.00,VWS V14.01,2013-04-27 00:11:00,
2013-04-26 20:12:00,82.9,28.9,30.18,West,270,3.1,3.1,14,0.00,,,0.00,VWS V14.01,2013-04-27 00:12:00,
2013-04-26 20:13:00,82.8,28.8,30.18,NNW,338,5.4,6.0,14,0.00,,,0.00,VWS V14.01,2013-04-27 00:13:00,
2013-04-26 20:14:00,82.6,28.6,30.18,SSE,158,3.8,5.4,14,0.00,,,0.00,VWS V14.01,2013-04-27 00:14:00,
2013-04-26 20:15:00,76.8,35.1,30.21,WNW,292,2.0,2.0,22,0.00,,,0.00,VWS V14.01,2013-04-27 00:15:00,
2013-04-26 20:16:00,82.6,28.6,30.18,NNE,22,4.3,4.3,14,0.00,,,0.00,VWS V14.01,2013-04-27 00:16:00,
2013-04-26 20:17:00,82.6,28.6,30.18,West,270,4.3,4.3,14,0.00,,,0.00,VWS V14.01,2013-04-27 00:17:00,
2013-04-26 20:18:00,82.2,28.3,30.18,WNW,292,4.9,4.9,14,0.00,,,0.00,VWS V14.01,2013-04-27 00:18:00,
2013-04-26 20:19:00,82.2,28.3,30.18,West,270,3.8,5.6,14,0.00,,,0.00,VWS V14.01,2013-04-27 00:19:00,
2013-04-26 20:20:00,76.6,35.0,30.21,WNW,292,3.1,3.1,22,0.00,,,0.00,VWS V14.01,2013-04-27 00:20:00,
2013-04-26 20:21:00,82.0,28.2,30.18,West,270,4.7,5.4,14,0.00,,,0.00,VWS V14.01,2013-04-27 00:21:00,
2013-04-26 20:22:00,82.0,28.2,30.18,NNW,338,3.6,5.8,14,0.00,,,0.00,VWS V14.01,2013-04-27 00:22:00,
2013-04-26 20:23:00,82.0,28.2,30.18,NNW,338,6.3,6.3,14,0.00,,,0.00,VWS V14.01,2013-04-27 00:23:00,
2013-04-26 20:24:00,81.9,28.0,30.18,WNW,292,9.6,9.6,14,0.00,,,0.00,VWS V14.01,2013-04-27 00:24:00,
2013-04-26 20:25:00,76.5,34.8,30.21,WNW,292,2.5,2.7,22,0.00,,,0.00,VWS V14.01,2013-04-27 00:25:00,
2013-04-26 20:26:00,81.9,28.0,30.18,North,0,3.4,5.8,14,0.00,,,0.00,VWS V14.01,2013-04-27 00:26:00,
2013-04-26 20:27:00,81.9,28.0,30.18,West,270,6.0,6.0,14,0.00,,,0.00,VWS V14.01,2013-04-27 00:27:00,
2013-04-26 20:28:00,81.7,27.9,30.18,West,270,6.3,6.3,14,0.00,,,0.00,VWS V14.01,2013-04-27 00:28:00,
2013-04-26 20:29:00,81.7,27.9,30.18,WNW,292,4.3,6.3,14,0.00,,,0.00,VWS V14.01,2013-04-27 00:29:00,
2013-04-26 20:30:00,76.3,35.8,30.21,West,270,2.9,2.9,23,0.00,,,0.00,VWS V14.01,2013-04-27 00:30:00,
2013-04-26 20:31:00,81.5,27.8,30.18,WSW,248,6.9,6.9,14,0.00,,,0.00,VWS V14.01,2013-04-27 00:31:00,
2013-04-26 20:32:00,81.5,27.8,30.18,WNW,292,3.6,6.9,14,0.00,,,0.00,VWS V14.01,2013-04-27 00:32:00,
2013-04-26 20:33:00,81.5,27.8,30.18,West,270,5.8,5.8,14,0.00,,,0.00,VWS V14.01,2013-04-27 00:33:00,
2013-04-26 20:34:00,81.5,32.5,30.18,WNW,292,4.7,6.3,17,0.00,,,0.00,VWS V14.01,2013-04-27 00:34:00,
2013-04-26 20:35:00,76.1,36.7,30.21,WNW,292,1.3,2.7,24,0.00,,,0.00,VWS V14.01,2013-04-27 00:35:00,
2013-04-26 20:36:00,81.3,32.4,30.18,West,270,4.9,5.4,17,0.00,,,0.00,VWS V14.01,2013-04-27 00:36:00,
2013-04-26 20:37:00,81.1,32.2,30.18,WNW,292,4.9,7.8,17,0.00,,,0.00,VWS V14.01,2013-04-27 00:37:00,
2013-04-26 20:38:00,81.0,32.1,30.18,SSW,202,7.8,7.8,17,0.00,,,0.00,VWS V14.01,2013-04-27 00:38:00,
2013-04-26 20:40:00,75.7,37.5,30.21,North,0,3.8,3.8,25,0.00,,,0.00,VWS V14.01,2013-04-27 00:40:00,
2013-04-26 20:42:00,80.8,32.0,30.18,WNW,292,5.6,5.6,17,0.00,,,0.00,VWS V14.01,2013-04-27 00:42:00,
2013-04-26 20:43:00,80.8,32.0,30.18,West,270,4.9,5.6,17,0.00,,,0.00,VWS V14.01,2013-04-27 00:43:00,
2013-04-26 20:44:00,80.8,32.0,30.18,NW,315,4.7,6.9,17,0.00,,,0.00,VWS V14.01,2013-04-27 00:44:00,
2013-04-26 20:46:00,75.6,38.3,30.21,NNE,22,2.5,2.5,26,0.00,,,0.00,VWS V14.01,2013-04-27 00:46:00,
2013-04-26 20:47:00,80.4,31.7,30.18,WSW,248,2.9,5.4,17,0.00,,,0.00,VWS V14.01,2013-04-27 00:47:00,
2013-04-26 20:49:00,80.4,31.7,30.18,WNW,292,3.1,7.2,17,0.00,,,0.00,VWS V14.01,2013-04-27 00:49:00,
2013-04-26 20:50:00,80.4,31.7,30.18,WNW,292,5.4,5.4,17,0.00,,,0.00,VWS V14.01,2013-04-27 00:50:00,
2013-04-26 20:51:00,75.4,41.0,30.21,West,270,2.7,4.3,29,0.00,,,0.00,VWS V14.01,2013-04-27 00:51:00,
2013-04-26 20:52:00,80.2,31.5,30.18,West,270,5.6,5.6,17,0.00,,,0.00,VWS V14.01,2013-04-27 00:52:00,
2013-04-26 20:53:00,80.4,31.7,30.18,NNW,338,2.5,5.8,17,0.00,,,0.00,VWS V14.01,2013-04-27 00:53:00,
2013-04-26 20:54:00,80.2,31.5,30.18,West,270,3.6,3.6,17,0.00,,,0.00,VWS V14.01,2013-04-27 00:54:00,
2013-04-26 20:55:00,80.2,31.5,30.18,WNW,292,5.4,6.5,17,0.00,,,0.00,VWS V14.01,2013-04-27 00:55:00,
2013-04-26 20:56:00,75.2,42.5,30.21,WNW,292,3.4,3.4,31,0.00,,,0.00,VWS V14.01,2013-04-27 00:56:00,
2013-04-26 20:57:00,80.1,35.4,30.18,WNW,292,3.4,4.9,20,0.00,,,0.00,VWS V14.01,2013-04-27 00:57:00,
2013-04-26 20:58:00,80.1,31.4,30.18,NNE,22,4.7,4.7,17,0.00,,,0.00,VWS V14.01,2013-04-27 00:58:00,
2013-04-26 20:59:00,80.1,31.4,30.18,West,270,4.3,4.7,17,0.00,,,0.00,VWS V14.01,2013-04-27 00:59:00,
2013-04-26 21:00:00,79.9,31.2,30.18,NNW,338,5.4,5.4,17,0.00,,,0.00,VWS V14.01,2013-04-27 01:00:00,
2013-04-26 21:01:00,75.0,43.2,30.21,WNW,292,3.4,3.4,32,0.00,,,0.00,VWS V14.01,2013-04-27 01:01:00,
2013-04-26 21:02:00,79.9,31.2,30.18,NW,315,4.3,4.3,17,0.00,,,0.00,VWS V14.01,2013-04-27 01:02:00,
2013-04-26 21:04:00,79.9,31.2,30.18,NW,315,5.6,5.6,17,0.00,,,0.00,VWS V14.01,2013-04-27 01:04:00,
2013-04-26 21:05:00,79.9,31.2,30.18,West,270,3.4,5.6,17,0.00,,,0.00,VWS V14.01,2013-04-27 01:05:00,
2013-04-26 21:06:00,74.8,43.0,30.21,West,270,2.0,4.0,32,0.00,,,0.00,VWS V14.01,2013-04-27 01:06:00,
2013-04-26 21:07:00,79.7,31.1,30.18,NNE,22,4.0,6.0,17,0.00,,,0.00,VWS V14.01,2013-04-27 01:07:00,
2013-04-26 21:08:00,79.7,31.1,30.18,WSW,248,4.0,4.0,17,0.00,,,0.00,VWS V14.01,2013-04-27 01:08:00,
2013-04-26 21:09:00,79.7,31.1,30.18,NNE,22,4.3,4.3,17,0.00,,,0.00,VWS V14.01,2013-04-27 01:09:00,
2013-04-26 21:10:00,79.5,30.9,30.18,NNE,22,6.5,6.5,17,0.00,,,0.00,VWS V14.01,2013-04-27 01:10:00,
2013-04-26 21:11:00,74.8,43.0,30.18,SW,225,5.6,5.6,32,0.00,,,0.00,VWS V14.01,2013-04-27 01:11:00,
2013-04-26 21:12:00,79.3,30.8,30.18,WNW,292,3.4,3.8,17,0.00,,,0.00,VWS V14.01,2013-04-27 01:12:00,
2013-04-26 21:13:00,79.2,30.6,30.21,West,270,2.9,3.4,17,0.00,,,0.00,VWS V14.01,2013-04-27 01:13:00,
2013-04-26 21:14:00,79.2,30.6,30.21,North,0,4.0,4.0,17,0.00,,,0.00,VWS V14.01,2013-04-27 01:14:00,
2013-04-26 21:15:00,79.0,30.5,30.21,NNW,338,4.3,4.3,17,0.00,,,0.00,VWS V14.01,2013-04-27 01:15:00,
2013-04-26 21:16:00,74.7,42.9,30.18,WNW,292,2.2,2.2,32,0.00,,,0.00,VWS V14.01,2013-04-27 01:16:00,
2013-04-26 21:17:00,79.0,30.5,30.21,West,270,4.3,4.7,17,0.00,,,0.00,VWS V14.01,2013-04-27 01:17:00,
2013-04-26 21:18:00,79.0,34.5,30.21,West,270,3.8,4.3,20,0.00,,,0.00,VWS V14.01,2013-04-27 01:18:00,
2013-04-26 21:19:00,78.8,34.4,30.21,West,270,3.6,3.8,20,0.00,,,0.00,VWS V14.01,2013-04-27 01:19:00,
2013-04-26 21:20:00,78.6,31.6,30.21,WNW,292,3.1,3.8,18,0.00,,,0.00,VWS V14.01,2013-04-27 01:20:00,
2013-04-26 21:21:00,74.5,42.7,30.18,NNE,22,2.5,4.0,32,0.00,,,0.00,VWS V14.01,2013-04-27 01:21:00,
2013-04-26 21:22:00,78.6,34.2,30.21,WNW,292,3.4,5.4,20,0.00,,,0.00,VWS V14.01,2013-04-27 01:22:00,
2013-04-26 21:23:00,78.4,34.1,30.21,West,270,2.9,3.6,20,0.00,,,0.00,VWS V14.01,2013-04-27 01:23:00,
2013-04-26 21:24:00,78.4,34.1,30.21,NNE,22,2.9,2.9,20,0.00,,,0.00,VWS V14.01,2013-04-27 01:24:00,
2013-04-26 21:25:00,78.3,33.9,30.21,NW,315,3.4,3.6,20,0.00,,,0.00,VWS V14.01,2013-04-27 01:25:00,
2013-04-26 21:26:00,74.5,42.7,30.21,WNW,292,2.7,3.4,32,0.00,,,0.00,VWS V14.01,2013-04-27 01:26:00,
2013-04-26 21:27:00,78.3,33.9,30.21,SW,225,4.0,4.0,20,0.00,,,0.00,VWS V14.01,2013-04-27 01:27:00,
2013-04-26 21:28:00,78.1,33.8,30.21,WNW,292,3.4,4.0,20,0.00,,,0.00,VWS V14.01,2013-04-27 01:28:00,
2013-04-26 21:29:00,77.9,33.6,30.21,West,270,4.9,4.9,20,0.00,,,0.00,VWS V14.01,2013-04-27 01:29:00,
2013-04-26 21:30:00,77.9,33.6,30.21,NW,315,3.8,4.9,20,0.00,,,0.00,VWS V14.01,2013-04-27 01:30:00,
2013-04-26 21:31:00,74.5,42.7,30.21,WNW,292,2.5,3.1,32,0.00,,,0.00,VWS V14.01,2013-04-27 01:31:00,
2013-04-26 21:32:00,77.7,33.5,30.21,NW,315,3.1,5.6,20,0.00,,,0.00,VWS V14.01,2013-04-27 01:32:00,
2013-04-26 21:33:00,77.7,33.5,30.21,West,270,3.1,3.4,20,0.00,,,0.00,VWS V14.01,2013-04-27 01:33:00,
2013-04-26 21:35:00,77.7,33.5,30.21,North,0,3.1,5.4,20,0.00,,,0.00,VWS V14.01,2013-04-27 01:35:00,
2013-04-26 21:36:00,74.5,42.7,30.21,WNW,292,3.1,3.1,32,0.00,,,0.00,VWS V14.01,2013-04-27 01:36:00,
2013-04-26 21:37:00,77.5,33.3,30.21,WNW,292,2.5,3.8,20,0.00,,,0.00,VWS V14.01,2013-04-27 01:37:00,
2013-04-26 21:38:00,77.4,34.4,30.21,WNW,292,2.5,2.5,21,0.00,,,0.00,VWS V14.01,2013-04-27 01:38:00,
2013-04-26 21:39:00,77.4,34.4,30.21,WNW,292,2.7,3.6,21,0.00,,,0.00,VWS V14.01,2013-04-27 01:39:00,
2013-04-26 21:40:00,77.4,34.4,30.21,WNW,292,4.0,4.0,21,0.00,,,0.00,VWS V14.01,2013-04-27 01:40:00,
2013-04-26 21:41:00,74.5,42.7,30.24,NW,315,2.9,3.4,32,0.00,,,0.00,VWS V14.01,2013-04-27 01:41:00,
2013-04-26 21:42:00,77.2,34.3,30.21,West,270,2.0,3.8,21,0.00,,,0.00,VWS V14.01,2013-04-27 01:42:00,
2013-04-26 21:43:00,77.2,34.3,30.21,NNW,338,2.5,2.5,21,0.00,,,0.00,VWS V14.01,2013-04-27 01:43:00,
2013-04-26 21:44:00,77.2,34.3,30.21,North,0,2.2,4.0,21,0.00,,,0.00,VWS V14.01,2013-04-27 01:44:00,
2013-04-26 21:45:00,77.0,34.1,30.21,NNW,338,3.1,3.4,21,0.00,,,0.00,VWS V14.01,2013-04-27 01:45:00,
2013-04-26 21:46:00,74.5,41.9,30.24,North,0,3.4,3.4,31,0.00,,,0.00,VWS V14.01,2013-04-27 01:46:00,
2013-04-26 21:47:00,77.0,34.1,30.21,West,270,2.7,3.4,21,0.00,,,0.00,VWS V14.01,2013-04-27 01:47:00,
2013-04-26 21:48:00,77.0,34.1,30.21,WNW,292,4.3,4.5,21,0.00,,,0.00,VWS V14.01,2013-04-27 01:48:00,
2013-04-26 21:49:00,77.0,34.1,30.21,NW,315,2.5,4.9,21,0.00,,,0.00,VWS V14.01,2013-04-27 01:49:00,
2013-04-26 21:50:00,76.8,35.1,30.21,NNW,338,2.0,3.1,22,0.00,,,0.00,VWS V14.01,2013-04-27 01:50:00,
2013-04-26 21:51:00,74.5,41.9,30.24,NNW,338,3.6,3.6,31,0.00,,,0.00,VWS V14.01,2013-04-27 01:51:00,
2013-04-26 21:52:00,76.8,35.1,30.21,NNW,338,2.9,3.1,22,0.00,,,0.00,VWS V14.01,2013-04-27 01:52:00,
2013-04-26 21:53:00,76.8,35.1,30.21,West,270,4.0,4.0,22,0.00,,,0.00,VWS V14.01,2013-04-27 01:53:00,
2013-04-26 21:54:00,76.8,35.1,30.21,West,270,4.3,4.3,22,0.00,,,0.00,VWS V14.01,2013-04-27 01:54:00,
2013-04-26 21:55:00,76.6,35.0,30.21,WNW,292,3.1,4.3,22,0.00,,,0.00,VWS V14.01,2013-04-27 01:55:00,
2013-04-26 21:56:00,74.5,41.9,30.24,NW,315,2.0,2.7,31,0.00,,,0.00,VWS V14.01,2013-04-27 01:56:00,
2013-04-26 21:57:00,76.6,35.0,30.21,ENE,68,3.6,3.6,22,0.00,,,0.00,VWS V14.01,2013-04-27 01:57:00,
2013-04-26 21:58:00,76.5,34.8,30.21,West,270,3.4,3.6,22,0.00,,,0.00,VWS V14.01,2013-04-27 01:58:00,
2013-04-26 21:59:00,76.5,34.8,30.21,West,270,3.4,3.4,22,0.00,,,0.00,VWS V14.01,2013-04-27 01:59:00,
2013-04-26 22:00:00,76.5,34.8,30.21,West,270,2.7,3.4,22,0.00,,,0.00,VWS V14.01,2013-04-27 02:00:00,
2013-04-26 22:01:00,74.3,41.7,30.24,WSW,248,2.2,2.5,31,0.00,,,0.00,VWS V14.01,2013-04-27 02:01:00,
2013-04-26 22:02:00,76.5,36.0,30.21,NNE,22,2.5,4.3,23,0.00,,,0.00,VWS V14.01,2013-04-27 02:02:00,
2013-04-26 22:03:00,76.3,35.8,30.21,North,0,2.9,3.8,23,0.00,,,0.00,VWS V14.01,2013-04-27 02:03:00,
2013-04-26 22:04:00,76.3,35.8,30.21,West,270,2.9,3.1,23,0.00,,,0.00,VWS V14.01,2013-04-27 02:04:00,
2013-04-26 22:05:00,76.3,35.8,30.21,West,270,2.9,2.9,23,0.00,,,0.00,VWS V14.01,2013-04-27 02:05:00,
2013-04-26 22:06:00,74.3,41.7,30.24,West,270,0.9,1.6,31,0.00,,,0.00,VWS V14.01,2013-04-27 02:06:00,
2013-04-26 22:07:00,76.1,36.7,30.21,NNW,338,3.4,3.4,24,0.00,,,0.00,VWS V14.01,2013-04-27 02:07:00,
2013-04-26 22:08:00,76.1,36.7,30.21,West,270,2.0,3.4,24,0.00,,,0.00,VWS V14.01,2013-04-27 02:08:00,
2013-04-26 22:09:00,76.1,36.7,30.21,WNW,292,2.7,2.7,24,0.00,,,0.00,VWS V14.01,2013-04-27 02:09:00,
2013-04-26 22:10:00,76.1,36.7,30.21,WNW,292,1.3,2.7,24,0.00,,,0.00,VWS V14.01,2013-04-27 02:10:00,
2013-04-26 22:11:00,74.3,41.7,30.24,WNW,292,2.9,3.8,31,0.00,,,0.00,VWS V14.01,2013-04-27 02:11:00,
2013-04-26 22:12:00,75.9,36.6,30.21,North,0,2.9,3.8,24,0.00,,,0.00,VWS V14.01,2013-04-27 02:12:00,
2013-04-26 22:13:00,75.7,37.5,30.21,NNW,338,2.9,2.9,25,0.00,,,0.00,VWS V14.01,2013-04-27 02:13:00,
2013-04-26 22:14:00,75.7,37.5,30.21,NNW,338,2.5,2.9,25,0.00,,,0.00,VWS V14.01,2013-04-27 02:14:00,
2013-04-26 22:16:00,74.1,41.6,30.24,WNW,292,2.0,2.9,31,0.00,,,0.00,VWS V14.01,2013-04-27 02:16:00,
2013-04-26 22:17:00,75.7,37.5,30.21,West,270,2.5,2.5,25,0.00,,,0.00,VWS V14.01,2013-04-27 02:17:00,
2013-04-26 22:18:00,75.6,38.3,30.21,NNW,338,3.8,4.5,26,0.00,,,0.00,VWS V14.01,2013-04-27 02:18:00,
2013-04-26 22:20:00,75.6,38.3,30.21,NW,315,2.5,4.0,26,0.00,,,0.00,VWS V14.01,2013-04-27 02:20:00,
2013-04-26 22:21:00,74.1,41.6,30.24,WNW,292,2.2,2.2,31,0.00,,,0.00,VWS V14.01,2013-04-27 02:21:00,
2013-04-26 22:22:00,75.6,39.3,30.21,West,270,2.7,2.7,27,0.00,,,0.00,VWS V14.01,2013-04-27 02:22:00,
2013-04-26 22:23:00,75.6,39.3,30.21,NNE,22,3.1,4.0,27,0.00,,,0.00,VWS V14.01,2013-04-27 02:23:00,
2013-04-26 22:25:00,75.6,39.3,30.21,WNW,292,4.3,4.3,27,0.00,,,0.00,VWS V14.01,2013-04-27 02:25:00,
2013-04-26 22:26:00,73.9,41.4,30.27,North,0,2.5,2.7,31,0.00,,,0.00,VWS V14.01,2013-04-27 02:26:00,
2013-04-26 22:27:00,75.4,41.8,30.21,North,0,4.9,4.9,30,0.00,,,0.00,VWS V14.01,2013-04-27 02:27:00,
2013-04-26 22:28:00,75.4,42.7,30.21,West,270,2.0,4.9,31,0.00,,,0.00,VWS V14.01,2013-04-27 02:28:00,
2013-04-26 22:29:00,75.2,42.5,30.21,WSW,248,3.4,4.0,31,0.00,,,0.00,VWS V14.01,2013-04-27 02:29:00,
2013-04-26 22:30:00,75.2,42.5,30.21,WNW,292,3.4,3.8,31,0.00,,,0.00,VWS V14.01,2013-04-27 02:30:00,
2013-04-26 22:31:00,73.8,41.3,30.27,NNW,338,1.6,2.5,31,0.00,,,0.00,VWS V14.01,2013-04-27 02:31:00,
2013-04-26 22:32:00,75.2,42.5,30.21,NW,315,4.3,4.3,31,0.00,,,0.00,VWS V14.01,2013-04-27 02:32:00,
2013-04-26 22:33:00,75.2,42.5,30.21,WNW,292,5.4,5.4,31,0.00,,,0.00,VWS V14.01,2013-04-27 02:33:00,
2013-04-26 22:34:00,75.2,43.3,30.21,NNE,22,5.4,6.0,32,0.00,,,0.00,VWS V14.01,2013-04-27 02:34:00,
2013-04-26 22:35:00,75.0,43.2,30.21,West,270,2.5,5.4,32,0.00,,,0.00,VWS V14.01,2013-04-27 02:35:00,
2013-04-26 22:36:00,73.4,41.0,30.27,ENE,68,3.4,3.4,31,0.00,,,0.00,VWS V14.01,2013-04-27 02:36:00,
2013-04-26 22:38:00,75.0,43.2,30.21,NNW,338,2.9,5.4,32,0.00,,,0.00,VWS V14.01,2013-04-27 02:38:00,
2013-04-26 22:39:00,75.0,43.2,30.21,West,270,3.8,4.0,32,0.00,,,0.00,VWS V14.01,2013-04-27 02:39:00,
2013-04-26 22:40:00,74.8,43.0,30.21,NW,315,4.0,4.0,32,0.00,,,0.00,VWS V14.01,2013-04-27 02:40:00,
2013-04-26 22:41:00,73.2,41.6,30.27,NNW,338,1.3,1.6,32,0.00,,,0.00,VWS V14.01,2013-04-27 02:41:00,
2013-04-26 22:42:00,74.8,43.0,30.21,West,270,2.9,4.9,32,0.00,,,0.00,VWS V14.01,2013-04-27 02:42:00,
2013-04-26 22:43:00,74.8,43.0,30.18,West,270,2.9,4.0,32,0.00,,,0.00,VWS V14.01,2013-04-27 02:43:00,
2013-04-26 22:44:00,74.8,43.0,30.18,West,270,2.9,2.9,32,0.00,,,0.00,VWS V14.01,2013-04-27 02:44:00,
2013-04-26 22:45:00,74.8,43.0,30.18,WNW,292,1.3,2.9,32,0.00,,,0.00,VWS V14.01,2013-04-27 02:45:00,
2013-04-26 22:46:00,73.0,41.5,30.27,NNE,22,0.0,0.0,32,0.00,,,0.00,VWS V14.01,2013-04-27 02:46:00,
2013-04-26 22:47:00,74.7,42.9,30.18,WNW,292,3.6,3.6,32,0.00,,,0.00,VWS V14.01,2013-04-27 02:47:00,
2013-04-26 22:48:00,74.7,42.9,30.18,NNW,338,2.9,3.6,32,0.00,,,0.00,VWS V14.01,2013-04-27 02:48:00,
2013-04-26 22:49:00,74.7,42.9,30.18,WNW,292,2.9,2.9,32,0.00,,,0.00,VWS V14.01,2013-04-27 02:49:00,
2013-04-26 22:50:00,74.7,42.9,30.18,SSE,158,1.6,3.6,32,0.00,,,0.00,VWS V14.01,2013-04-27 02:50:00,
2013-04-26 22:51:00,72.9,41.3,30.27,NNE,22,2.0,2.9,32,0.00,,,0.00,VWS V14.01,2013-04-27 02:51:00,
2013-04-26 22:52:00,74.7,42.9,30.18,West,270,4.7,4.7,32,0.00,,,0.00,VWS V14.01,2013-04-27 02:52:00,
2013-04-26 22:53:00,74.5,42.7,30.18,North,0,4.3,4.7,32,0.00,,,0.00,VWS V14.01,2013-04-27 02:53:00,
2013-04-26 22:54:00,74.5,42.7,30.18,West,270,2.5,4.3,32,0.00,,,0.00,VWS V14.01,2013-04-27 02:54:00,
2013-04-26 22:55:00,74.5,42.7,30.18,NW,315,4.0,4.0,32,0.00,,,0.00,VWS V14.01,2013-04-27 02:55:00,
2013-04-26 22:56:00,72.7,42.0,30.27,NNE,22,2.5,3.6,33,0.00,,,0.00,VWS V14.01,2013-04-27 02:56:00,
2013-04-26 22:57:00,74.5,42.7,30.18,West,270,2.0,3.1,32,0.00,,,0.00,VWS V14.01,2013-04-27 02:57:00,
2013-04-26 22:58:00,74.5,42.7,30.21,WNW,292,3.6,3.6,32,0.00,,,0.00,VWS V14.01,2013-04-27 02:58:00,
2013-04-26 22:59:00,74.5,42.7,30.21,WNW,292,2.9,4.0,32,0.00,,,0.00,VWS V14.01,2013-04-27 02:59:00,
2013-04-26 23:01:00,72.5,41.8,30.27,North,0,2.5,2.5,33,0.00,,,0.00,VWS V14.01,2013-04-27 03:01:00,
2013-04-26 23:02:00,74.5,42.7,30.21,NNE,22,2.9,2.9,32,0.00,,,0.00,VWS V14.01,2013-04-27 03:02:00,
2013-04-26 23:03:00,74.5,42.7,30.21,North,0,4.0,4.0,32,0.00,,,0.00,VWS V14.01,2013-04-27 03:03:00,
2013-04-26 23:04:00,74.5,42.7,30.21,WNW,292,3.1,4.0,32,0.00,,,0.00,VWS V14.01,2013-04-27 03:04:00,
2013-04-26 23:06:00,72.3,41.6,30.27,NNE,22,2.7,2.7,33,0.00,,,0.00,VWS V14.01,2013-04-27 03:06:00,
2013-04-26 23:07:00,74.5,42.7,30.21,NNW,338,1.6,2.5,32,0.00,,,0.00,VWS V14.01,2013-04-27 03:07:00,
2013-04-26 23:08:00,74.5,42.7,30.21,WNW,292,2.0,2.0,32,0.00,,,0.00,VWS V14.01,2013-04-27 03:08:00,
2013-04-26 23:09:00,74.5,42.7,30.21,West,270,1.3,2.5,32,0.00,,,0.00,VWS V14.01,2013-04-27 03:09:00,
2013-04-26 23:10:00,74.5,42.7,30.21,WNW,292,2.5,3.6,32,0.00,,,0.00,VWS V14.01,2013-04-27 03:10:00,
2013-04-26 23:11:00,72.3,42.4,30.27,NNE,22,2.5,3.6,34,0.00,,,0.00,VWS V14.01,2013-04-27 03:11:00,
2013-04-26 23:12:00,74.5,42.7,30.21,North,0,1.6,3.1,32,0.00,,,0.00,VWS V14.01,2013-04-27 03:12:00,
2013-04-26 23:13:00,74.5,42.7,30.24,WNW,292,2.5,2.9,32,0.00,,,0.00,VWS V14.01,2013-04-27 03:13:00,
2013-04-26 23:14:00,74.5,42.7,30.24,NNE,22,3.6,3.6,32,0.00,,,0.00,VWS V14.01,2013-04-27 03:14:00,
2013-04-26 23:15:00,74.5,42.7,30.24,North,0,3.4,5.6,32,0.00,,,0.00,VWS V14.01,2013-04-27 03:15:00,
2013-04-26 23:16:00,72.1,42.2,30.27,NNE,22,2.7,2.7,34,0.00,,,0.00,VWS V14.01,2013-04-27 03:16:00,
2013-04-26 23:17:00,74.5,42.7,30.24,WNW,292,2.9,3.6,32,0.00,,,0.00,VWS V14.01,2013-04-27 03:17:00,
2013-04-26 23:18:00,74.5,42.7,30.24,NNW,338,1.3,2.9,32,0.00,,,0.00,VWS V14.01,2013-04-27 03:18:00,
2013-04-26 23:19:00,74.5,41.9,30.24,WNW,292,1.6,2.2,31,0.00,,,0.00,VWS V14.01,2013-04-27 03:19:00,
2013-04-26 23:20:00,74.5,41.9,30.24,North,0,3.4,3.4,31,0.00,,,0.00,VWS V14.01,2013-04-27 03:20:00,
2013-04-26 23:21:00,72.1,42.2,30.27,NE,45,3.6,3.6,34,0.00,,,0.00,VWS V14.01,2013-04-27 03:21:00,
2013-04-26 23:22:00,74.5,41.9,30.24,NNW,338,2.7,3.4,31,0.00,,,0.00,VWS V14.01,2013-04-27 03:22:00,
2013-04-26 23:24:00,74.5,41.9,30.24,WNW,292,2.7,2.7,31,0.00,,,0.00,VWS V14.01,2013-04-27 03:24:00,
2013-04-26 23:25:00,74.5,41.9,30.24,WNW,292,2.7,2.7,31,0.00,,,0.00,VWS V14.01,2013-04-27 03:25:00,
2013-04-26 23:26:00,72.3,42.4,30.27,NNE,22,3.4,6.3,34,0.00,,,0.00,VWS V14.01,2013-04-27 03:26:00,
2013-04-26 23:27:00,74.5,41.9,30.24,WSW,248,2.7,3.6,31,0.00,,,0.00,VWS V14.01,2013-04-27 03:27:00,
2013-04-26 23:28:00,74.5,41.9,30.24,NW,315,1.1,2.7,31,0.00,,,0.00,VWS V14.01,2013-04-27 03:28:00,
2013-04-26 23:29:00,74.5,41.9,30.24,NNW,338,2.7,3.6,31,0.00,,,0.00,VWS V14.01,2013-04-27 03:29:00,
2013-04-26 23:30:00,74.5,41.9,30.24,NNW,338,2.7,2.7,31,0.00,,,0.00,VWS V14.01,2013-04-27 03:30:00,
2013-04-26 23:31:00,72.3,42.4,30.27,NNE,22,3.8,4.0,34,0.00,,,0.00,VWS V14.01,2013-04-27 03:31:00,
2013-04-26 23:32:00,74.5,41.9,30.24,NNE,22,3.1,3.1,31,0.00,,,0.00,VWS V14.01,2013-04-27 03:32:00,
2013-04-26 23:33:00,74.5,41.9,30.24,NNE,22,3.1,3.1,31,0.00,,,0.00,VWS V14.01,2013-04-27 03:33:00,
2013-04-26 23:34:00,74.3,41.7,30.24,NNW,338,1.1,3.1,31,0.00,,,0.00,VWS V14.01,2013-04-27 03:34:00,
2013-04-26 23:35:00,74.3,41.7,30.24,NNW,338,2.5,4.7,31,0.00,,,0.00,VWS V14.01,2013-04-27 03:35:00,
2013-04-26 23:36:00,72.3,41.6,30.27,NNE,22,2.7,3.1,33,0.00,,,0.00,VWS V14.01,2013-04-27 03:36:00,
2013-04-26 23:37:00,74.3,41.7,30.24,WNW,292,2.2,2.7,31,0.00,,,0.00,VWS V14.01,2013-04-27 03:37:00,
2013-04-26 23:38:00,74.3,41.7,30.24,NNW,338,2.2,2.2,31,0.00,,,0.00,VWS V14.01,2013-04-27 03:38:00,
2013-04-26 23:39:00,74.3,41.7,30.24,NNW,338,2.7,2.7,31,0.00,,,0.00,VWS V14.01,2013-04-27 03:39:00,
2013-04-26 23:40:00,74.3,41.7,30.24,NNW,338,1.6,2.7,31,0.00,,,0.00,VWS V14.01,2013-04-27 03:40:00,
2013-04-26 23:41:00,72.3,41.6,30.27,ENE,68,2.0,3.6,33,0.00,,,0.00,VWS V14.01,2013-04-27 03:41:00,
2013-04-26 23:42:00,74.3,41.7,30.24,NNW,338,2.0,3.6,31,0.00,,,0.00,VWS V14.01,2013-04-27 03:42:00,
2013-04-26 23:43:00,74.3,41.7,30.24,NNE,22,3.1,4.0,31,0.00,,,0.00,VWS V14.01,2013-04-27 03:43:00,
2013-04-26 23:44:00,74.3,41.7,30.24,North,0,2.9,3.1,31,0.00,,,0.00,VWS V14.01,2013-04-27 03:44:00,
2013-04-26 23:45:00,74.3,41.7,30.24,NNE,22,3.6,3.6,31,0.00,,,0.00,VWS V14.01,2013-04-27 03:45:00,
2013-04-26 23:46:00,72.3,41.6,30.27,NNE,22,3.1,3.4,33,0.00,,,0.00,VWS V14.01,2013-04-27 03:46:00,
2013-04-26 23:47:00,74.3,41.7,30.24,NNW,338,2.2,2.7,31,0.00,,,0.00,VWS V14.01,2013-04-27 03:47:00,
2013-04-26 23:48:00,74.3,41.7,30.24,NW,315,2.2,2.2,31,0.00,,,0.00,VWS V14.01,2013-04-27 03:48:00,
2013-04-26 23:49:00,74.3,41.7,30.24,NNW,338,2.0,2.5,31,0.00,,,0.00,VWS V14.01,2013-04-27 03:49:00,
2013-04-26 23:50:00,74.1,41.6,30.24,NNW,338,1.6,2.0,31,0.00,,,0.00,VWS V14.01,2013-04-27 03:50:00,
2013-04-26 23:51:00,72.5,41.8,30.27,NNE,22,2.9,2.9,33,0.00,,,0.00,VWS V14.01,2013-04-27 03:51:00,
2013-04-26 23:52:00,74.1,41.6,30.24,NW,315,1.6,2.0,31,0.00,,,0.00,VWS V14.01,2013-04-27 03:52:00,
2013-04-26 23:53:00,74.1,41.6,30.24,West,270,1.6,2.0,31,0.00,,,0.00,VWS V14.01,2013-04-27 03:53:00,
2013-04-26 23:54:00,74.1,41.6,30.24,West,270,1.6,2.5,31,0.00,,,0.00,VWS V14.01,2013-04-27 03:54:00,
2013-04-26 23:55:00,74.1,41.6,30.24,NW,315,1.3,1.6,31,0.00,,,0.00,VWS V14.01,2013-04-27 03:55:00,
2013-04-26 23:56:00,72.5,41.0,30.27,ENE,68,4.9,4.9,32,0.00,,,0.00,VWS V14.01,2013-04-27 03:56:00,
2013-04-26 23:57:00,74.1,41.6,30.24,NNW,338,2.7,3.1,31,0.00,,,0.00,VWS V14.01,2013-04-27 03:57:00,
2013-04-26 23:58:00,73.9,41.4,30.27,WNW,292,2.5,3.1,31,0.00,,,0.00,VWS V14.01,2013-04-27 03:58:00,
2013-04-26 23:59:00,73.9,41.4,30.27,NNW,338,3.4,4.3,31,0.00,,,0.00,VWS V14.01,2013-04-27 03:59:00,